[[{"header":{"parameterUnit":"m.s-1","parameterCategory":1,"la1":30.6,"la2":28.766,"lo1":-90.7593,"lo2":-88.6598,"dy":0.0162,"dx":0.0183,"nx":116,"ny":114,"refTime":"2024-06-07T12:00:00:Z","depth":0,"parameterNumber":2,"parameterNumberName":"U-component_of_WINDS"},"data":[0.0,0.0,0.0,0.0,0.0,0.0,0.0,0.0,0.0,0.0,0.0,0.0,0.0,0.0,0.0,0.0,0.0,0.0,0.0,0.0,0.0,0.0,0.0,0.0,0.0,0.0,0.0,0.0,0.0,0.0,0.0,0.0,0.0,0.0,0.0,0.0,0.0,0.0,0.0,0.0,0.0,0.0,0.0,0.0,0.0,0.0,0.0,0.0,0.0,0.0,0.0,0.0,0.0,0.0,0.0,0.0,0.0,0.0,0.0,0.0,0.0,0.0,0.0,0.0,0.0,0.0,0.0,0.0,0.0,0.0,0.0,0.0,0.0,0.0,0.0,0.0,0.0,0.0,0.0,0.0,0.0,0.0,0.0,0.0,0.0,0.0,0.0,0.0,0.0,0.0,0.0,0.0,0.0,0.0,0.0,0.0,0.0,0.0,0.0,0.0,0.0,0.0,0.0,0.0,0.0,0.0,0.0,0.0,0.0,0.0,0.0,0.0,0.0,0.0,0.0,0.0,0.0,0.0,0.0,0.0,0.0,0.0,0.0,0.0,0.0,0.0,0.0,0.0,0.0,0.0,0.0,0.0,0.0,0.0,0.0,0.0,0.0,0.0,0.0,0.0,0.0,0.0,0.0,0.0,0.0,0.0,0.0,0.0,0.0,0.0,0.0,0.0,0.0,0.0,0.0,0.0,0.0,0.0,0.0,0.0,0.0,0.0,0.0,0.0,0.0,0.0,0.0,0.0,0.0,0.0,0.0,0.0,0.0,0.0,0.0,0.0,0.0,0.0,0.0,0.0,0.0,0.0,0.0,0.0,0.0,0.0,0.0,0.0,0.0,0.0,0.0,0.0,0.0,0.0,0.0,0.0,0.0,0.0,0.0,0.0,0.0,0.0,0.0,0.0,0.0,0.0,0.0,0.0,0.0,0.0,0.0,0.0,0.0,0.0,0.0,0.0,0.0,0.0,0.0,0.0,0.0,0.0,0.0,0.0,0.0,0.0,0.0,0.0,0.0,0.0,0.0,0.0,0.0,0.0,0.0,0.0,0.0,0.0,0.0,0.0,0.0,0.0,0.0,0.0,0.0,0.0,0.0,0.0,0.0,0.0,0.0,0.0,0.0,0.0,0.0,0.0,0.0,0.0,0.0,0.0,0.0,0.0,0.0,0.0,0.0,0.0,0.0,0.0,0.0,0.0,0.0,0.0,0.0,0.0,0.0,0.0,0.0,0.0,0.0,0.0,0.0,0.0,0.0,0.0,0.0,0.0,0.0,0.0,0.0,0.0,0.0,0.0,0.0,0.0,0.0,0.0,0.0,0.0,0.0,0.0,0.0,0.0,0.0,0.0,0.0,0.0,0.0,0.0,0.0,0.0,0.0,0.0,0.0,0.0,0.0,0.0,0.0,0.0,0.0,0.0,0.0,0.0,0.0,0.0,0.0,0.0,0.0,0.0,0.0,0.0,0.0,0.0,0.0,0.0,0.0,0.0,0.0,0.0,0.0,0.0,0.0,0.0,0.0,0.0,0.0,0.0,0.0,0.0,0.0,0.0,0.0,0.0,0.0,0.0,0.0,0.0,0.0,0.0,0.0,0.0,0.0,0.0,0.0,0.0,0.0,0.0,0.0,0.0,0.0,0.0,0.0,0.0,0.0,0.0,0.0,0.0,0.0,0.0,0.0,0.0,0.0,0.0,0.0,0.0,0.0,0.0,0.0,0.0,0.0,0.0,0.0,0.0,0.0,0.0,0.0,0.0,0.0,0.0,0.0,0.0,0.0,0.0,0.0,0.0,0.0,0.0,0.0,0.0,0.0,0.0,0.0,0.0,0.0,0.0,0.0,0.0,0.0,0.0,0.0,0.0,0.0,0.0,0.0,0.0,0.0,0.0,0.0,0.0,0.0,0.0,0.0,0.0,0.0,0.0,0.0,0.0,0.0,0.0,0.0,0.0,0.0,0.0,0.0,0.0,0.0,0.0,0.0,0.0,0.0,0.0,0.0,0.0,0.0,0.0,0.0,0.0,0.0,0.0,0.0,0.0,0.0,0.0,0.0,0.0,0.0,0.0,0.0,0.0,0.0,0.0,0.0,0.0,0.0,0.0,0.0,0.0,0.0,0.0,0.0,0.0,0.0,0.0,0.0,0.0,0.0,0.0,0.0,0.0,0.0,0.0,0.0,0.0,0.0,0.0,0.0,0.0,0.0,0.0,0.0,0.0,0.0,0.0,0.0,0.0,0.0,0.0,0.0,0.0,0.0,0.0,0.0,0.0,0.0,0.0,0.0,0.0,0.0,0.0,0.0,0.0,0.0,0.0,0.0,0.0,0.0,0.0,0.0,0.0,0.0,0.0,0.0,0.0,0.0,0.0,0.0,0.0,0.0,0.0,0.0,0.0,0.0,0.0,0.0,0.0,0.0,0.0,0.0,0.0,0.0,0.0,0.0,0.0,0.0,0.0,0.0,0.0,0.0,0.0,0.0,0.0,0.0,0.0,0.0,0.0,0.0,0.0,0.0,0.0,0.0,0.0,0.0,0.0,0.0,0.0,0.0,0.0,0.0,0.0,0.0,0.0,0.0,0.0,0.0,0.0,0.0,0.0,0.0,0.0,0.0,0.0,0.0,0.0,0.0,0.0,0.0,0.0,0.0,0.0,0.0,0.0,0.0,0.0,0.0,0.0,0.0,0.0,0.0,0.0,0.0,0.0,0.0,0.0,0.0,0.0,0.0,0.0,0.0,0.0,0.0,0.0,0.0,0.0,0.0,0.0,0.0,0.0,0.0,0.0,0.0,0.0,0.0,0.0,0.0,0.0,0.0,0.0,0.0,0.0,0.0,0.0,0.0,0.0,0.0,0.0,0.0,0.0,0.0,0.0,0.0,0.0,0.0,0.0,0.0,0.0,0.0,0.0,0.0,0.0,0.0,0.0,0.0,0.0,0.0,0.0,0.0,0.0,0.0,0.0,0.0,0.0,0.0,0.0,0.0,0.0,0.0,0.0,0.0,0.0,0.0,0.0,0.0,0.0,0.0,0.0,0.0,0.0,0.0,0.0,0.0,0.0,0.0,0.0,0.0,0.0,0.0,0.0,0.0,0.0,0.0,0.0,0.0,0.0,0.0,0.0,0.0,0.0,0.0,0.0,0.0,0.0,0.0,0.0,0.0,0.0,0.0,0.0,0.0,0.0,0.0,0.0,0.0,0.0,0.0,0.0,0.0,0.0,0.0,0.0,0.0,0.0,0.0,0.0,0.0,0.0,0.0,0.0,0.0,0.0,0.0,0.0,0.0,0.0,0.0,0.0,0.0,0.0,0.0,0.0,0.0,0.0,0.0,0.0,0.0,0.0,0.0,0.0,0.0,0.0,0.0,0.0,0.0,0.0,0.0,0.0,0.0,0.0,0.0,0.0,0.0,0.0,0.0,0.0,0.0,0.0,0.0,0.0,0.0,0.0,0.0,0.0,0.0,0.0,0.0,0.0,0.0,0.0,0.0,0.0,0.0,0.0,0.0,0.0,0.0,0.0,0.0,0.0,0.0,0.0,0.0,0.0,0.0,0.0,0.0,0.0,0.0,0.0,0.0,0.0,0.0,0.0,0.0,0.0,0.0,0.0,0.0,0.0,0.0,0.0,0.0,0.0,0.0,0.0,0.0,0.0,0.0,0.0,0.0,0.0,0.0,0.0,0.0,0.0,0.0,0.0,0.0,0.0,0.0,0.0,0.0,0.0,0.0,0.0,0.0,0.0,0.0,0.0,0.0,0.0,0.0,0.0,0.0,0.0,0.0,0.0,0.0,0.0,0.0,0.0,0.0,0.0,0.0,0.0,0.0,0.0,0.0,0.0,0.0,0.0,0.0,0.0,0.0,0.0,0.0,0.0,0.0,0.0,0.0,0.0,0.0,0.0,0.0,0.0,0.0,0.0,0.0,0.0,0.0,0.0,0.0,0.0,0.0,0.0,0.0,0.0,0.0,0.0,0.0,0.0,0.0,0.0,0.0,0.0,0.0,0.0,0.0,0.0,0.0,0.0,0.0,0.0,0.0,0.0,0.0,0.0,0.0,0.0,0.0,0.0,0.0,0.0,0.0,0.0,0.0,0.0,0.0,0.0,0.0,0.0,0.0,0.0,0.0,0.0,0.0,0.0,0.0,0.0,0.0,0.0,0.0,0.0,0.0,0.0,0.0,0.0,0.0,0.0,0.0,0.0,0.0,0.0,0.0,0.0,0.0,0.0,0.0,0.0,0.0,0.0,0.0,0.0,0.0,0.0,0.0,0.0,0.0,0.0,0.0,0.0,0.0,0.0,0.0,0.0,0.0,0.0,0.0,0.0,0.0,0.0,0.0,0.0,0.0,0.0,0.0,0.0,0.0,0.0,0.0,0.0,0.0,0.0,0.0,0.0,0.0,0.0,0.0,0.0,0.0,0.0,0.0,0.0,0.0,0.0,0.0,0.0,0.0,0.0,0.0,0.0,0.0,0.0,0.0,0.0,0.0,0.0,0.0,0.0,0.0,0.0,0.0,0.0,0.0,0.0,0.0,0.0,0.0,0.0,0.0,0.0,0.0,0.0,0.0,0.0,0.0,0.0,0.0,0.0,0.0,0.0,0.0,0.0,0.0,0.0,0.0,0.0,0.0,0.0,0.0,0.0,0.0,0.0,0.0,0.0,0.0,0.0,0.0,0.0,0.0,0.0,0.0,0.0,0.0,0.0,0.0,0.0,0.0,0.0,0.0,0.0,0.0,0.0,0.0,0.0,0.0,0.0,0.0,0.0,0.0,0.0,0.0,0.0,0.0,0.0,0.0,0.0,0.0,0.0,0.0,0.0,0.0,0.0,0.0,0.0,0.0,0.0,0.0,0.0,0.0,0.0,0.0,0.0,0.0,0.0,0.0,0.0,0.0,0.0,0.0,0.0,0.0,0.0,0.0,0.0,0.0,0.0,0.0,0.0,0.0,0.0,0.0,0.0,0.0,0.0,0.0,0.0,0.0,0.0,0.0,0.0,0.0,0.0,0.0,0.0,0.0,0.0,0.0,0.0,0.0,0.0,0.0,0.0,0.0,0.0,0.0,0.0,0.0,0.0,0.0,0.0,0.0,0.0,0.0,0.0,0.0,0.0,0.0,0.0,0.0,0.0,0.0,0.0,0.0,0.0,0.0,0.0,0.0,0.0,0.0,0.0,0.0,0.0,0.0,0.0,0.0,0.0,0.0,0.0,0.0,0.0,0.0,0.0,0.0,0.0,0.0,0.0,0.0,0.0,0.0,0.0,0.0,0.0,0.0,0.0,0.0,0.0,0.0,0.0,0.0,0.0,0.0,0.0,0.0,0.0,0.0,0.0,0.0,0.0,0.0,0.0,0.0,0.0,0.0,0.0,0.0,0.0,0.0,0.0,0.0,0.0,0.0,0.0,0.0,0.0,0.0,0.0,0.0,0.0,0.0,0.0,0.0,0.0,0.0,0.0,0.0,0.0,0.0,0.0,0.0,0.0,0.0,0.0,0.0,0.0,0.0,0.0,0.0,0.0,0.0,0.0,0.0,0.0,0.0,0.0,0.0,0.0,0.0,0.0,0.0,0.0,0.0,0.0,0.0,0.0,0.0,0.0,0.0,0.0,0.0,0.0,0.0,0.0,0.0,0.0,0.0,0.0,0.0,0.0,0.0,0.0,0.0,0.0,0.0,0.0,0.0,0.0,0.0,0.0,0.0,0.0,0.0,0.0,0.0,0.0,0.0,0.0,0.0,0.0,0.0,0.0,0.0,0.0,0.0,0.0,0.0,0.0,0.0,0.0,0.0,0.0,0.0,0.0,0.0,0.0,0.0,0.0,0.0,0.0,0.0,0.0,0.0,0.0,0.0,0.0,0.0,0.0,0.0,0.0,0.0,0.0,0.0,0.0,0.0,0.0,0.0,0.0,0.0,0.0,0.0,0.0,0.0,0.0,0.0,0.0,0.0,0.0,0.0,0.0,0.0,0.0,0.0,0.0,0.0,0.0,0.0,0.0,0.0,0.0,0.0,0.0,0.0,0.0,0.0,0.0,0.0,0.0,0.0,0.0,0.0,0.0,0.0,0.0,0.0,0.0,0.0,0.0,0.0,0.0,0.0,0.0,0.0,0.0,-2.0792,0.0,0.0,0.0,0.0,0.0,0.0,0.0,0.0,0.0,0.0,0.0,0.0,0.0,0.0,0.0,0.0,0.0,0.0,0.0,0.0,0.0,0.0,0.0,0.0,-1.912,-2.0216,-2.1054,-2.112,-2.1125,-2.1128,0.0,0.0,0.0,0.0,0.0,-1.9266,-1.9219,-1.9609,-2.0457,-2.0905,-2.1764,-2.2994,-2.2974,-2.1628,-1.9247,0.0,0.0,0.0,0.0,0.0,0.0,0.0,0.0,0.0,0.0,0.0,0.0,0.0,0.0,0.0,0.0,0.0,0.0,0.0,0.0,0.0,0.0,0.0,0.0,0.0,0.0,0.0,0.0,0.0,0.0,0.0,0.0,0.0,0.0,0.0,0.0,0.0,0.0,0.0,0.0,0.0,0.0,0.0,0.0,0.0,0.0,0.0,0.0,0.0,0.0,0.0,0.0,0.0,0.0,0.0,0.0,0.0,0.0,0.0,0.0,0.0,0.0,0.0,0.0,0.0,0.0,0.0,0.0,0.0,0.0,0.0,-2.2413,0.0,0.0,0.0,0.0,0.0,0.0,0.0,0.0,0.0,0.0,0.0,0.0,0.0,0.0,0.0,0.0,0.0,0.0,0.0,0.0,0.0,-1.7253,-1.812,-1.9729,-2.1081,-2.1955,-2.2022,-2.1969,-2.1838,-2.1193,0.0,0.0,0.0,-2.0672,-2.0827,-2.0827,-2.1647,-2.3326,-2.3931,-2.5493,-2.7894,-2.8635,-2.6683,-2.2585,-2.198,0.0,0.0,0.0,0.0,0.0,0.0,0.0,0.0,0.0,0.0,0.0,0.0,0.0,0.0,0.0,0.0,0.0,0.0,0.0,0.0,0.0,0.0,0.0,0.0,0.0,0.0,0.0,0.0,0.0,0.0,0.0,0.0,0.0,0.0,0.0,0.0,0.0,0.0,0.0,0.0,0.0,0.0,0.0,0.0,0.0,0.0,0.0,0.0,0.0,0.0,0.0,0.0,0.0,0.0,0.0,0.0,0.0,0.0,0.0,0.0,0.0,0.0,0.0,0.0,0.0,-3.1584,-3.1522,-3.1852,-3.2202,-2.7875,-2.6148,-2.6234,0.0,0.0,0.0,0.0,0.0,0.0,0.0,0.0,0.0,0.0,0.0,0.0,0.0,0.0,0.0,0.0,0.0,0.0,0.0,0.0,-1.8136,-1.8942,-2.0597,-2.1989,-2.2859,-2.2928,-2.2621,-2.1938,-2.1782,0.0,-2.0633,-2.0594,-2.0944,-2.1705,-2.1724,-2.2544,-2.4222,-2.7268,-2.9651,-3.1427,-3.1544,-3.1232,-3.0451,-2.7484,-2.5669,-2.4711,0.0,0.0,0.0,0.0,0.0,0.0,0.0,0.0,0.0,0.0,0.0,0.0,0.0,0.0,0.0,0.0,0.0,0.0,0.0,0.0,0.0,0.0,0.0,0.0,0.0,0.0,0.0,0.0,0.0,0.0,0.0,0.0,0.0,0.0,0.0,0.0,0.0,0.0,0.0,0.0,0.0,-2.1062,-2.134,0.0,0.0,0.0,0.0,0.0,0.0,0.0,0.0,0.0,0.0,0.0,0.0,0.0,0.0,-3.1308,-3.2769,-3.3608,-3.386,-3.5352,-3.576,-3.5134,-3.513,-3.4761,-3.4128,-3.3445,0.0,-2.9741,-2.7288,0.0,0.0,0.0,0.0,0.0,0.0,0.0,0.0,0.0,0.0,0.0,0.0,0.0,0.0,0.0,0.0,0.0,0.0,0.0,0.0,0.0,-2.2337,-2.4095,-2.4523,-2.5426,-2.5426,-2.4126,-2.3578,-2.272,-2.1392,-2.1335,-2.1509,-2.19,-2.3305,-2.5589,-2.8732,-3.1738,-3.3827,-3.5037,-3.5526,-3.5487,-3.4959,-3.3456,-3.0684,-2.7054,-2.5453,0.0,0.0,0.0,0.0,0.0,0.0,0.0,0.0,0.0,0.0,0.0,0.0,0.0,0.0,0.0,0.0,0.0,0.0,0.0,0.0,0.0,0.0,0.0,0.0,0.0,0.0,0.0,0.0,0.0,0.0,0.0,0.0,0.0,0.0,0.0,0.0,0.0,0.0,0.0,-2.0145,-2.2654,-2.3116,-2.3939,-2.3795,0.0,0.0,0.0,0.0,0.0,0.0,0.0,0.0,0.0,-3.1623,-3.2069,-3.3099,-3.4847,-3.5585,-3.6207,-3.6716,-3.7955,-3.8358,-3.8009,-3.8456,-3.8732,-3.8795,-3.8305,-3.6917,-3.4717,-3.1137,-2.83,-2.6111,0.0,0.0,0.0,0.0,0.0,-2.4184,0.0,0.0,0.0,0.0,0.0,0.0,0.0,0.0,0.0,0.0,0.0,0.0,-2.1328,-2.414,-2.6132,-2.6621,-2.7811,-2.7909,-2.6443,-2.5327,-2.4074,-2.2591,-2.2333,-2.231,-2.2524,-2.5472,-2.8908,-3.2774,-3.5389,-3.7106,-3.7946,-3.8591,-3.8551,-3.7926,-3.7711,-3.4881,-3.0176,-2.8635,-2.6253,-2.3403,0.0,0.0,0.0,0.0,0.0,0.0,0.0,0.0,0.0,0.0,0.0,0.0,0.0,0.0,0.0,0.0,0.0,0.0,0.0,0.0,0.0,0.0,0.0,0.0,0.0,0.0,0.0,0.0,0.0,0.0,0.0,0.0,0.0,0.0,0.0,0.0,0.0,-2.2576,-2.4488,-2.4907,-2.6309,-2.6378,0.0,0.0,0.0,0.0,0.0,0.0,-3.1549,-3.1875,-3.2982,-3.51,-3.5376,-3.6226,-3.7741,-3.778,-3.8188,-3.9047,-3.9703,-4.0014,-4.0033,-4.0635,-4.114,-4.151,-4.0869,-3.9761,-3.811,-3.4421,-3.1321,-2.8907,-2.8618,-2.7676,0.0,-2.7171,-2.751,-2.772,0.0,0.0,0.0,0.0,0.0,0.0,0.0,0.0,0.0,0.0,0.0,-2.1375,-2.3836,-2.5743,-2.7497,-2.9161,-2.9391,-2.9056,-2.8139,-2.6538,-2.5234,-2.4316,-2.3472,-2.3423,-2.4261,-2.8399,-3.1875,-3.4569,-3.7186,-3.8884,-3.9683,-3.9722,-3.9722,-3.9644,-3.8884,-3.7458,-3.5387,-3.203,-2.959,-2.7697,-2.4318,0.0,0.0,0.0,0.0,0.0,0.0,0.0,0.0,0.0,0.0,0.0,0.0,0.0,0.0,0.0,0.0,0.0,0.0,0.0,0.0,0.0,0.0,0.0,0.0,0.0,0.0,0.0,0.0,0.0,0.0,0.0,0.0,0.0,0.0,0.0,0.0,0.0,0.0,-2.685,-2.9661,0.0,0.0,0.0,0.0,-3.0383,-3.1234,-3.2497,-3.4229,-3.51,-3.5969,-3.6945,-3.7765,-3.8635,-3.9563,-3.9563,-3.9975,-4.0771,-4.083,-4.0849,-4.0849,-4.0888,-4.0519,-3.9815,-3.9776,-3.9237,-3.8251,-3.6377,-3.4057,-3.162,-3.0778,-3.0258,-2.9966,-3.0068,-3.0521,-3.0963,0.0,0.0,0.0,0.0,0.0,-1.5407,-1.5409,-1.6148,-1.7008,-1.7851,-2.0428,-2.2727,-2.4209,-2.7387,-2.9647,-3.0221,-3.1293,-3.1359,-2.995,-2.8256,-2.7168,-2.6855,-2.605,-2.7054,-3.0117,-3.2246,-3.4588,-3.7205,-3.8668,-3.98,-4.0639,-4.0639,-4.0639,-4.062,-4.0348,-3.9546,-3.8217,-3.4764,-3.1992,-2.9668,-2.6761,-2.4066,0.0,0.0,0.0,0.0,0.0,0.0,0.0,0.0,0.0,0.0,0.0,0.0,0.0,0.0,0.0,0.0,0.0,0.0,0.0,0.0,0.0,0.0,0.0,0.0,0.0,0.0,0.0,0.0,0.0,0.0,0.0,0.0,0.0,0.0,0.0,0.0,0.0,-3.0146,-3.2205,0.0,0.0,-3.2306,-3.3371,-3.3934,-3.4789,-3.6265,-3.8499,-3.8907,-3.9742,-4.1179,-4.1529,-4.184,-4.2146,-4.1587,-4.1451,-4.1747,-4.1747,-4.1747,-4.1762,-4.2325,-4.2422,-4.2146,-4.2146,-4.1335,-3.9956,-3.9334,-3.7201,-3.4308,-3.3998,-3.3098,-3.193,-3.1969,-3.2074,-3.2153,0.0,0.0,0.0,0.0,-1.4635,-1.5398,-1.5398,-1.6369,-1.752,-1.8699,-2.1566,-2.4052,-2.5494,-2.8965,-3.1183,-3.1143,-3.2453,-3.2708,-3.1303,-2.9596,-2.8631,-2.8633,-2.8412,-3.0021,-3.3768,-3.4979,-3.6696,-3.9001,-3.9839,-4.0522,-4.1109,-4.1109,-4.1109,-4.1109,-4.1109,-4.0777,-4.0073,-3.7516,-3.4744,-3.1914,-2.9631,-2.7347,-2.5041,0.0,0.0,0.0,0.0,0.0,0.0,0.0,0.0,0.0,0.0,0.0,0.0,0.0,0.0,0.0,0.0,0.0,0.0,0.0,0.0,0.0,0.0,0.0,0.0,0.0,0.0,0.0,0.0,0.0,0.0,0.0,0.0,0.0,0.0,0.0,-3.2205,-3.2769,-3.4866,-3.5818,-3.4692,-3.5838,-3.7023,-3.7897,-3.8499,-3.9684,-4.1665,-4.1781,-4.2306,-4.3466,-4.3505,-4.3505,-4.3505,-4.2928,-4.2481,-4.2194,-4.2194,-4.2058,-4.1781,-4.2364,-4.2617,-4.2617,-4.2617,-4.1976,-4.0907,-4.0907,-3.9389,-3.7017,-3.6726,-3.5643,-3.425,-3.4212,-3.3965,-3.3593,0.0,0.0,0.0,-1.2923,-1.4303,-1.5409,-1.5409,-1.6829,-1.8519,-2.0227,-2.2737,-2.5287,-2.7793,-3.0415,-3.2007,-3.2007,-3.2749,-3.2875,-3.204,-3.039,-2.9462,-2.957,-3.0481,-3.2208,-3.4804,-3.6502,-3.8199,-3.9878,-4.0737,-4.1148,-4.1148,-4.1148,-4.1129,-4.1109,-4.1109,-4.1109,-4.1031,-4.019,-3.7906,-3.4705,-3.289,-3.1189,-2.9331,0.0,0.0,0.0,0.0,0.0,0.0,0.0,0.0,0.0,0.0,0.0,0.0,0.0,0.0,0.0,0.0,0.0,0.0,0.0,0.0,0.0,0.0,0.0,0.0,0.0,0.0,0.0,0.0,0.0,0.0,0.0,0.0,0.0,-3.083,-3.3005,-3.4637,-3.4696,-3.7702,-3.914,-3.7469,-3.9528,-4.1335,-4.2175,-4.2233,-4.2617,-4.3486,-4.3544,-4.3544,-4.3583,-4.3583,-4.3583,-4.3583,-4.3544,-4.3122,-4.2272,-4.2252,-4.1781,-4.0946,-4.0946,-4.0927,-4.0907,-4.0907,-4.0907,-4.0907,-4.0907,-4.0441,-3.964,-3.8771,-3.7836,-3.6922,-3.6869,-3.624,-3.5422,0.0,0.0,-1.3078,-1.3676,-1.4668,-1.5406,-1.5398,-1.6821,-1.8291,-1.9411,-2.2883,-2.5748,-2.7082,-3.0082,-3.2,-3.1992,-3.1642,-3.1575,-3.1978,-2.9253,-2.8714,-3.1198,-3.3965,-3.6366,-3.8358,-3.8873,-3.9956,-4.1693,-4.1927,-4.2045,-4.2045,-4.2045,-4.1713,-4.1109,-4.1109,-4.1109,-4.109,-4.0836,-3.9839,-3.8141,-3.5174,-3.3338,-3.199,0.0,0.0,0.0,0.0,0.0,0.0,0.0,0.0,0.0,0.0,0.0,0.0,0.0,0.0,0.0,0.0,0.0,0.0,0.0,0.0,0.0,0.0,0.0,0.0,0.0,0.0,0.0,0.0,0.0,0.0,0.0,0.0,-3.3452,-3.3452,-3.5686,-3.7784,-3.9004,-4.0538,-4.1568,-4.1723,-4.2364,-4.2889,-4.3122,-4.3141,-4.353,-4.4404,-4.4443,-4.4715,-4.5297,-4.5317,-4.5317,-4.5317,-4.4734,-4.4326,-4.4074,-4.3433,-4.2694,-4.1845,-4.1845,-4.149,-4.0907,-4.0907,-4.0907,-4.0907,-4.0907,-4.0771,-4.0499,-3.9664,-3.8729,-3.7832,-3.7777,-3.7096,-3.6187,0.0,-1.2298,-1.3156,-1.397,-1.4828,-1.5391,-1.5393,-1.6824,-1.8334,-1.9574,-2.2833,-2.5529,-2.6768,-2.9301,-3.0753,-3.0395,-3.0574,-3.0626,-3.0419,-2.9578,-3.0276,-3.2964,-3.6083,-3.8396,-3.9766,-4.0524,-4.1393,-4.2396,-4.2767,-4.2942,-4.2942,-4.2942,-4.2474,-4.1635,-4.1635,-4.1439,-4.1109,-4.1109,-4.0816,-4.0132,-3.7789,-3.6111,-3.4704,-3.1612,-3.0438,-3.0147,-2.7899,-2.6629,-2.5967,-2.5455,0.0,0.0,0.0,0.0,0.0,0.0,0.0,0.0,0.0,0.0,0.0,0.0,0.0,0.0,0.0,0.0,0.0,0.0,0.0,0.0,0.0,0.0,0.0,0.0,-3.4629,-3.6751,-3.712,-3.8479,-3.9936,-4.1296,-4.2539,-4.3491,-4.3996,-4.4345,-4.4559,-4.4559,-4.4559,-4.4773,-4.5278,-4.5297,-4.5511,-4.5982,-4.6002,-4.6002,-4.6002,-4.5536,-4.5122,-4.4792,-4.4287,-4.3394,-4.2194,-4.2194,-4.1723,0.0,-4.0907,-4.0907,-4.0907,-4.0907,-4.0907,0.0,0.0,0.0,0.0,0.0,-3.7632,-3.7005,0.0,-1.2435,-1.3294,-1.4093,-1.4893,-1.5396,-1.5394,-1.681,-1.853,-2.0279,-2.2724,-2.4963,-2.6714,-2.833,-2.8991,-2.8327,-2.9574,-2.9835,-2.8444,-3.0874,-3.3071,-3.4671,-3.723,-3.9085,-4.0058,-4.1601,-4.2497,-4.2689,-4.3455,-4.3845,-4.384,-4.3845,-4.3377,-4.2533,-4.2435,-4.1967,-4.1246,-4.1148,-4.1109,-4.1031,-4.0268,-3.8941,-3.7165,-3.4658,-3.3638,-3.3324,-3.1562,-3.0056,-2.8847,-2.865,0.0,0.0,0.0,0.0,0.0,0.0,0.0,0.0,0.0,0.0,0.0,0.0,0.0,0.0,0.0,0.0,0.0,0.0,0.0,0.0,0.0,0.0,0.0,0.0,-3.8222,-4.0203,-4.1063,-4.1276,-4.1626,-4.2408,-4.386,-4.4831,-4.4928,-4.5574,-4.6002,-4.6002,-4.6002,-4.6002,-4.6002,0.0,0.0,0.0,0.0,-4.6002,-4.6002,-4.6002,-4.5633,-4.4948,-4.4948,-4.4074,-4.2486,-4.2486,-4.2015,-4.1199,-4.1082,-4.1043,-4.1043,-4.0946,-4.0907,-4.0907,-4.0907,-4.0456,-3.9709,-3.8735,-3.8158,0.0,0.0,-1.3313,-1.4133,-1.4992,-1.5299,-1.5408,-1.5393,-1.682,-1.8535,-2.0277,-2.2727,-2.4956,-2.6704,-2.7829,-2.8659,-2.919,-2.8897,-2.8834,-2.9213,-3.2253,-3.448,-3.553,-3.8062,-4.0201,-4.1781,-4.2205,-4.3083,-4.4502,-4.4603,-4.4701,-4.4758,-4.4682,-4.4232,-4.3411,-4.2708,-4.2318,-4.2103,-4.1402,-4.1109,-4.109,-4.0914,-3.984,-3.8141,-3.622,-3.5066,-3.4223,-3.2479,-3.2088,-3.2209,-3.079,-3.0095,-2.9503,-2.7765,-2.6285,0.0,0.0,0.0,0.0,0.0,0.0,0.0,0.0,0.0,0.0,0.0,0.0,0.0,0.0,0.0,0.0,0.0,0.0,0.0,-3.7687,-4.0033,-4.1995,-4.2869,-4.3607,-4.4112,-4.4287,-4.4598,-4.5045,-4.571,-4.5905,-4.6002,-4.6002,-4.6002,-4.6002,-4.6002,-4.6002,0.0,-4.6002,-4.6002,-4.6002,-4.6002,-4.6002,-4.5924,-4.5769,0.0,0.0,-4.4307,-4.4307,-4.3821,-4.2966,-4.2248,-4.1961,-4.1883,-4.1199,-4.0907,-4.0907,-4.0907,-4.0771,-4.056,-4.023,-3.9603,-3.8887,-1.341,-1.382,-1.4366,-1.5246,-1.5399,-1.5393,-1.5402,-1.681,-1.8374,-1.9687,-2.2101,-2.4192,-2.5503,-2.6039,-2.6645,-2.7476,-2.7542,-2.829,-2.9997,-3.2865,-3.508,-3.6401,-3.8914,-4.0724,-4.1622,-4.2504,-4.3393,-4.4308,-4.5136,-4.5583,-4.5656,-4.5613,-4.5143,-4.4309,-4.343,-4.2806,-4.2337,-4.1479,-4.1109,-4.1109,-4.1109,-4.0094,-3.8494,-3.7606,-3.6469,-3.5238,-3.4351,-3.3768,-3.3264,-3.2389,-3.1515,-3.057,-2.9253,-2.8286,-2.7186,0.0,0.0,0.0,0.0,0.0,0.0,0.0,0.0,0.0,0.0,0.0,0.0,0.0,0.0,-3.3523,0.0,0.0,-3.9431,-4.0733,-4.2384,-4.3646,-4.4093,-4.487,-4.5239,-4.4851,-4.5161,-4.5555,-4.5963,-4.6002,-4.6002,-4.6002,-4.6002,-4.6002,-4.6002,-4.6002,-4.6002,-4.6002,-4.6002,-4.6002,-4.6002,-4.6002,-4.6002,-4.6002,-4.6002,-4.5574,-4.4792,-4.4792,-4.4326,-4.3447,-4.2578,-4.2194,-4.2136,-4.1257,-4.0907,-4.0907,-4.0907,-4.0858,-4.0788,-4.0726,-4.0316,-3.9841,-1.4327,-1.4347,-1.4562,-1.5285,-1.5402,-1.54,-1.5391,-1.6686,-1.8042,-1.9072,-2.1186,-2.2997,-2.4027,-2.4149,-2.4534,-2.5526,-2.6551,-2.8235,-3.08,-3.3335,-3.5531,-3.7288,-3.963,-4.101,-4.1247,-4.2731,-4.3626,-4.3847,-4.5429,-4.6229,-4.63,-4.6288,-4.5818,-4.4951,-4.4092,-4.3214,-4.2337,-4.1477,-4.1108,-4.1109,-4.1109,-4.0096,-3.8594,-3.8548,-3.7471,-3.5985,-3.5806,-3.4734,-3.3371,-3.3202,-3.209,-3.0671,-2.9978,-2.9637,-2.9104,-2.7057,-2.6091,0.0,0.0,0.0,0.0,0.0,0.0,0.0,0.0,0.0,-3.1469,-3.3158,-3.5388,-3.7478,-3.8882,-4.0516,-4.2112,-4.353,-4.4462,-4.5025,-4.5025,-4.5594,-4.571,-4.4889,-4.5511,-4.6002,-4.6002,-4.6002,-4.6002,-4.6002,-4.6002,-4.6002,-4.6002,-4.6002,-4.6002,-4.6002,-4.6002,-4.6002,-4.6002,-4.6002,-4.6002,-4.6002,-4.6002,-4.5672,-4.5025,-4.5025,-4.4656,-4.3938,-4.3083,-4.2505,-4.2155,-4.1432,-4.1043,-4.0907,-4.0907,-4.0868,-4.0823,-4.0806,-4.0641,-4.0534,0.0,-1.5246,-1.5285,-1.5382,-1.5402,-1.54,-1.5391,-1.6226,-1.741,-1.8994,-2.0135,-2.1429,-2.3067,-2.3256,-2.3903,-2.5549,-2.7143,-2.9155,-3.1775,-3.4263,-3.6437,-3.8183,-3.9958,-4.1287,-4.213,-4.3046,-4.3901,-4.4746,-4.5733,-4.6229,-4.6302,-4.6246,-4.5776,-4.4951,-4.4085,-4.3226,-4.2336,-4.147,-4.1101,-4.1109,-4.1109,-4.0101,-3.8606,-3.8585,-3.7509,-3.5906,-3.5111,-3.4214,-3.3277,-3.2512,-3.1595,-3.0778,-3.0683,-3.0117,-2.9453,-2.9238,-2.7518,-2.5974,-2.7282,-2.7704,-2.8176,-2.9809,-3.0294,-3.1572,0.0,0.0,-3.6748,-3.849,-4.0241,-4.1543,-4.1737,-4.3185,-4.4423,-4.4617,-4.5336,-4.5866,-4.5866,-4.5944,-4.571,-4.4889,-4.5511,-4.6002,-4.6002,-4.6002,-4.6002,-4.6002,-4.6002,-4.6002,-4.6002,-4.6002,-4.6002,-4.6002,-4.6002,-4.6002,-4.6002,-4.6002,-4.6002,-4.6002,-4.6002,-4.5944,-4.5866,-4.5866,-4.5808,-4.5691,-4.4851,-4.3627,-4.2194,-4.2097,-4.1607,-4.0907,-4.0907,-4.0903,-4.0883,-4.0829,-4.0713,-4.0579,0.0,-1.5402,-1.5402,-1.5402,-1.5402,-1.5401,-1.5398,-1.6134,-1.7124,-1.8335,-1.966,-2.0988,-2.2262,-2.2828,-2.3393,-2.4119,-2.6181,-2.8344,-3.0448,-3.3423,-3.5862,-3.7571,-3.9287,-4.0613,-4.1523,-4.2376,-4.2983,-4.3382,-4.4258,-4.4703,-4.4735,-4.4731,-4.4566,-4.4202,-4.3333,-4.275,-4.2348,-4.1478,-4.1105,-4.1092,-4.1109,-4.0063,-3.8487,-3.8027,-3.6445,-3.4433,-3.4061,-3.3065,0.0,-3.0874,-3.0034,-2.9333,-2.9296,-2.9062,-2.871,-2.8222,-2.8001,-2.8298,-3.0007,-3.0815,-3.1596,-3.3321,-3.45,-3.5901,-3.8552,-3.9241,-3.952,-4.0252,-4.217,-4.3549,-4.3044,-4.4345,-4.5491,0.0,-4.5788,-4.6002,-4.6002,-4.5594,-4.5181,-4.4831,-4.5103,-4.5297,-4.5297,-4.573,-4.6002,-4.6002,-4.6002,-4.6002,-4.6002,-4.6002,-4.6002,-4.6002,-4.6002,-4.6002,-4.6002,-4.6002,-4.6002,-4.6002,-4.6002,-4.6002,-4.6002,-4.6002,-4.5749,-4.5278,-4.4948,-4.4093,-4.2928,-4.2408,-4.2,-4.1607,-4.1102,-4.0907,-4.0903,-4.0868,-4.0804,-4.0759,0.0,-1.5402,-1.5402,-1.5402,-1.5402,-1.5402,-1.5402,-1.6138,-1.7014,-1.7899,-1.9279,-2.0525,-2.1431,-2.2068,-2.2591,-2.3066,-2.5017,-2.7145,-2.9366,-3.2477,-3.5001,-3.6706,-3.8646,-3.9997,-4.062,-4.1726,-4.2318,-4.2321,-4.3177,-4.3607,-4.3631,-4.3687,-4.3574,-4.3306,-4.268,-4.2269,-4.2007,-4.1369,-4.0959,-4.0738,-4.074,-3.956,-3.7749,-3.7167,-3.517,-3.269,-3.2675,-3.1562,-3.0019,-2.9375,-2.8613,-2.7969,-2.8164,-2.8261,-2.8278,-2.8103,-2.9242,-3.0755,-3.1532,-3.3025,-3.4711,-3.6203,-3.8034,-3.9688,-4.0558,-4.1199,-4.1626,-4.1626,-4.3122,-4.4248,-4.3622,-4.4481,-4.5394,-4.5633,-4.5672,-4.5749,-4.5963,-4.5317,-4.4715,-4.4462,-4.4443,-4.4443,-4.4443,-4.5394,-4.6002,-4.6002,-4.6002,-4.6002,-4.6002,-4.6002,-4.6002,-4.6002,-4.6002,-4.6002,-4.6002,-4.6002,-4.6002,-4.6002,-4.6002,-4.6002,-4.6002,-4.6002,-4.5691,-4.5122,-4.5122,-4.4656,-4.3782,-4.2928,-4.2427,-4.2116,-4.1238,-4.0907,-4.0907,-4.0907,-4.0858,-4.0885,0.0,0.0,-1.5402,-1.5402,-1.5402,-1.5402,-1.5402,-1.6142,-1.7001,-1.788,-1.8778,-1.9675,-2.0535,-2.0651,-2.133,-2.2954,-2.3946,-2.5917,-2.9278,-3.1904,-3.4121,-3.586,-3.8355,-3.9705,-3.9744,-4.1419,-4.2329,-4.2398,-4.3198,-4.3622,-4.3691,-4.3702,-4.3246,-4.2445,-4.2407,-4.1922,-4.1132,-4.11,-4.0617,-3.9847,-3.9847,-3.8337,-3.6071,-3.6052,-3.3898,-3.088,-3.0881,-2.9807,-2.8363,-2.8343,-2.7759,-2.7193,-2.8032,-2.8304,-2.8615,-3.0216,-3.1921,-3.2918,-3.1276,-3.3851,-3.7199,-3.8104,-4.0213,-4.2311,-4.3199,-4.3389,-4.3408,-4.3408,-4.3486,-4.3525,-4.3505,-4.3544,-4.386,-4.4695,-4.4831,-4.5103,-4.5885,-4.5317,-4.4481,-4.3641,-4.3544,-4.3544,0.0,-4.5025,-4.6002,-4.6002,-4.6002,-4.6002,-4.6002,-4.6002,-4.6002,-4.6002,-4.6002,-4.6002,-4.6002,-4.6002,-4.6002,-4.6002,-4.6002,-4.6002,-4.6002,-4.6002,-4.5982,-4.5963,-4.5963,-4.5511,-4.4695,-4.3821,-4.2966,-4.2116,-4.1238,-4.0907,-4.0907,-4.0907,-4.0858,-4.0794,0.0,0.0,0.0,-1.5402,-1.5402,-1.5402,-1.5402,-1.6142,-1.7001,-1.788,-1.9266,0.0,0.0,0.0,0.0,0.0,-2.3591,-2.5129,-2.6877,-2.9904,-3.2166,-3.3331,-3.5853,-3.7515,-3.8083,-3.9216,-3.9782,-3.9819,-4.0073,-4.0223,-4.0269,-4.085,-4.0645,-3.9838,-4.0416,-4.02,-3.9361,-3.9378,-3.954,-3.9697,-3.8545,-3.7596,-3.6678,-3.4939,-3.2496,-2.9936,0.0,-2.8415,-2.7348,-2.6761,-2.6371,-2.6195,-2.6488,-2.6566,-2.713,-2.9968,-3.1588,-3.2966,-3.5236,-3.7261,-3.925,-4.1276,-4.285,-4.3996,-4.4307,-4.4365,-4.3879,-4.2131,-4.2228,-4.2306,-4.1175,-4.1898,-4.2928,-4.3802,-4.4423,-4.5084,-4.5885,-4.5317,-4.4695,-4.4404,-4.4365,0.0,0.0,0.0,0.0,-4.5924,-4.5511,-4.5433,-4.5963,-4.6002,-4.6002,-4.6002,-4.6002,-4.6002,-4.6002,-4.6002,-4.6002,-4.6002,-4.6002,-4.6002,-4.6002,-4.6002,-4.6002,-4.6002,-4.6002,-4.5846,-4.5491,-4.4074,-4.3335,-4.2928,-4.1471,-4.0907,-4.0966,-4.1548,-4.1747,-4.1717,0.0,0.0,0.0,0.0,0.0,0.0,0.0,0.0,0.0,0.0,0.0,0.0,0.0,0.0,0.0,0.0,0.0,-2.4121,-2.5597,-2.8045,-2.9978,-3.1159,-3.3392,-3.4861,-3.5428,-3.6254,-3.6832,-3.7145,-3.7145,-3.7308,-3.7621,-3.8181,-3.8137,-3.7636,-3.8188,-3.8128,-3.7612,-3.7618,-3.7758,-3.7848,-3.6421,-3.5487,-3.4765,-3.2753,-3.0625,0.0,-2.8045,-2.7285,-2.6441,-2.5892,-2.5692,-2.5746,-2.6078,-2.6992,-2.8429,-3.062,-3.2491,-3.4586,-3.7945,-3.9684,-4.1077,-4.3394,-4.4384,-4.4792,-4.4792,-4.4074,-4.285,-4.0888,-4.0422,-3.9956,-3.8553,-3.9198,-4.0499,-4.2287,-4.3044,-4.4015,-4.5769,-4.5317,-4.4792,-4.4792,-4.452,-4.4462,0.0,0.0,0.0,-4.5866,-4.5511,-4.5453,-4.5963,-4.6002,-4.6002,-4.6002,-4.6002,-4.6002,-4.6002,-4.6002,-4.6002,-4.6002,-4.6002,-4.6002,-4.6002,-4.6002,-4.6002,-4.6002,-4.6002,-4.6002,-4.5866,-4.419,-4.3505,-4.333,-4.1587,-4.0907,-4.1005,-4.1883,-4.2194,-4.2223,0.0,0.0,0.0,0.0,0.0,0.0,0.0,0.0,0.0,0.0,0.0,0.0,0.0,0.0,0.0,0.0,0.0,0.0,-2.5356,-2.6391,-2.7679,-2.9339,-3.1056,-3.1974,-3.1974,-3.2812,-3.367,-3.4491,-3.4491,-3.492,-3.5738,-3.5778,-3.5781,-3.5742,-3.5776,-3.5789,-3.5732,-3.5731,-3.5289,-3.4492,-3.3571,-3.2245,-3.0702,-2.9785,-2.8415,-2.7009,-2.7008,-2.6442,-2.5701,-2.5742,-2.5854,-2.6117,-2.6995,-2.9542,-3.2241,-3.2331,-3.4711,-3.7705,-3.9435,-4.1096,-4.2736,-4.4433,-4.4831,-4.4773,-4.4695,-4.2675,-4.0577,-3.9625,-3.8091,-3.6634,0.0,0.0,-3.6824,-4.0169,-4.0849,-4.2131,-4.5477,-4.5317,-4.4851,0.0,0.0,0.0,0.0,0.0,0.0,-4.5885,0.0,-4.5963,-4.6002,-4.6002,-4.6002,-4.6002,-4.6002,-4.6002,-4.6002,-4.6002,-4.6002,-4.6002,-4.6002,-4.6002,-4.6002,-4.6002,-4.6002,-4.6002,-4.6002,-4.6002,-4.5866,-4.419,-4.3505,-4.333,-4.1587,-4.0907,-4.1005,-4.1942,-4.2233,-4.233,0.0,0.0,0.0,0.0,0.0,0.0,0.0,0.0,0.0,0.0,0.0,0.0,0.0,0.0,0.0,0.0,0.0,0.0,-2.2837,-2.4848,-2.6234,-2.6663,-2.8968,-3.0237,-3.0237,-3.1036,-3.1561,-3.1797,-3.1797,-3.1913,-3.2148,-3.2793,-3.2754,-3.2147,-3.2804,-3.2721,-3.2125,-3.2134,-3.2374,-3.2636,-3.1102,-3.0616,-3.0624,-2.9111,-2.7881,-2.6987,-2.6944,-2.6405,-2.5799,-2.6445,-2.7923,-2.9647,-3.0512,-3.2292,-3.4261,-3.5463,-3.7362,-3.9568,-4.1892,-4.3311,-4.4399,-4.5438,-4.5239,-4.4462,-4.3166,-4.1374,-3.9217,-3.6401,-3.5002,-3.3798,0.0,0.0,0.0,-3.7722,-4.0208,0.0,-4.4792,-4.5453,0.0,-4.5691,0.0,-4.5453,-4.5672,-4.5491,0.0,0.0,-4.5433,-4.5375,-4.5963,-4.6002,-4.6002,-4.6002,-4.6002,-4.6002,-4.6002,-4.6002,-4.6002,-4.6002,-4.6002,-4.6002,-4.6002,-4.6002,-4.6002,-4.6002,-4.6002,-4.6002,-4.5866,-4.419,-4.3505,-4.333,-4.1587,-4.0907,-4.1082,-4.2617,-4.2753,-4.2427,0.0,0.0,0.0,0.0,0.0,0.0,0.0,0.0,0.0,0.0,0.0,0.0,0.0,0.0,0.0,0.0,0.0,0.0,0.0,-2.3579,-2.4731,-2.5101,-2.6898,-2.7894,-2.7894,-2.8713,-2.9123,-2.9123,-2.9513,-2.9707,-2.9708,-3.0193,-3.0175,-2.9725,-3.0213,-3.0152,-2.9705,-2.9698,-2.9993,0.0,0.0,-2.8693,-2.8976,-2.7627,-2.6812,-2.6414,-2.6391,-2.6821,-2.7598,-2.8827,0.0,-3.1659,-3.3306,-3.4984,-3.6698,-3.8366,0.0,-4.1754,-4.3577,-4.471,-4.5391,-4.5468,-4.4588,-4.3143,-4.1057,-3.8953,-3.66,-3.3511,-3.2198,0.0,-2.9859,-3.1361,0.0,0.0,0.0,0.0,-4.4443,-4.5491,-4.6002,0.0,-4.6002,0.0,-4.6002,-4.6002,-4.6002,0.0,-4.5574,-4.5511,-4.5982,-4.6002,-4.6002,-4.6002,-4.6002,-4.6002,-4.6002,-4.6002,-4.6002,-4.6002,-4.6002,-4.6002,-4.6002,-4.6002,-4.6002,-4.6002,0.0,-4.6002,-4.5866,-4.419,-4.3505,-4.333,-4.1587,-4.0907,-4.1063,-4.2422,-4.2384,-4.1937,0.0,0.0,0.0,0.0,0.0,0.0,0.0,0.0,0.0,0.0,0.0,0.0,0.0,0.0,0.0,0.0,0.0,0.0,0.0,0.0,-2.3482,-2.4358,-2.5237,-2.5707,-2.5707,-2.645,-2.6821,-2.6821,-2.7581,-2.7952,-2.7952,-2.7954,-2.7942,-2.7948,-2.7949,-2.7949,-2.7943,-2.7944,-2.7944,-2.7884,-2.7132,-2.6831,-2.6749,0.0,-2.5704,-2.5703,-2.5705,-2.7224,-2.9548,-3.1462,-3.2414,-3.3222,-3.5716,-3.7581,-3.9189,-4.0916,-4.2419,-4.3736,-4.4724,-4.5542,-4.5907,-4.5027,-4.3557,-4.1591,-3.8936,-3.6303,-3.3677,-3.1008,0.0,-2.8818,-2.7996,-2.924,-3.1494,-3.4901,0.0,-4.0597,-4.4132,-4.5336,-4.5885,-4.5982,-4.6002,-4.6002,-4.6002,-4.6002,-4.6002,-4.6002,-4.6002,-4.6002,-4.6002,-4.6002,-4.6002,-4.6002,-4.6002,-4.6002,-4.6002,-4.6002,-4.6002,-4.6002,-4.6002,-4.6002,-4.6002,-4.6002,-4.6002,-4.6002,0.0,0.0,-4.573,-4.4151,-4.3428,-4.318,-4.1548,-4.0907,-4.1005,-4.1883,-4.1646,-4.1257,0.0,0.0,0.0,0.0,0.0,0.0,0.0,0.0,0.0,0.0,-2.1453,-2.0594,0.0,0.0,0.0,0.0,0.0,0.0,0.0,0.0,0.0,-2.4358,-2.5237,-2.5707,-2.5707,-2.5844,-2.5922,-2.5922,-2.6078,-2.6156,-2.6156,-2.6147,-2.6152,-2.6151,-2.6143,-2.6148,-2.6146,-2.6147,-2.6144,-2.6146,-2.5987,-2.5923,-2.5905,-2.5765,0.0,0.0,-2.5703,-2.6445,-2.7928,-3.1052,-3.4014,-3.6713,-3.8551,-3.9825,-4.098,-4.2674,-4.3353,-4.3922,-4.5514,-4.6072,-4.5974,-4.509,-4.3575,-4.1438,-3.8159,-3.5393,0.0,0.0,-2.795,-2.7069,-2.6213,-2.7468,-2.9748,-3.318,-3.5877,-3.9004,-4.3141,-4.4462,-4.5239,0.0,0.0,0.0,0.0,0.0,0.0,0.0,0.0,0.0,-4.6002,-4.6002,-4.6002,-4.6002,-4.6002,-4.6002,-4.6002,-4.6002,-4.6002,-4.6002,-4.6002,-4.6002,-4.6002,-4.6002,-4.6002,-4.6002,0.0,0.0,-4.4928,-4.3918,-4.3083,-4.2325,-4.1296,-4.0907,-4.1005,-4.1883,-4.1646,-4.1179,0.0,0.0,0.0,0.0,0.0,0.0,0.0,-2.0166,-2.1882,-2.3564,-2.3074,-2.2408,-2.1959,-2.1121,-2.0594,0.0,0.0,0.0,0.0,0.0,0.0,0.0,-2.5237,-2.5707,-2.5707,-2.6136,0.0,0.0,0.0,0.0,0.0,0.0,0.0,0.0,0.0,-2.5698,-2.5701,-2.571,-2.5693,-2.5704,-2.5696,-2.5693,-2.5704,0.0,0.0,0.0,-2.57,-2.6555,-2.8,-3.009,-3.2798,-3.5797,-3.8832,-4.0398,-4.136,-4.2607,-4.3592,-4.4465,-4.5289,-4.5852,-4.5874,-4.4546,-4.2604,-3.9982,-3.6118,0.0,0.0,0.0,-2.6577,-2.6137,-2.5689,-2.7014,0.0,-3.1533,-3.372,-3.677,-4.149,-4.252,0.0,-4.5749,0.0,0.0,0.0,0.0,0.0,0.0,0.0,0.0,-4.6002,-4.6002,-4.6002,-4.6002,-4.6002,-4.6002,-4.6002,-4.6002,-4.6002,-4.6002,-4.6002,-4.6002,-4.6002,-4.6002,-4.6002,-4.5982,0.0,0.0,-4.4695,-4.3374,-4.2578,-4.2116,-4.1238,-4.0907,-4.0946,-4.1374,-4.1257,-4.116,0.0,0.0,0.0,0.0,0.0,0.0,0.0,-2.1086,-2.3037,-2.474,-2.4795,-2.4421,-2.3738,-2.2156,-2.0984,0.0,0.0,0.0,0.0,0.0,0.0,0.0,0.0,-2.5707,-2.5707,0.0,0.0,0.0,0.0,0.0,0.0,0.0,0.0,0.0,0.0,0.0,0.0,-2.5692,-2.5699,0.0,0.0,0.0,0.0,0.0,0.0,0.0,0.0,-2.6585,-2.7893,-2.8968,-3.0645,-3.2967,-3.6696,-3.898,-4.0483,-4.1537,-4.3047,-4.4456,-4.4829,-4.555,-4.5806,-4.4068,-4.17,-3.8687,-3.4372,-3.1426,0.0,-2.6234,-2.5701,-2.5689,-2.5632,-2.6738,-2.8249,0.0,-3.1727,-3.4536,-3.9645,-4.0674,-4.2092,0.0,0.0,0.0,0.0,0.0,0.0,0.0,0.0,0.0,0.0,-4.6002,-4.6002,-4.6002,-4.6002,-4.6002,-4.6002,-4.6002,-4.6002,-4.6002,-4.6002,-4.6002,-4.6002,-4.6002,-4.6002,-4.5963,0.0,0.0,0.0,-4.2835,-4.2097,-4.1845,-4.116,-4.0907,-4.0907,-4.0907,-4.0907,-4.116,0.0,0.0,0.0,0.0,0.0,0.0,0.0,-2.2066,-2.4781,-2.6539,-2.6071,-2.5542,-2.5461,-2.3915,-2.2252,0.0,0.0,0.0,0.0,0.0,0.0,0.0,0.0,0.0,0.0,0.0,0.0,0.0,0.0,0.0,0.0,0.0,0.0,0.0,0.0,0.0,0.0,0.0,0.0,0.0,0.0,0.0,0.0,0.0,0.0,0.0,0.0,0.0,-2.6195,-2.7854,0.0,-2.9103,-3.1015,-3.4393,-3.7965,-3.9566,0.0,0.0,-4.4559,-4.5633,-4.5869,-4.4131,-4.1731,-3.8687,-3.4372,0.0,-2.8851,-2.6234,-2.5706,-2.5703,-2.569,-2.5769,-2.6641,-2.9124,-3.0322,-3.2734,-3.7901,-3.9936,-4.1898,-4.4598,0.0,0.0,0.0,0.0,0.0,0.0,0.0,0.0,0.0,-4.6002,-4.6002,-4.6002,-4.6002,-4.6002,-4.6002,-4.6002,-4.6002,-4.6002,-4.6002,-4.6002,-4.6002,-4.6002,-4.6002,-4.5963,0.0,0.0,0.0,-4.2597,-4.1723,-4.1005,-4.0927,-4.0907,-4.0907,-4.0907,-4.0907,-4.116,0.0,0.0,0.0,0.0,0.0,0.0,-1.9176,-2.1344,-2.3688,-2.5935,-2.5913,-2.5696,-2.5695,-2.4619,-2.2996,-2.0789,0.0,0.0,0.0,0.0,0.0,0.0,0.0,0.0,0.0,0.0,0.0,0.0,0.0,0.0,0.0,0.0,0.0,0.0,0.0,0.0,0.0,0.0,0.0,0.0,0.0,0.0,0.0,0.0,0.0,0.0,0.0,0.0,0.0,0.0,0.0,0.0,-2.8304,-3.0412,-3.3204,0.0,-3.8687,-4.1108,-4.2318,-4.3665,-4.4328,-4.2573,-4.019,-3.7301,-3.3495,0.0,-2.8225,-2.6136,-2.5707,-2.5704,-2.5692,-2.5655,-2.61,-2.7648,-2.7759,-2.9247,-3.3903,-3.5571,-3.7868,0.0,0.0,0.0,0.0,0.0,0.0,0.0,0.0,0.0,0.0,-4.6002,-4.6002,-4.6002,-4.6002,-4.6002,-4.6002,-4.6002,-4.6002,-4.6002,-4.6002,-4.6002,-4.6002,-4.6002,-4.5749,-4.522,0.0,0.0,0.0,-4.1781,-4.1218,-4.0907,-4.0907,-4.0907,-4.0907,-4.0907,-4.0907,-4.116,0.0,0.0,0.0,0.0,0.0,-1.8004,-1.9138,-2.0779,-2.2713,-2.5018,-2.5328,-2.5325,-2.5325,-2.4328,-2.2941,-2.1143,-2.0752,0.0,0.0,0.0,0.0,0.0,0.0,0.0,0.0,0.0,0.0,0.0,0.0,0.0,0.0,0.0,0.0,0.0,0.0,0.0,0.0,0.0,0.0,0.0,0.0,0.0,0.0,0.0,0.0,0.0,0.0,0.0,0.0,0.0,0.0,-2.6625,-2.6625,-2.764,-2.9495,-3.293,-3.6189,-3.8921,-4.0055,-4.1617,-4.2573,-4.109,-3.8804,-3.6072,-3.2831,-3.0138,-2.7815,-2.6058,-2.5707,-2.5705,-2.5697,-2.5658,-2.581,-2.6415,-2.6223,-2.739,-3.1432,-3.2976,0.0,0.0,0.0,0.0,0.0,0.0,0.0,0.0,0.0,0.0,0.0,-4.6002,-4.6002,-4.6002,-4.6002,-4.6002,-4.6002,-4.6002,-4.6002,-4.6002,-4.6002,-4.6002,-4.5982,-4.5749,-4.5336,0.0,0.0,0.0,0.0,-4.1257,-4.0907,-4.0907,-4.0907,-4.1063,-4.1257,-4.1005,-4.1063,-4.149,0.0,0.0,0.0,0.0,0.0,0.0,-1.9041,-2.0781,-2.25,-2.4198,-2.4413,-2.4413,-2.4411,-2.2926,-2.191,-2.1891,-2.1108,0.0,0.0,0.0,0.0,0.0,0.0,0.0,0.0,0.0,-2.6117,-2.6996,-2.6996,0.0,0.0,0.0,0.0,0.0,0.0,0.0,0.0,0.0,0.0,0.0,0.0,0.0,0.0,0.0,0.0,0.0,0.0,0.0,0.0,0.0,0.0,0.0,0.0,-2.6313,-2.7699,-3.1115,-3.3983,-3.6422,-3.8142,-3.984,-4.0914,-4.0034,-3.7905,-3.5329,-3.2695,-3.0138,-2.7815,-2.6058,-2.5707,-2.5707,-2.5707,-2.5645,-2.5601,-2.56,-2.632,-2.8076,-3.1512,-3.3489,0.0,0.0,0.0,0.0,0.0,0.0,0.0,0.0,0.0,0.0,0.0,0.0,-4.6002,-4.6002,-4.6002,-4.6002,-4.6002,-4.6002,-4.6002,-4.6002,-4.6002,-4.6002,-4.5963,-4.5181,0.0,0.0,0.0,0.0,0.0,-4.1257,-4.0907,-4.0907,-4.0907,-4.1432,-4.2078,-4.1218,-4.1451,-4.2311,0.0,0.0,0.0,0.0,0.0,0.0,0.0,-1.9393,-2.0741,-2.2478,-2.2693,-2.2907,-2.3454,-2.2556,-2.1893,-2.1893,-2.1657,0.0,0.0,0.0,0.0,0.0,0.0,0.0,0.0,0.0,-2.6136,-2.6996,-2.6996,-2.7309,-2.7874,-2.7289,0.0,0.0,0.0,0.0,0.0,0.0,0.0,0.0,0.0,0.0,0.0,0.0,0.0,0.0,0.0,0.0,0.0,0.0,0.0,0.0,0.0,0.0,0.0,-2.8128,-3.0861,-3.3456,-3.4004,-3.5409,-3.6364,-3.4901,-3.3476,-3.1932,-2.9943,-2.842,-2.7094,-2.5941,-2.5707,-2.5707,-2.5707,-2.5675,-2.6047,-2.7197,-2.7603,-2.8576,-3.0866,0.0,0.0,0.0,0.0,0.0,0.0,0.0,0.0,0.0,0.0,0.0,0.0,0.0,-4.6002,-4.6002,-4.6002,-4.6002,-4.6002,-4.6002,-4.6002,-4.6002,-4.6002,-4.571,-4.5161,-4.4928,0.0,0.0,0.0,0.0,0.0,-4.1005,-4.0907,-4.0907,-4.0907,-4.1063,-4.1276,-4.1005,-4.1063,-4.1432,0.0,0.0,0.0,0.0,0.0,0.0,0.0,-1.7967,-1.8944,-2.0681,-2.0915,-2.1365,-2.2517,-2.1913,-2.1542,-2.1875,-2.1894,0.0,0.0,0.0,0.0,0.0,0.0,0.0,-2.569,-2.571,-2.6294,-2.7484,-2.7484,-2.7933,-2.8771,-2.8226,-2.7621,-2.6978,0.0,0.0,0.0,0.0,0.0,0.0,0.0,0.0,0.0,0.0,0.0,0.0,0.0,0.0,0.0,0.0,0.0,0.0,0.0,0.0,0.0,0.0,-2.8245,-3.0315,-3.0978,-3.2168,-3.2968,-3.1875,-3.0961,-2.9989,-2.8603,-2.7628,-2.6749,-2.5871,-2.5691,-2.5707,-2.5707,-2.5704,-2.6047,-2.7087,-2.7518,-2.843,0.0,0.0,0.0,0.0,0.0,0.0,0.0,0.0,0.0,0.0,0.0,0.0,0.0,0.0,-4.6041,-4.6041,-4.6003,-4.6002,-4.6002,-4.6002,-4.6002,-4.6002,-4.5691,-4.5278,-4.4773,0.0,0.0,0.0,0.0,0.0,0.0,-4.0907,-4.0907,-4.0907,-4.0907,-4.1102,-4.1393,-4.1393,-4.1607,-4.2015,0.0,0.0,0.0,0.0,0.0,0.0,0.0,-1.6699,-1.7324,-1.9062,-1.9296,-1.994,-2.162,-2.1073,-2.0937,-2.1738,0.0,0.0,0.0,0.0,0.0,0.0,0.0,0.0,-2.5674,-2.5694,-2.655,-2.8303,-2.8303,-2.8771,-2.967,-2.9631,-2.8694,-2.7094,-2.7035,0.0,0.0,0.0,0.0,0.0,0.0,0.0,0.0,0.0,0.0,0.0,0.0,0.0,0.0,0.0,0.0,0.0,0.0,0.0,0.0,0.0,0.0,0.0,0.0,-2.9904,-3.0509,-3.0451,-2.9874,-2.9119,-2.8299,-2.7499,0.0,-2.5878,-2.5698,-2.5729,-2.5789,-2.5733,-2.5774,-2.6027,-2.6699,0.0,0.0,0.0,0.0,0.0,0.0,0.0,0.0,0.0,0.0,0.0,0.0,0.0,0.0,0.0,0.0,-4.6102,-4.5983,-4.5929,-4.6002,-4.6002,-4.6002,-4.5982,-4.5181,-4.4773,-4.4656,0.0,0.0,0.0,0.0,0.0,0.0,-4.0907,-4.0907,-4.0907,-4.0907,-4.1393,-4.2116,-4.2175,-4.2714,-4.353,0.0,0.0,0.0,0.0,0.0,0.0,0.0,0.0,0.0,0.0,-1.9295,-1.9706,-2.078,-2.0722,-2.0683,0.0,0.0,0.0,0.0,0.0,0.0,0.0,0.0,0.0,-2.5694,-2.5694,-2.655,-2.8303,-2.8303,-2.9064,-3.0509,-2.9885,-2.9026,-2.7971,-2.7309,-2.6516,0.0,0.0,0.0,0.0,0.0,0.0,0.0,0.0,0.0,0.0,0.0,0.0,0.0,0.0,0.0,0.0,0.0,0.0,0.0,0.0,-2.5844,-2.6097,-2.6507,0.0,-2.7721,-2.7066,-2.6756,-2.6562,0.0,-2.6151,-2.5956,-2.5741,-2.5703,-2.5898,-2.6562,-2.6152,-2.6562,-2.9179,0.0,0.0,0.0,0.0,0.0,0.0,0.0,0.0,0.0,0.0,0.0,0.0,0.0,0.0,0.0,0.0,0.0,-4.6102,-4.5441,-4.5378,-4.5982,-4.6002,-4.6002,-4.5982,-4.5181,-4.4443,-4.3763,0.0,0.0,0.0,0.0,0.0,0.0,-4.0907,-4.0907,-4.0907,-4.0907,-4.1024,-4.1296,-4.1961,-4.233,-4.252,0.0,0.0,0.0,0.0,0.0,0.0,0.0,0.0,0.0,0.0,0.0,-1.9199,-2.0468,-2.0605,0.0,0.0,0.0,0.0,0.0,0.0,0.0,0.0,0.0,-2.5291,-2.5697,-2.5697,-2.6553,-2.8303,-2.8303,-2.8967,-3.0255,-3.0177,-2.9279,-2.7678,-2.6781,-2.6145,0.0,0.0,0.0,0.0,0.0,0.0,0.0,0.0,0.0,0.0,-2.4505,-2.4754,0.0,-2.5101,-2.5374,-2.5707,0.0,0.0,0.0,0.0,-2.4829,-2.4596,-2.4992,-2.6029,-2.689,-2.6405,-2.6308,-2.6304,-2.6299,-2.5986,-2.5693,-2.5693,-2.5697,-2.5836,-2.6324,-2.634,-2.7022,0.0,-3.0277,0.0,0.0,0.0,0.0,0.0,0.0,0.0,0.0,0.0,0.0,0.0,0.0,0.0,0.0,0.0,0.0,0.0,-4.4692,-4.463,-4.5438,-4.5045,-4.4851,-4.4831,-4.4015,-4.3355,-4.2869,0.0,0.0,0.0,0.0,0.0,-4.0907,-4.0907,-4.114,-4.149,-4.149,-4.1743,-4.2209,-4.3063,-4.3141,-4.285,0.0,0.0,0.0,0.0,0.0,0.0,0.0,0.0,0.0,0.0,0.0,0.0,0.0,0.0,0.0,0.0,0.0,0.0,0.0,0.0,0.0,0.0,-2.4336,-2.4804,-2.568,-2.57,-2.6555,-2.8303,-2.844,-2.8947,-2.9807,-3.0626,-2.963,-2.7152,-2.6293,-2.5813,0.0,0.0,0.0,0.0,0.0,0.0,0.0,0.0,0.0,0.0,0.0,0.0,0.0,-2.4203,-2.4789,-2.5473,-2.5356,0.0,0.0,0.0,0.0,0.0,-2.4335,-2.5762,-2.6972,-2.6836,-2.6906,-2.6965,-2.6824,-2.622,-2.5694,-2.5694,-2.5707,-2.5774,-2.6027,-2.6699,0.0,0.0,0.0,0.0,0.0,0.0,0.0,0.0,0.0,0.0,0.0,0.0,0.0,0.0,0.0,0.0,0.0,0.0,0.0,0.0,-4.3876,-4.3746,-4.4418,-4.3811,-4.3506,-4.3486,-4.2617,-4.2194,-4.2175,-4.1296,0.0,0.0,0.0,0.0,-4.0907,-4.1043,-4.1529,-4.2214,-4.235,-4.285,-4.3583,-4.4326,-4.4132,-4.3588,0.0,0.0,0.0,0.0,0.0,0.0,0.0,0.0,0.0,0.0,0.0,0.0,0.0,0.0,0.0,0.0,0.0,0.0,0.0,0.0,0.0,-2.334,-2.4043,-2.4804,-2.5679,-2.57,-2.6555,-2.8303,-2.9045,-2.9826,-3.0626,-3.1504,-3.0548,-2.8069,-2.7191,-2.6383,-2.5702,0.0,0.0,0.0,0.0,0.0,0.0,0.0,0.0,0.0,0.0,0.0,0.0,-2.3306,-2.3871,-2.4476,-2.3735,0.0,0.0,0.0,0.0,0.0,-2.5058,-2.6222,-2.6817,-2.6077,-2.6443,-2.6805,-2.6063,-2.5804,-2.5707,-2.5707,-2.571,-2.6121,-2.7542,-2.7928,-2.9018,0.0,0.0,0.0,0.0,0.0,0.0,0.0,0.0,0.0,0.0,0.0,0.0,0.0,0.0,0.0,0.0,0.0,0.0,0.0,0.0,-4.2611,-4.268,-4.3231,-4.349,-4.3486,-4.2617,-4.2194,-4.2175,-4.1296,-4.0907,0.0,0.0,0.0,-4.0966,-4.1704,-4.2078,-4.2272,-4.3005,-4.3374,-4.3525,-4.3641,-4.3602,-4.3413,0.0,0.0,0.0,0.0,0.0,0.0,0.0,0.0,0.0,0.0,0.0,0.0,0.0,0.0,0.0,0.0,0.0,0.0,0.0,0.0,-2.1582,-2.2461,-2.3301,-2.459,-2.6365,-2.6403,-2.7259,-2.901,-2.9846,-3.0216,-3.0138,-2.9592,-2.8969,-2.8248,-2.6906,-2.6073,-2.5702,-2.57,0.0,0.0,0.0,0.0,0.0,0.0,0.0,0.0,0.0,0.0,0.0,0.0,-2.3325,-2.4339,-2.393,0.0,0.0,0.0,0.0,0.0,-2.3262,-2.4568,-2.5616,-2.568,-2.7032,-2.8365,-2.8448,-2.8093,-2.7743,-2.7743,-2.7743,-2.784,-2.8132,0.0,-3.0726,-3.4184,0.0,0.0,0.0,0.0,0.0,0.0,0.0,0.0,0.0,0.0,0.0,0.0,0.0,0.0,0.0,0.0,0.0,0.0,0.0,0.0,-4.1601,-4.1966,-4.2147,-4.2144,-4.1743,-4.152,-4.1471,-4.1082,-4.0907,0.0,0.0,-4.116,-4.1626,-4.2039,-4.2758,-4.3646,-4.4054,-4.4462,-4.4734,-4.384,-4.3199,-4.2675,0.0,0.0,0.0,0.0,0.0,0.0,0.0,0.0,0.0,0.0,0.0,0.0,0.0,0.0,0.0,0.0,0.0,0.0,0.0,0.0,-2.1074,-2.2129,-2.2832,-2.4394,-2.6933,-2.7009,-2.7747,-2.9306,-3.0316,-3.0472,-2.9854,-2.8508,-2.7925,-2.7908,-2.6582,-2.5878,-2.5681,-2.5694,-2.5694,0.0,0.0,0.0,0.0,0.0,0.0,0.0,0.0,0.0,0.0,0.0,0.0,0.0,0.0,0.0,0.0,-2.3095,-2.2042,-2.1108,-2.2129,-2.3379,-2.4666,-2.5743,-2.7477,-2.9251,-3.0509,-3.0139,-2.9671,-3.0295,-3.0256,-2.9964,-2.9498,-3.0996,0.0,0.0,0.0,0.0,0.0,0.0,0.0,0.0,0.0,0.0,0.0,0.0,0.0,0.0,0.0,0.0,0.0,0.0,0.0,0.0,0.0,0.0,-4.102,-4.1021,-4.1016,-4.1001,-4.1,-4.0971,-4.0926,-4.0924,-4.1032,-4.12,-4.1193,-4.1704,-4.2524,-4.2709,-4.3608,-4.4812,-4.5041,-4.5259,-4.5259,-4.3763,-4.2675,-4.182,0.0,0.0,0.0,0.0,0.0,0.0,0.0,0.0,0.0,0.0,0.0,0.0,0.0,0.0,0.0,0.0,0.0,0.0,0.0,0.0,-2.1328,-2.2949,-2.3125,-2.4394,-2.6932,-2.7008,-2.7455,-2.8389,-3.0003,-3.0772,-3.0703,-3.0586,-2.9272,-2.7007,-2.6861,-2.6367,-2.5605,-2.5662,-2.5701,-2.5627,0.0,0.0,0.0,0.0,0.0,0.0,0.0,0.0,0.0,0.0,0.0,0.0,0.0,0.0,-2.3094,-2.3101,-2.2439,-2.2089,-2.3767,-2.4293,-2.4799,-2.6495,-2.7032,-2.7815,-3.0243,-3.0139,-3.0197,-3.2618,-3.2482,-3.2131,-3.2891,-3.5051,0.0,0.0,0.0,0.0,0.0,0.0,0.0,0.0,0.0,0.0,0.0,0.0,0.0,0.0,0.0,0.0,0.0,0.0,0.0,0.0,0.0,0.0,-4.1083,-4.1093,-4.1059,-4.1007,-4.1007,-4.1005,-4.0983,-4.0997,-4.1392,-4.2114,-4.2103,-4.2597,-4.3471,-4.4282,-4.4688,-4.4887,-4.5765,-4.5156,-4.3653,-4.2739,-4.1828,-4.1061,0.0,0.0,0.0,0.0,0.0,0.0,0.0,0.0,0.0,0.0,0.0,0.0,0.0,0.0,0.0,0.0,0.0,0.0,0.0,-2.0605,-2.1113,-2.2305,-2.2891,-2.4141,-2.6152,-2.7244,-2.8493,-2.9918,-3.0013,-3.0036,-2.996,-2.8885,-2.7842,-2.6876,-2.6323,-2.5907,-2.5607,-2.5624,-2.5655,-2.5622,-2.4741,0.0,0.0,0.0,0.0,0.0,0.0,0.0,0.0,0.0,-2.1451,-2.1958,-2.2251,-2.2349,-2.235,-2.2354,-2.1731,-2.1206,-2.1854,-2.3592,-2.537,-2.6035,-2.7401,-2.9273,-3.1833,-3.2584,-3.3304,-3.5349,-3.5499,-3.5207,-3.4995,0.0,0.0,0.0,0.0,0.0,0.0,0.0,0.0,0.0,0.0,0.0,0.0,0.0,0.0,0.0,0.0,0.0,0.0,0.0,0.0,0.0,0.0,0.0,0.0,-4.1103,-4.1089,-4.1065,-4.1014,-4.0994,-4.1009,-4.1008,-4.146,-4.2251,-4.2265,-4.3052,-4.4343,-4.4145,-4.4362,-4.4849,-4.4669,-4.3858,-4.2744,-4.2412,-4.1754,-4.0988,0.0,0.0,0.0,0.0,0.0,0.0,0.0,0.0,0.0,0.0,0.0,0.0,0.0,0.0,0.0,0.0,0.0,0.0,-2.0605,-2.0605,-2.0996,-2.1855,-2.2461,-2.3691,-2.5664,-2.6875,-2.8202,-2.9667,-2.9042,-2.871,-2.8644,-2.7443,-2.6716,-2.6435,-2.5836,-2.5586,-2.56,-2.5602,-2.5488,-2.5203,-2.4338,-2.3466,0.0,0.0,0.0,0.0,0.0,0.0,0.0,0.0,-2.1218,-2.159,-2.2115,-2.2096,-2.1941,-2.2193,-2.1862,-2.1394,-2.1394,-2.3306,-2.5358,-2.5621,-2.7672,-3.033,-3.3172,-3.4269,-3.5328,-3.7569,-3.7807,-3.7428,-3.6824,0.0,0.0,0.0,0.0,0.0,0.0,0.0,0.0,0.0,0.0,0.0,0.0,0.0,0.0,0.0,0.0,0.0,0.0,0.0,0.0,0.0,0.0,0.0,0.0,-4.1614,-4.1477,-4.1481,-4.1168,-4.1021,-4.1033,-4.1289,-4.189,-4.2705,-4.2714,-4.3535,-4.4799,-4.3955,-4.3969,-4.4432,-4.3554,-4.2852,-4.2304,-4.202,-4.1539,-4.1025,0.0,0.0,0.0,0.0,0.0,0.0,0.0,0.0,0.0,0.0,0.0,0.0,0.0,0.0,0.0,0.0,0.0,0.0,-2.0605,-2.0605,-2.0996,-2.1855,-2.1894,-2.3086,-2.5625,-2.5684,-2.6113,-2.6991,-2.693,-2.6897,-2.689,-2.6814,-2.633,-2.5492,-2.5498,-2.5531,-2.5604,-2.5591,-2.5141,-2.434,-2.3464,-2.2589,0.0,0.0,0.0,0.0,0.0,0.0,0.0,0.0,-2.1317,-2.0892,-2.2546,-2.2528,-2.2042,-2.2839,-2.3091,-2.3091,-2.3091,-2.3735,-2.4632,-2.5512,-2.7699,-3.0535,-3.3944,-3.4718,-3.5685,-3.9101,-3.9114,-3.85,-3.85,-3.8519,0.0,0.0,0.0,0.0,0.0,0.0,0.0,0.0,0.0,0.0,0.0,0.0,0.0,0.0,0.0,0.0,0.0,0.0,0.0,0.0,0.0,0.0,0.0,-4.2744,-4.2296,-4.2296,-4.1497,-4.1107,-4.1133,-4.1942,-4.2771,-4.3603,-4.3593,-4.4055,-4.4736,-4.3929,-4.3611,-4.3587,-4.2728,-4.2396,-4.2275,-4.1415,-4.1093,-4.1069,0.0,0.0,0.0,0.0,0.0,0.0,0.0,0.0,0.0,0.0,0.0,0.0,0.0,0.0,0.0,0.0,0.0,0.0,-2.0605,-2.0605,-2.0723,-2.0977,-2.2129,-2.3125,-2.3926,-2.4492,-2.5508,-2.6992,-2.6928,-2.6597,-2.5977,-2.5926,-2.5742,-2.5511,-2.5503,-2.5547,-2.5601,-2.5604,-2.5492,-2.5242,-2.4379,-2.3487,0.0,0.0,0.0,0.0,0.0,0.0,0.0,0.0,0.0,0.0,-2.1185,-2.1596,-2.1831,-2.1459,-2.218,-2.2979,-2.2412,-2.4207,-2.6449,-2.7308,-2.9923,-3.2852,-3.5104,-3.6093,-3.7321,-4.0146,-4.0023,-3.9415,-3.9415,0.0,0.0,0.0,0.0,0.0,0.0,0.0,0.0,0.0,0.0,0.0,0.0,0.0,0.0,0.0,0.0,0.0,0.0,0.0,0.0,0.0,0.0,0.0,0.0,0.0,-4.2296,-4.2296,-4.2062,-4.1945,-4.1948,-4.2198,-4.2789,-4.3606,-4.3597,-4.3764,-4.3965,-4.3103,-4.2411,-4.1851,-4.1596,-4.1498,-4.1379,-4.052,-4.0196,-4.0096,0.0,0.0,0.0,0.0,0.0,0.0,0.0,0.0,0.0,0.0,-1.9062,-2.0019,0.0,0.0,0.0,0.0,0.0,0.0,0.0,-2.0563,-2.0701,-2.1053,-2.207,-2.2793,-2.3144,-2.3965,-2.4746,-2.5448,-2.5375,-2.5255,-2.5072,-2.5002,-2.5168,-2.5507,-2.5507,-2.5332,-2.5059,-2.5068,-2.4922,-2.4624,-2.4076,-2.3345,-2.2529,0.0,0.0,0.0,0.0,0.0,0.0,0.0,0.0,0.0,-2.0075,-2.0212,-2.0388,-2.0542,-2.1556,-2.2745,-2.3271,-2.5163,-2.7367,-2.8908,-3.1094,-3.3515,-3.5953,-3.7434,-3.8828,-4.0718,-4.0405,-3.9917,-4.0249,0.0,0.0,0.0,0.0,0.0,0.0,0.0,0.0,0.0,0.0,0.0,0.0,0.0,0.0,0.0,0.0,0.0,0.0,0.0,0.0,0.0,0.0,0.0,0.0,0.0,0.0,-4.1302,-4.0951,-4.0971,-4.1322,-4.2003,-4.2587,-4.3066,-4.2754,-4.2249,-4.1591,-4.1073,-4.0545,-4.0065,-4.0097,-4.0114,-4.0034,-3.9515,-3.9314,-3.9254,0.0,0.0,0.0,0.0,0.0,0.0,0.0,0.0,0.0,0.0,-1.9492,-2.0508,0.0,0.0,0.0,0.0,0.0,0.0,0.0,0.0,-2.0846,-2.1649,-2.1893,-2.2422,-2.332,-2.3965,-2.3905,-2.3095,-2.3107,-2.3513,-2.4302,-2.4316,-2.4737,-2.5507,-2.541,-2.493,-2.4193,-2.4182,-2.3766,-2.3093,-2.3011,-2.2518,-2.1779,-2.163,0.0,0.0,0.0,0.0,0.0,0.0,0.0,0.0,-1.9333,-1.8806,-1.8534,-2.0033,-2.1204,-2.2531,-2.4928,-2.6333,-2.7738,-3.0274,-3.1758,-3.3417,-3.6677,-3.8604,-3.9941,-4.0799,0.0,-4.0154,0.0,0.0,0.0,0.0,0.0,0.0,0.0,0.0,0.0,0.0,0.0,0.0,0.0,0.0,0.0,0.0,0.0,0.0,0.0,0.0,0.0,0.0,0.0,0.0,0.0,0.0,0.0,0.0,-3.9006,-3.8987,-3.9747,-4.1341,-4.2062,-4.2023,-4.1224,-3.9967,-3.8504,-3.8502,-3.8495,-3.8513,-3.8659,-3.871,-3.8708,-3.863,-3.8591,-3.8572,0.0,0.0,0.0,0.0,0.0,0.0,0.0,0.0,0.0,0.0,0.0,0.0,0.0,0.0,0.0,0.0,0.0,0.0,0.0,0.0,-2.0577,-2.0769,-2.2108,-2.3555,-2.5117,-2.4043,-2.3339,-2.3095,-2.3728,-2.412,-2.4318,-2.4936,-2.5318,-2.5468,-2.4776,-2.4369,-2.4151,-2.354,-2.3179,-2.3016,-2.3016,-2.2494,-2.1645,-2.1006,-2.0234,0.0,0.0,0.0,0.0,0.0,0.0,0.0,-1.9511,-1.9648,-1.998,-1.9668,-2.1131,-2.3101,-2.4349,-2.6317,-2.8635,-3.1172,-3.4022,-3.656,-3.7986,-3.8595,-3.9087,-3.991,-4.0477,0.0,0.0,0.0,0.0,0.0,0.0,0.0,0.0,0.0,0.0,0.0,0.0,0.0,0.0,0.0,0.0,0.0,0.0,0.0,0.0,0.0,0.0,0.0,0.0,0.0,-4.1088,-4.0234,-3.9805,0.0,-3.961,-3.926,-3.8811,-3.9864,-4.0347,-4.0292,-3.9435,-3.8858,-3.8502,-3.8507,-3.851,-3.8572,-3.9273,-3.954,-3.9468,-3.8825,-3.8591,-3.8396,0.0,0.0,0.0,0.0,0.0,0.0,0.0,0.0,0.0,0.0,0.0,0.0,0.0,0.0,0.0,0.0,0.0,0.0,0.0,-2.0441,-2.0654,-2.11,-2.2397,-2.3337,-2.3826,-2.2986,-2.2294,-2.1812,-2.2641,-2.3276,-2.3695,-2.4499,-2.5105,-2.5449,-2.4583,-2.3975,-2.3511,-2.2721,-2.2382,-2.2384,-2.2421,-2.1907,-2.1078,-2.0666,-1.9711,-1.8621,-1.8665,0.0,0.0,0.0,0.0,0.0,0.0,0.0,-1.873,-1.8691,-2.0214,-2.2263,-2.3959,-2.6317,-2.9008,-3.1973,-3.5037,-3.7419,-3.7869,-3.8591,-3.9292,-3.9702,0.0,0.0,0.0,0.0,0.0,0.0,0.0,0.0,0.0,0.0,0.0,0.0,0.0,0.0,0.0,0.0,0.0,0.0,0.0,0.0,0.0,0.0,0.0,0.0,0.0,0.0,-3.8597,-3.8168,-3.7935,-3.7935,-3.7935,-3.7681,-3.7292,-3.8597,-3.8948,-3.8539,-3.8071,-3.7637,-3.7251,-3.7265,-3.7501,-3.7925,-3.8378,-3.8807,-3.9131,-3.8702,-3.8307,-3.7849,0.0,0.0,0.0,0.0,0.0,0.0,0.0,0.0,0.0,0.0,0.0,0.0,0.0,0.0,0.0,0.0,0.0,0.0,0.0,-2.0097,-2.0669,-2.1736,-2.2484,-2.2544,-2.1821,-2.1645,-2.1195,-2.0402,-2.1117,-2.2078,-2.3226,-2.3892,-2.4679,-2.5453,-2.4597,-2.3727,-2.2833,-2.1894,-2.1398,-2.1243,-2.1159,-2.0691,-2.0036,-1.9899,-1.8976,-1.7787,-1.7785,-1.777,-1.793,-1.8965,0.0,0.0,0.0,0.0,-1.6836,-1.7558,-1.8905,-2.0682,-2.3099,-2.5967,-2.907,-3.2364,-3.5038,-3.6854,-3.6852,-3.816,-3.937,-3.937,0.0,0.0,0.0,0.0,0.0,0.0,0.0,0.0,0.0,0.0,0.0,0.0,0.0,0.0,0.0,0.0,0.0,0.0,0.0,0.0,0.0,0.0,0.0,0.0,0.0,-3.5908,-3.5908,-3.5908,-3.5908,-3.5908,-3.5908,-3.5908,-3.5947,-3.7389,-3.7662,-3.698,-3.698,-3.6571,-3.5911,-3.6059,-3.654,-3.723,-3.7523,-3.8083,-3.8711,-3.873,-3.8295,-3.7717,0.0,0.0,0.0,0.0,0.0,0.0,0.0,0.0,0.0,0.0,-1.9932,-2.0497,-2.0518,-1.9875,0.0,0.0,0.0,0.0,-1.8145,0.0,0.0,-2.1634,-2.188,-2.1916,-2.1802,-2.1058,-2.0572,-2.0409,-2.0519,-2.1768,-2.4036,-2.4141,-2.4679,-2.5453,-2.4652,-2.3776,-2.2794,-2.1295,-2.0182,-1.9385,-1.8703,-1.8348,-1.8177,-1.7474,-1.7074,-1.6864,-1.6874,-1.6875,-1.7129,-1.875,-1.8711,0.0,0.0,0.0,0.0,-1.6836,-1.7578,-1.8749,-2.0603,-2.4624,-2.8938,-3.1608,-3.3678,-3.5044,0.0,0.0,-3.7633,0.0,0.0,0.0,0.0,0.0,0.0,0.0,0.0,0.0,0.0,0.0,0.0,0.0,0.0,0.0,0.0,0.0,0.0,0.0,0.0,0.0,0.0,0.0,-3.6025,-3.5908,-3.5908,0.0,-3.5908,-3.5908,-3.5908,-3.5908,-3.5908,-3.5908,-3.5908,-3.6142,-3.6181,-3.6064,-3.6064,-3.6006,-3.5967,-3.6713,-3.7086,-3.7345,-3.8853,-3.9513,-3.9625,-3.9629,-3.9569,-3.9372,0.0,0.0,0.0,0.0,0.0,0.0,0.0,0.0,0.0,0.0,0.0,-1.9954,-2.0458,-1.9746,0.0,0.0,0.0,0.0,-1.7797,-1.8188,0.0,-1.9532,-1.9591,-1.9602,-1.9604,-1.9232,-1.9247,-1.9679,-1.9172,-2.0745,-2.4196,-2.3693,-2.4699,-2.685,-2.5549,-2.446,-2.3487,-2.135,-1.9949,-1.9096,-1.8281,-1.8519,-1.9166,-1.7372,-1.7276,-1.791,-1.6483,-1.5977,-1.6152,-1.7422,-1.791,-1.791,0.0,0.0,0.0,0.0,-1.6934,-1.8691,-2.1873,-2.4742,-2.7572,-3.0656,-3.2706,-3.4092,-3.4597,-3.606,0.0,0.0,0.0,0.0,0.0,0.0,0.0,0.0,0.0,0.0,0.0,0.0,0.0,0.0,0.0,0.0,0.0,0.0,0.0,0.0,0.0,0.0,0.0,-3.5908,-3.5908,-3.5908,-3.5908,0.0,-3.5908,-3.5908,-3.5908,-3.5908,-3.5908,-3.5908,-3.5908,-3.5908,-3.5908,-3.5928,-3.6415,-3.6629,-3.6707,-3.7564,-3.8219,-3.8739,-3.9502,-4.009,-4.0525,-4.0534,-4.0229,-3.9745,0.0,0.0,0.0,0.0,0.0,0.0,0.0,0.0,0.0,0.0,0.0,0.0,-2.0094,0.0,0.0,0.0,0.0,0.0,-1.7484,0.0,0.0,0.0,0.0,-1.7782,-1.7571,-1.7571,-1.7859,-1.8451,-1.8026,-1.9883,-2.3867,-2.3422,-2.5051,-2.8262,-2.6812,-2.5433,-2.4068,-2.1958,-2.0579,-1.9776,-1.8967,-1.9379,-2.0349,-1.8869,-1.9081,-1.9862,-1.7531,-1.6697,-1.6756,0.0,0.0,0.0,0.0,0.0,0.0,0.0,0.0,-1.8125,-2.1777,-2.3572,-2.5173,-2.8433,-3.0698,-3.2436,0.0,0.0,0.0,0.0,0.0,0.0,0.0,0.0,0.0,0.0,0.0,0.0,0.0,0.0,0.0,0.0,0.0,0.0,0.0,0.0,0.0,0.0,0.0,0.0,-3.6551,-3.6356,-3.6337,-3.6551,-3.6356,-3.622,-3.622,-3.6006,-3.5908,-3.5908,-3.6123,-3.622,-3.622,-3.622,-3.622,-3.6279,-3.6921,-3.7331,-3.7603,-3.848,-3.9221,-3.9805,-3.9805,-4.0196,-4.073,-4.0526,-4.0033,-3.9462,0.0,0.0,0.0,0.0,0.0,0.0,0.0,0.0,0.0,0.0,0.0,0.0,-1.9256,-1.8498,-1.7629,-1.6803,0.0,0.0,0.0,0.0,0.0,0.0,0.0,0.0,-1.6682,-1.6663,-1.6699,-1.6735,-1.7448,-1.9573,-2.2981,-2.377,-2.5956,-2.919,-2.8337,-2.6569,-2.4145,-2.3249,-2.2364,-2.1504,-2.0692,-2.0412,-2.0663,-2.2122,-2.2723,-2.2572,-2.0859,0.0,0.0,0.0,0.0,0.0,0.0,0.0,-1.552,0.0,0.0,0.0,-1.7812,-1.957,-2.1484,-2.4081,-2.6678,-2.9216,0.0,0.0,0.0,0.0,0.0,0.0,0.0,0.0,0.0,0.0,0.0,0.0,0.0,0.0,0.0,0.0,0.0,0.0,0.0,0.0,0.0,0.0,0.0,0.0,-3.8366,-3.7584,-3.7506,-3.8344,-3.7564,-3.7136,-3.7136,-3.6317,-3.5908,-3.5908,-3.6746,-3.7136,-3.7136,-3.7136,-3.7136,-3.7136,-3.7175,-3.7662,-3.85,-3.9376,-3.9766,-3.9805,-3.9805,-3.9825,-3.9775,-3.8937,-3.8619,-3.8566,0.0,0.0,0.0,0.0,0.0,0.0,0.0,0.0,0.0,0.0,0.0,0.0,0.0,-1.8675,-1.7705,-1.7393,-1.6109,0.0,0.0,0.0,0.0,0.0,0.0,0.0,-1.5768,-1.577,-1.6039,-1.66,-1.6329,-1.8225,-2.2133,-2.2439,-2.3813,-2.6056,-2.6854,-2.6676,-2.5685,-2.3741,-2.2468,-2.1678,-2.1388,-2.2258,-2.365,-2.3186,-2.4022,-2.5146,-2.2901,0.0,0.0,0.0,0.0,0.0,-1.8242,-1.7577,-1.6846,-1.5721,-1.5772,-1.6436,-1.76,-1.88,-2.0328,-2.2928,-2.4687,-2.6328,-2.8359,0.0,0.0,0.0,0.0,0.0,0.0,0.0,0.0,0.0,0.0,0.0,0.0,0.0,0.0,0.0,0.0,0.0,0.0,0.0,0.0,0.0,0.0,0.0,-3.6099,-3.5727,-3.5675,-3.5986,-3.5187,-3.4761,-3.4761,-3.445,-3.4294,-3.4294,-3.4606,-3.4761,-3.4781,-3.5304,-3.583,-3.6395,-3.696,-3.7389,-3.774,-3.8617,-3.8967,-3.8967,-3.8967,-3.8967,-3.8928,-3.8617,-3.8505,-3.8493,0.0,0.0,0.0,0.0,0.0,0.0,0.0,0.0,-1.6215,-1.7615,0.0,0.0,0.0,0.0,-1.7972,-1.7412,-1.6347,-1.5587,-1.5316,-1.5301,0.0,0.0,0.0,0.0,-1.5306,-1.5306,-1.5577,-1.6155,-1.5884,-1.7335,-2.0411,-2.0698,-2.1878,-2.379,-2.4347,-2.5217,-2.6184,-2.4486,-2.3464,-2.3004,-2.3263,-2.4225,-2.5534,-2.5832,-2.6669,-2.7423,0.0,0.0,0.0,0.0,0.0,0.0,-1.9062,-1.7829,-1.6896,-1.572,-1.5958,-1.6678,-1.6972,-1.7882,-1.9316,0.0,0.0,-2.3847,-2.6737,0.0,0.0,0.0,0.0,0.0,0.0,0.0,0.0,0.0,0.0,0.0,0.0,0.0,0.0,0.0,0.0,0.0,0.0,0.0,0.0,0.0,0.0,0.0,-3.5139,-3.4779,-3.4606,-3.4606,-3.4079,-3.3807,-3.3807,-3.3534,-3.3397,-3.3397,-3.367,-3.3807,-3.3826,-3.4352,-3.4915,-3.548,-3.5791,-3.6571,-3.7681,-3.8266,-3.85,-3.848,-3.8188,-3.8052,-3.8032,-3.774,-3.7623,-3.7629,0.0,0.0,0.0,0.0,0.0,0.0,0.0,0.0,-1.6841,-1.7709,0.0,0.0,0.0,0.0,0.0,-1.6728,-1.6543,-1.6201,-1.5393,-1.5313,0.0,0.0,0.0,0.0,-1.5306,-1.5306,-1.5306,-1.5306,-1.6155,-1.6965,-1.7774,-1.8645,-2.0386,-2.2729,-2.1117,-2.2239,-2.5352,-2.5352,-2.541,-2.5565,0.0,-2.6223,-2.6068,0.0,0.0,0.0,-2.933,-2.8814,0.0,-2.5357,0.0,0.0,0.0,-1.7569,-1.5461,-1.5373,-1.5963,-1.6491,0.0,0.0,0.0,0.0,0.0,0.0,0.0,0.0,0.0,0.0,0.0,0.0,0.0,0.0,0.0,0.0,0.0,0.0,0.0,0.0,0.0,0.0,0.0,0.0,0.0,0.0,0.0,0.0,0.0,-3.5887,-3.5783,-3.4993,-3.4508,-3.4486,-3.4486,-3.4486,-3.4486,-3.3709,-3.332,-3.3339,-3.4118,-3.4486,-3.4486,-3.4508,-3.4528,-3.4489,-3.3729,-3.5285,-3.8344,-3.8383,-3.8383,-3.8305,-3.7487,-3.7155,-3.7058,-3.6201,-3.5908,-3.5908,0.0,0.0,0.0,0.0,0.0,-1.8111,-1.7536,-1.744,-1.7745,0.0,0.0,0.0,-1.9942,-1.9938,-1.9505,-1.8394,-1.778,-1.7072,-1.621,-1.5625,-1.5304,-1.5304,-1.5299,-1.5306,-1.5306,-1.5306,-1.5306,-1.5306,-1.5538,-1.6097,-1.6945,-1.7774,-1.8877,-2.0153,-2.0324,-2.0924,-2.1813,-2.1813,-2.3244,-2.5449,-2.5066,-2.6246,0.0,0.0,0.0,0.0,0.0,-2.9714,-2.8932,0.0,-2.6624,-2.4333,0.0,-1.8778,-1.7074,-1.6437,-1.7273,-1.8105,-1.665,0.0,0.0,0.0,0.0,0.0,0.0,0.0,0.0,0.0,0.0,0.0,0.0,0.0,0.0,0.0,0.0,0.0,0.0,0.0,0.0,0.0,0.0,0.0,0.0,0.0,0.0,0.0,0.0,-3.384,-3.3191,-3.2922,-3.2499,-3.1873,-3.1853,-3.1853,-3.1853,-3.1639,-3.1522,-3.1522,-3.1736,-3.1853,-3.1873,-3.2499,-3.2793,-3.2813,-3.3222,-3.3943,-3.4859,-3.5441,-3.5675,-3.5713,-3.6103,-3.6259,-3.622,-3.5986,-3.5908,-3.5908,0.0,0.0,0.0,-2.0073,-1.9769,-1.9499,-1.9365,-1.9053,-1.913,0.0,0.0,0.0,-2.1293,-2.1343,-2.0851,-1.9641,-1.9116,-1.8182,-1.659,-1.6091,-1.5676,-1.5328,-1.5299,-1.5306,-1.5306,-1.5306,-1.5306,-1.5306,-1.5306,-1.5557,-1.6077,-1.6539,-1.7216,-1.8065,-1.82,-1.8664,-1.9261,-1.8567,0.0,0.0,-2.5414,0.0,0.0,-2.9805,-3.0211,0.0,0.0,0.0,-2.9901,-2.9908,-2.774,0.0,0.0,-2.0315,-1.8705,-1.7461,-1.857,-1.9808,-1.8106,-1.8883,-2.0067,0.0,0.0,0.0,0.0,0.0,0.0,0.0,0.0,0.0,0.0,0.0,0.0,0.0,0.0,0.0,0.0,0.0,0.0,0.0,0.0,0.0,0.0,0.0,0.0,0.0,-3.2031,-3.2081,-3.1577,-3.1566,-3.133,-3.0821,-3.0801,-3.0801,-3.0801,-3.0801,-3.0801,-3.0801,-3.0801,-3.0801,-3.0821,-3.133,-3.1563,-3.1583,-3.209,-3.2323,-3.2382,-3.3203,-3.3768,-3.4157,-3.4664,-3.5051,-3.5363,-3.5363,-3.5597,-3.5908,0.0,0.0,-2.0558,-2.137,-2.0904,-2.0712,-2.1523,-2.1043,-2.0827,0.0,-2.1639,-2.2004,-2.2966,-2.3009,-2.2336,-2.085,-2.0546,-1.9393,-1.6934,-1.6654,-1.6208,-1.5321,-1.5303,-1.5306,-1.5306,-1.5303,-1.5303,-1.5306,-1.5303,-1.5303,-1.5306,-1.5306,-1.5712,-1.6426,-1.5654,-1.6135,-1.7446,-1.6348,0.0,-2.3039,-2.6076,-2.7174,0.0,0.0,-3.0656,-2.9747,-3.2005,-3.185,-3.0588,-3.0482,-2.7896,0.0,0.0,-2.2153,-2.0479,-1.8736,-1.9944,-2.1475,-1.9825,-2.0582,-2.1785,-2.1591,0.0,0.0,-2.2101,-2.1493,0.0,0.0,0.0,0.0,0.0,0.0,0.0,0.0,0.0,0.0,0.0,0.0,0.0,0.0,0.0,0.0,0.0,0.0,0.0,-3.0858,-3.0799,-3.0781,-3.0782,-3.0799,-3.0801,-3.0801,-3.0801,-3.0801,-3.0801,-3.0801,-3.0801,-3.0801,-3.0801,-3.0801,-3.0801,-3.0801,-3.0801,-3.0801,-3.0801,-3.0801,-3.086,-3.1641,-3.2462,-3.3261,-3.3358,-3.3846,-3.4469,-3.4469,-3.4954,-3.5616,0.0,-2.0308,-2.0558,-2.137,-2.137,-2.1562,-2.2412,-2.2408,-2.2374,-2.2528,-2.2547,-2.312,-2.4654,-2.424,-2.3706,-2.3394,-2.209,-2.0477,-1.8637,-1.7259,-1.6138,-1.525,-1.5275,-1.5306,-1.5306,-1.5292,-1.5292,-1.5306,-1.5292,-1.5292,-1.5306,-1.5306,-1.5383,-1.5557,-1.5383,-1.548,-1.5942,-1.8374,0.0,-2.1998,-2.2655,0.0,-2.8876,-2.9534,-3.0017,-3.0404,-3.0907,-3.0888,-3.0486,0.0,-2.8543,-2.7021,0.0,0.0,-2.3127,-2.1436,-2.1762,-2.2458,-2.1453,-2.1917,-2.2342,-2.0985,0.0,0.0,0.0,-2.0188,0.0,0.0,0.0,0.0,0.0,0.0,0.0,0.0,0.0,0.0,0.0,0.0,0.0,0.0,0.0,0.0,0.0,0.0,-3.1033,-3.0819,-3.074,-3.0722,-3.0714,-3.0769,-3.0801,-3.0801,-3.0801,-3.0801,-3.0801,-3.0801,-3.0801,-3.0801,-3.0801,-3.0801,-3.0801,-3.0801,-3.0801,-3.0801,-3.0801,-3.0801,-3.0801,-3.0977,-3.1563,-3.2423,-3.3125,-3.3495,-3.3631,-3.3631,-3.3748,-3.3885,-2.0212,-2.0308,-2.0692,-2.1927,-2.2158,-2.2581,-2.3851,-2.3721,-2.3759,-2.4582,-2.4697,-2.4851,-2.5269,-2.4947,-2.4548,-2.4149,-2.2902,-2.1448,-1.9753,-1.8082,-1.6767,-1.5898,-1.5494,-1.5289,-1.5246,-1.5289,-1.5292,-1.5292,-1.5292,-1.5296,-1.5306,-1.5306,-1.5748,-1.652,-1.6135,-1.6406,-1.7274,-1.8567,-2.0115,-2.1881,-2.399,0.0,-2.9345,-2.9785,-3.0211,-3.0656,-3.1043,-3.1197,-3.1004,-2.9727,-2.8726,0.0,0.0,-2.6111,-2.5689,0.0,-2.4122,-2.5089,-2.3406,-2.3561,-2.3886,-2.2606,0.0,0.0,0.0,0.0,0.0,0.0,0.0,0.0,0.0,0.0,0.0,0.0,0.0,0.0,0.0,0.0,0.0,0.0,0.0,0.0,0.0,0.0,-2.9529,-2.9467,-2.9425,-2.9599,-3.0024,-3.0128,-3.0336,-3.0742,-3.0774,-3.0801,-3.0801,-3.0801,-3.0801,-3.0801,-3.0801,-3.0801,-3.0801,-3.0801,-3.0801,-3.0801,-3.0801,-3.0801,-3.0801,-3.0801,-3.1055,-3.1505,-3.1934,-3.2362,-3.2754,-3.2754,-3.3027,-3.3397,-2.0269,-2.0308,-2.0769,-2.2293,-2.2682,-2.3312,-2.4846,-2.4639,-2.4875,-2.6409,-2.6601,-2.6409,-2.5865,-2.5808,-2.5601,-2.5111,-2.397,-2.265,-2.1128,-1.9316,-1.7899,-1.7011,-1.6058,-1.5578,-1.5703,-1.5417,-1.5289,-1.5274,-1.527,-1.5299,-1.5301,-1.5303,-1.6116,-1.7542,-1.7042,-1.768,-1.9087,0.0,0.0,-2.2729,0.0,-2.8161,-2.8915,-2.994,-3.0346,-3.0462,-3.1275,-3.156,-3.1347,-2.9805,0.0,-2.8068,-2.7035,-2.7406,0.0,0.0,0.0,0.0,0.0,0.0,0.0,0.0,0.0,-2.3514,0.0,0.0,0.0,-2.3424,0.0,0.0,0.0,0.0,0.0,0.0,0.0,0.0,0.0,0.0,0.0,0.0,0.0,0.0,0.0,0.0,-2.78,-2.808,-2.7782,-2.8045,-2.9097,-2.9207,-2.9611,-3.0422,-3.0508,-3.0619,-3.0774,-3.0799,-3.0801,-3.0801,-3.0801,-3.0801,-3.0801,-3.0801,-3.0801,-3.0801,-3.0801,-3.0801,-3.0799,-3.0796,-3.0774,-3.0774,-3.0799,-3.1232,-3.1858,-3.1834,-3.2279,-3.2883,-2.0154,-2.0308,-2.0577,-2.1485,-2.2293,-2.3124,-2.4086,-2.4755,-2.55,-2.6467,-2.6601,-2.6851,-2.7525,-2.7601,-2.7857,-2.8472,-2.637,0.0,-2.3725,0.0,-1.9633,-1.8743,-1.7201,-1.6725,-1.7484,-1.6003,-1.5218,-1.5204,-1.5206,-1.5233,-1.5301,-1.5299,-1.5807,-1.6755,-1.739,-1.82,-1.9183,0.0,-2.2729,0.0,-2.6377,-2.6919,0.0,-2.8818,-2.9457,-2.9553,-3.0424,-3.0733,-3.0598,0.0,-2.9229,-2.8876,0.0,-2.7828,-2.8644,0.0,0.0,0.0,0.0,0.0,0.0,0.0,-2.5236,0.0,0.0,0.0,-2.3436,-2.223,0.0,0.0,0.0,0.0,0.0,0.0,0.0,0.0,0.0,0.0,0.0,0.0,0.0,0.0,0.0,0.0,0.0,-2.7986,-2.6676,-2.6517,-2.8163,-2.8256,-2.8644,-2.9519,-2.9608,-2.9991,-3.0706,-3.0769,-3.0801,-3.0801,-3.0801,-3.0801,-3.0801,-3.0801,-3.0801,-3.0801,-3.0801,-3.0801,-3.0799,-3.0737,-3.0706,-3.0728,-3.0772,-3.086,-3.0935,-3.0873,-3.0923,-3.102,-2.0231,-2.0308,-2.0558,-2.137,-2.1793,-2.2509,-2.3898,-2.6048,-2.7294,-2.6678,-2.7885,-2.8756,-2.8607,0.0,0.0,0.0,0.0,-2.6236,0.0,0.0,-2.1362,-2.0496,-1.884,-1.788,-1.7754,-1.6575,-1.5716,-1.5193,-1.5198,-1.5228,-1.5296,-1.5306,-1.6551,-1.88,-1.8626,-2.0131,-2.28,0.0,-2.331,0.0,0.0,0.0,0.0,-2.9012,-3.0056,-3.0095,-3.0462,-3.0598,-3.0462,0.0,-2.8958,0.0,0.0,0.0,0.0,0.0,0.0,0.0,0.0,0.0,0.0,0.0,0.0,0.0,0.0,0.0,-2.4138,0.0,0.0,0.0,0.0,0.0,0.0,0.0,0.0,0.0,0.0,0.0,0.0,0.0,0.0,0.0,0.0,0.0,0.0,0.0,0.0,-2.4964,-2.7164,-2.7325,-2.7754,-2.8627,-2.9169,-2.9593,-2.994,-3.0477,-3.0733,-3.0733,-3.0733,-3.0742,-3.0739,-3.0739,-3.0767,-3.0799,-3.0764,-3.0739,-3.0737,-3.0707,-3.0695,-3.0695,-3.073,-3.0733,-3.0733,-3.072,-3.0695,-3.0695,-2.025,-2.0308,-2.0481,-2.1077,-2.1543,-2.2447,-2.4163,-2.6491,-2.7794,-2.7044,-2.8563,0.0,-2.9819,-2.9819,0.0,0.0,-2.955,-2.8294,0.0,0.0,-2.3447,-2.2577,-2.0708,0.0,-1.8757,-1.7491,-1.6402,-1.5565,-1.5325,-1.5355,-1.5612,-1.5385,-1.6844,-1.9677,-1.9525,-2.1562,-2.5085,0.0,-2.4853,-2.6304,-2.6478,-2.6691,-2.7136,-2.9399,-3.0385,-3.0598,-3.0598,-3.0598,-3.0462,-2.9583,-2.8887,0.0,-2.9487,0.0,0.0,0.0,0.0,0.0,-2.664,0.0,0.0,0.0,0.0,0.0,0.0,0.0,0.0,0.0,0.0,0.0,0.0,0.0,0.0,0.0,0.0,0.0,0.0,0.0,0.0,0.0,0.0,0.0,0.0,0.0,0.0,0.0,0.0,0.0,-2.6223,-2.6413,-2.6819,-2.7691,-2.8355,-2.8916,-2.9363,-3.001,-3.0461,-3.0694,-3.0694,-3.0707,-3.071,-3.071,-3.0722,-3.0778,-3.0719,-3.071,-3.0707,-3.0671,-3.0676,-3.0676,-3.0665,-3.068,-3.0661,-3.0672,-3.0676,-3.0676,-2.0135,-2.0308,-2.0308,-2.0327,-2.1677,-2.3312,-2.5019,-2.5346,-2.6,0.0,0.0,0.0,0.0,0.0,0.0,0.0,0.0,-3.1192,-3.0308,0.0,-2.6096,-2.5231,-2.275,-2.1408,0.0,-1.895,-1.7276,-1.6468,-1.56,-1.5625,-1.6448,-1.5598,-1.6155,-1.7959,-1.961,-2.1807,-2.4331,-2.5913,-2.8504,-3.1424,-2.9824,-2.9669,-3.0366,0.0,-2.9863,-3.0598,-3.0598,0.0,0.0,-2.9583,-2.9284,0.0,0.0,0.0,0.0,0.0,0.0,0.0,0.0,0.0,0.0,-2.4826,0.0,0.0,0.0,0.0,-2.5468,0.0,0.0,0.0,0.0,0.0,-2.3635,-2.1998,-2.1727,0.0,0.0,0.0,0.0,0.0,0.0,0.0,0.0,0.0,0.0,0.0,0.0,0.0,-2.5352,-2.555,-2.5917,-2.6725,-2.6834,-2.7655,-2.9296,-2.9398,-2.9862,-3.0694,-3.0694,-3.0694,-3.0694,-3.0694,-3.0694,-3.0697,-3.0694,-3.0694,-3.069,-3.0626,-3.0606,-3.0602,-3.0601,-3.0602,-3.0607,-3.0593,-3.0606,-3.0606,-2.0971,-2.1523,-2.16,-2.0481,0.0,-2.2697,-2.4962,-2.6736,0.0,0.0,0.0,0.0,0.0,-3.3699,-3.359,0.0,0.0,-3.2756,-3.1346,-2.9904,0.0,0.0,0.0,-2.3774,0.0,-2.1258,-1.9542,-1.815,-1.786,-1.7597,-1.7334,-1.647,-1.7275,-1.9471,-2.0073,-2.2075,0.0,0.0,0.0,0.0,0.0,-2.9824,-3.0578,0.0,0.0,-3.0598,-3.0598,-3.0598,0.0,-3.026,-2.9781,-2.9429,-3.019,-2.9659,-2.8945,-2.9759,-2.9417,0.0,0.0,0.0,-2.8179,-2.5631,0.0,0.0,0.0,0.0,0.0,0.0,0.0,0.0,0.0,-2.4795,-2.3828,-2.2671,-2.1565,-2.0231,0.0,0.0,0.0,0.0,0.0,0.0,0.0,0.0,0.0,0.0,0.0,0.0,0.0,-2.5507,-2.5623,-2.5894,-2.6432,-2.7001,-2.7562,-2.8163,-2.8908,-2.9779,-2.9779,-3.0082,-3.063,-3.063,-3.0665,-3.069,-3.0642,-3.063,-3.0626,-3.06,-3.0601,-3.0601,-3.0602,-3.0598,-3.0598,-3.0597,-3.0601,-3.0601,-2.1836,-2.2345,0.0,0.0,0.0,0.0,0.0,0.0,0.0,0.0,-3.3372,0.0,-3.6661,0.0,-3.6129,0.0,-3.5898,-3.4834,-3.3154,-3.1942,0.0,-3.0063,-2.7852,0.0,0.0,0.0,-2.1581,-1.9881,-1.9296,-1.8726,-1.8213,-1.7324,-1.7973,-1.9859,-2.0499,-2.2323,-2.5103,0.0,-2.9066,0.0,0.0,-3.0346,0.0,0.0,-3.0598,0.0,0.0,-3.0598,-3.0598,-3.0564,-3.0182,-2.9892,-3.0912,-3.0106,-2.906,-3.0444,-2.9886,-2.8779,-2.8795,-2.8993,0.0,0.0,-2.6279,0.0,-2.4941,0.0,0.0,0.0,0.0,0.0,0.0,0.0,-2.4022,-2.3441,-2.1697,-1.9686,0.0,0.0,0.0,0.0,0.0,0.0,0.0,0.0,-1.967,-2.2284,0.0,0.0,0.0,0.0,-2.5507,-2.5507,-2.599,-2.6416,-2.6702,-2.7271,-2.7987,-2.8842,-2.9152,-2.959,-3.0159,-3.0468,-3.0621,-3.0669,-3.0617,-3.06,-3.06,-3.0592,-3.0598,-3.0598,-3.0598,-3.0598,-3.0598,-3.0598,-3.0598,-3.0598,0.0,0.0,0.0,0.0,-2.4226,0.0,0.0,0.0,-3.2025,0.0,-3.5257,-3.7469,-3.9169,-3.9361,-3.9669,-4.0439,-3.9046,0.0,-3.5788,-3.4064,0.0,0.0,-3.0237,-2.9261,-2.9223,0.0,0.0,0.0,-2.0008,-1.9146,-1.9049,-1.8161,-1.8206,-1.9086,-2.0824,0.0,-2.433,-2.8603,-3.095,-3.1806,-3.1845,-3.1366,-3.0617,-3.0694,0.0,-3.0656,-3.0617,-3.0598,-3.0593,-3.0525,-3.0496,-3.0486,-3.0433,-3.0398,-3.0565,-3.1397,-3.1058,-3.039,-3.0406,-2.9833,-2.8876,-2.7239,0.0,0.0,0.0,0.0,-2.6761,0.0,0.0,0.0,0.0,0.0,-2.4273,-2.4157,-2.2007,-1.9512,-1.712,0.0,0.0,0.0,0.0,0.0,0.0,-1.7294,-1.7161,-2.1204,-2.0057,-2.0637,0.0,0.0,0.0,-2.5507,-2.5507,-2.5874,-2.6625,-2.6644,-2.7073,-2.7952,-2.8784,-2.9186,-2.9268,-3.0133,-3.054,-3.054,-3.0578,-3.0598,-3.0598,-3.0598,-3.0598,-3.0598,-3.0598,-3.0598,-3.0598,-3.0598,-3.0598,-3.0598,-2.3261,-2.4333,-2.5247,0.0,-2.4771,-2.5317,0.0,0.0,0.0,0.0,-3.7046,-3.9027,-4.0073,-4.0189,-4.0285,-4.0477,-4.0112,0.0,0.0,0.0,0.0,-3.5423,-3.3179,-3.1641,-3.1044,-2.8915,0.0,-2.4327,0.0,-2.12,-1.9946,-1.9077,-1.8788,-1.9061,-2.0777,-2.2121,-2.3418,-2.7711,-3.0418,-3.1864,-3.2517,-3.1908,0.0,0.0,-3.2063,-3.1405,-3.081,-3.0598,-3.0598,-3.0588,-3.0535,-3.051,-3.0479,-3.0433,-3.0444,-3.0666,-3.0577,-3.0404,-3.0396,-3.0242,-2.9819,-2.8753,-2.8037,-2.7532,0.0,0.0,0.0,0.0,0.0,0.0,0.0,0.0,0.0,-2.3538,-2.1101,-1.9435,0.0,0.0,0.0,0.0,0.0,0.0,0.0,0.0,-1.8316,-1.8764,0.0,0.0,0.0,0.0,0.0,-2.5449,-2.5507,-2.5604,-2.5816,-2.5816,-2.6223,-2.7035,-2.7267,-2.7716,-2.8358,-2.9248,-2.9631,-2.9669,-3.0327,-3.0598,-3.0598,-3.0598,-3.0598,-3.0598,-3.0598,-3.0598,-3.0598,-3.0598,-3.0598,-3.0598,-2.4482,0.0,0.0,-2.7657,0.0,0.0,-3.0382,0.0,0.0,-3.6257,-3.8815,0.0,-4.1027,-4.2055,-4.2728,-4.2728,-4.2055,0.0,-4.045,0.0,0.0,-3.7276,-3.5526,-3.4007,-3.2814,-3.0737,0.0,-2.5773,0.0,0.0,-2.0112,-1.9673,-1.9081,-1.8501,-2.0973,-2.2128,-2.2506,-2.68,-2.9857,-3.1843,-3.2292,0.0,0.0,-3.2703,-3.2766,-3.2313,-3.1854,-3.1453,-3.112,-3.112,-3.0878,-3.055,-3.0505,-3.0403,-3.0309,-3.0317,-3.0254,-3.0174,-3.0174,-3.0174,-3.006,-2.9563,-2.9117,-2.8664,-2.8294,-2.8211,-2.8204,0.0,0.0,0.0,0.0,0.0,0.0,-2.2754,-2.0824,-1.9703,0.0,0.0,0.0,0.0,0.0,0.0,0.0,0.0,0.0,0.0,0.0,0.0,0.0,0.0,0.0,0.0,-2.5298,-2.5507,-2.5507,-2.5507,-2.572,-2.6184,-2.6532,-2.6957,-2.7464,-2.8339,-2.8939,-2.9326,-2.9824,-3.0211,-3.0505,-3.0505,-3.0505,-3.051,-3.0583,-3.0559,-3.051,-3.0583,-3.0598,-3.0598,0.0,0.0,0.0,0.0,0.0,0.0,0.0,-3.4309,0.0,-3.8046,0.0,-4.2258,-4.2143,-4.4201,-4.5594,-4.5594,0.0,-4.3066,-4.2181,-4.0662,-3.9411,-3.8546,-3.7565,-3.6315,-3.4725,-3.2199,0.0,0.0,0.0,-2.1838,-1.9742,-1.9859,-1.9081,-1.7742,-2.1125,0.0,0.0,-2.6314,-2.9403,0.0,-3.1843,-3.232,-3.3014,-3.3246,-3.3302,-3.3272,-3.3393,-3.2791,-3.1966,-3.1966,-3.1424,-3.0748,-3.0699,-3.0463,-3.0216,-3.0202,-3.0063,-2.991,-2.9902,-2.9902,-2.9902,-2.9902,-2.9902,-2.9704,-2.8949,-2.8771,-2.8771,-2.8771,-2.8318,0.0,0.0,0.0,0.0,-2.2408,0.0,0.0,0.0,0.0,0.0,0.0,0.0,0.0,0.0,0.0,0.0,0.0,0.0,0.0,0.0,0.0,0.0,0.0,-2.5047,0.0,-2.5507,0.0,-2.5507,-2.5507,-2.6203,-2.6551,-2.659,-2.7542,-2.8416,-2.9147,-2.9351,-2.981,-3.0392,-3.0381,-3.0394,-3.0406,-3.0519,-3.0485,-3.0406,-3.0519,-3.0574,-3.0583,0.0,0.0,0.0,0.0,0.0,-3.4253,-3.6485,-3.8297,-3.9554,-3.9996,-4.292,-4.4662,-4.3932,-4.4893,-4.5594,-4.5594,-4.5325,0.0,0.0,0.0,0.0,-4.1173,-3.9662,-3.8373,-3.7353,-3.4834,-3.1911,0.0,0.0,-2.2746,-1.8904,-1.8925,-1.845,-1.7719,-2.042,0.0,-2.6837,-2.758,0.0,-3.1777,-3.2499,-3.2866,-3.3149,-3.4608,-3.4704,-3.4183,-3.4894,-3.4188,-3.2875,-3.2875,-3.2295,-3.1599,-3.1574,-3.1017,-3.0336,-3.0235,-3.0099,-2.9962,-2.9918,-2.9902,-2.9902,-2.9902,-2.9902,-2.9856,-2.9704,-2.9666,-2.9666,-2.9666,-2.9577,-2.9315,-2.873,0.0,0.0,0.0,0.0,0.0,0.0,0.0,0.0,0.0,0.0,0.0,0.0,0.0,0.0,0.0,0.0,0.0,0.0,0.0,0.0,0.0,0.0,0.0,0.0,0.0,0.0,-2.5507,-2.5642,-2.57,-2.5758,-2.7294,-2.8088,-2.8296,-2.9641,-3.0274,-3.0411,-3.0329,-3.0318,-3.0318,-3.0336,-3.033,-3.0318,-3.0336,-3.0396,-3.0449,0.0,0.0,0.0,0.0,0.0,0.0,0.0,-4.0519,0.0,-4.0654,-4.1939,-4.2786,-4.2382,-4.4286,-4.5594,-4.5594,-4.5594,-4.5421,-4.4998,-4.4182,-4.3143,-4.1865,-4.1027,0.0,-3.7217,-3.5124,-3.2481,-2.9303,0.0,-2.2767,-1.977,-1.9391,-1.8572,-1.7582,0.0,-2.3921,0.0,0.0,0.0,-3.1819,-3.3108,-3.3897,-3.4392,-3.5226,-3.5297,-3.4988,-3.5392,-3.505,-3.4326,-3.3914,-3.3158,-3.2375,-3.2364,-3.1969,-3.1381,-3.0834,-3.0557,-3.0299,-2.9786,-2.9645,-2.9645,-2.9645,-2.9645,-2.9645,-2.9645,-2.9645,-2.9645,-2.9645,-2.9708,-2.937,-2.8203,-2.6585,0.0,0.0,0.0,0.0,0.0,0.0,0.0,0.0,0.0,0.0,0.0,0.0,0.0,0.0,0.0,0.0,0.0,0.0,0.0,0.0,0.0,0.0,0.0,0.0,0.0,-2.5507,-2.5507,-2.5507,-2.5546,-2.6725,-2.7518,-2.8005,-2.9171,-2.9889,-3.0241,-3.0207,-3.0152,-3.0109,-3.0246,-3.026,-3.0194,-3.0273,-3.0324,-3.0359,0.0,-3.2184,0.0,0.0,-3.6487,0.0,0.0,-4.1346,-4.2814,-4.1484,-4.1304,-4.1381,-4.1554,-4.3998,-4.5594,-4.5594,-4.5594,-4.5577,-4.5513,-4.487,-4.3796,-4.2226,-4.1824,-4.0316,-3.747,-3.5581,-3.3244,0.0,0.0,0.0,-2.1298,-2.0371,-1.9538,0.0,0.0,0.0,0.0,0.0,-3.1385,-3.2622,-3.3737,-3.4718,-3.55,-3.5446,-3.553,-3.5654,-3.5441,-3.5525,-3.5597,-3.4795,-3.391,-3.3122,-3.3122,-3.2813,-3.2317,-3.1576,-3.1092,-3.0643,-2.9866,-2.9527,-2.9396,-2.9396,-2.9396,-2.9396,-2.9396,-2.9396,-2.9396,-2.9396,-2.9342,-2.8866,-2.7538,-2.6516,0.0,0.0,0.0,0.0,0.0,0.0,0.0,0.0,0.0,0.0,0.0,0.0,0.0,0.0,0.0,0.0,-1.7995,-1.9374,0.0,0.0,0.0,0.0,-2.5221,0.0,-2.5507,0.0,-2.5507,-2.5584,-2.5778,-2.6525,-2.7339,-2.8191,-2.8924,-2.9555,-3.0064,-3.0064,-3.0003,-2.9913,-3.013,-3.0145,-3.0079,-3.0192,-3.0233,-3.0266,0.0,0.0,0.0,0.0,0.0,0.0,0.0,-4.0286,-4.1975,-4.3716,-4.3932,-4.4239,-4.5037,-4.5402,-4.5594,-4.5594,-4.5594,-4.5495,-4.5243,-4.5156,-4.4584,-4.3388,-4.1946,-4.1016,-4.0661,-3.8243,-3.569,0.0,0.0,-2.7003,-2.2943,-2.1417,0.0,0.0,0.0,0.0,0.0,-3.1693,-3.2962,-3.5096,-3.4449,-3.4718,-3.5486,-3.5308,-3.5684,-3.6194,-3.5281,-3.5427,-3.5941,-3.5185,-3.448,-3.3882,-3.3827,-3.3165,-3.2376,-3.2239,-3.1563,-3.0827,-3.0557,-2.9954,-2.9396,-2.9396,-2.9396,-2.9396,-2.9396,-2.9396,-2.9396,-2.9396,-2.8785,-2.7986,-2.7112,-2.6265,-2.5418,0.0,0.0,0.0,0.0,0.0,0.0,0.0,0.0,0.0,0.0,0.0,0.0,0.0,0.0,0.0,0.0,-1.9107,0.0,-2.2826,0.0,-2.4234,-2.4312,-2.5105,0.0,-2.5507,-2.5507,-2.5874,-2.6605,-2.7403,-2.8216,-2.9033,-2.9691,-2.9973,-2.9913,-2.9913,-2.9905,-2.9897,-2.9921,-2.9921,-2.9913,-2.9929,-3.0007,-3.0123,0.0,0.0,0.0,0.0,0.0,0.0,0.0,-4.049,-4.1392,-4.2902,-4.2676,-4.2632,-4.3252,-4.4113,-4.469,-4.4808,-4.5306,-4.554,-4.5438,-4.5292,-4.4758,-4.3792,-4.2519,-4.1517,-4.0871,-3.8403,-3.6073,0.0,0.0,-2.8827,-2.6117,-2.4482,0.0,0.0,0.0,-2.9583,-3.1754,-3.2641,-3.3676,-3.4712,-3.4774,-3.4998,-3.5308,-3.5098,-3.5228,-3.5447,-3.5031,-3.5107,-3.5382,-3.5472,-3.504,-3.4486,-3.4451,-3.4112,-3.3598,-3.3018,-3.257,-3.2019,-3.0908,-3.0363,-2.9991,-2.9508,-2.9396,-2.9396,-2.9396,-2.9396,-2.9396,-2.9396,-2.8709,-2.7854,-2.7055,-2.6238,-2.5448,0.0,0.0,0.0,0.0,0.0,0.0,0.0,0.0,0.0,0.0,0.0,0.0,0.0,0.0,0.0,0.0,0.0,0.0,-2.1349,0.0,-2.4133,-2.4133,-2.4922,-2.5331,-2.5376,-2.5376,-2.5815,-2.6665,-2.7437,-2.8447,-2.9589,-2.9863,-2.9945,-2.9897,-2.9897,-2.9897,-2.9897,-2.9897,-2.9897,-2.9897,-2.9897,-2.9929,-2.9984,-3.8581,0.0,-3.9082,0.0,-4.0234,-4.0109,-4.0933,-4.1001,-4.1285,-4.2184,-4.1697,-4.1518,-4.2259,-4.3052,-4.3596,-4.3733,-4.4298,-4.4624,-4.4546,-4.459,-4.4304,-4.3604,-4.2856,0.0,-4.0985,-3.9014,-3.7113,-3.5293,-3.2853,0.0,-2.9508,0.0,0.0,0.0,-2.9991,-3.1497,-3.293,-3.4296,-3.5127,-3.5519,-3.5741,-3.5813,-3.5776,-3.5324,-3.5302,-3.5443,-3.4891,-3.4852,-3.5095,-3.5259,-3.5199,-3.5007,-3.5038,-3.4814,-3.4405,-3.3747,-3.3388,-3.2918,-3.1641,-3.0957,-3.0456,-2.988,-2.9564,-2.9396,-2.9396,-2.9396,-2.9396,-2.9396,-2.8523,-2.7575,-2.6999,-2.6061,-2.5169,0.0,0.0,0.0,0.0,0.0,0.0,0.0,-2.242,-2.1404,-2.0131,0.0,0.0,0.0,0.0,0.0,0.0,0.0,0.0,0.0,0.0,0.0,0.0,0.0,-2.5224,-2.5265,-2.5265,-2.5851,-2.697,-2.7955,-2.8958,-2.9897,-2.9897,-2.9897,-2.9897,-2.9897,-2.9897,-2.9897,-2.9897,-2.9897,-2.9897,-2.9897,-2.9897,-2.9905,-4.0197,-4.0378,-4.0624,-4.1441,-4.1571,-4.1636,-4.1839,-4.1722,-4.175,-4.2243,-4.1882,-4.209,-4.3419,-4.2883,-4.242,-4.242,-4.242,-4.2335,-4.2045,-4.2771,-4.3105,0.0,0.0,-4.2422,-4.1605,-4.0787,-3.9542,-3.7856,0.0,0.0,-3.289,0.0,-3.0214,-3.1786,-3.281,-3.4623,-3.6938,-3.7162,-3.7757,-3.8479,-3.7625,-3.7274,-3.7177,-3.6163,-3.628,-3.6733,-3.487,-3.4748,-3.5361,-3.4506,-3.4785,-3.5498,-3.5564,-3.504,-3.4397,-3.4397,-3.3818,-3.3179,-3.3018,-3.1812,-3.0604,-3.0586,-2.9991,-2.9396,-2.9396,-2.9396,-2.9396,-2.9396,-2.8059,-2.6907,-2.6907,-2.5596,-2.4518,-2.45,0.0,0.0,0.0,0.0,0.0,0.0,-2.1846,-2.0886,-2.0804,0.0,0.0,0.0,0.0,0.0,0.0,0.0,0.0,-2.3744,-2.3879,0.0,-2.3898,-2.4765,-2.5192,-2.5192,-2.5192,-2.6074,-2.7737,-2.9331,-3.0015,-2.9897,-2.9897,-2.9897,-2.9897,-2.9897,-2.9897,-2.9897,-2.9897,-2.9897,-2.9897,-2.9897,-2.9897,-2.9897,-4.198,-4.2482,-4.2927,-4.3188,-4.2779,-4.2437,-4.2503,-4.1983,-4.1849,-4.2543,-4.2023,-4.1975,-4.2946,-4.2489,-4.1956,0.0,-4.2067,-4.2356,0.0,-4.2347,-4.2342,-4.2267,-4.1553,-4.1033,-4.0791,-3.9937,-3.8971,-3.7894,0.0,0.0,0.0,-3.4488,-3.4358,-3.4358,-3.5231,-3.6128,-3.7005,-3.7062,-3.7324,-3.768,-3.7265,-3.7103,-3.7043,-3.6595,-3.6572,-3.6652,-3.5498,-3.5268,-3.5454,-3.5175,-3.4878,-3.4822,-3.5975,-3.5802,-3.5163,-3.5163,-3.4548,-3.3755,-3.3162,-3.263,-3.1979,-3.0864,-3.04,-3.0065,-2.9527,-2.9396,-2.9396,-2.9396,-2.8059,-2.6907,-2.6907,-2.5578,-2.45,-2.45,0.0,0.0,0.0,0.0,0.0,0.0,0.0,-2.2463,0.0,-2.0734,0.0,0.0,0.0,0.0,0.0,0.0,0.0,0.0,-2.3812,0.0,-2.3839,-2.465,-2.5095,-2.5136,-2.5683,-2.6823,-2.8477,-2.9494,-2.9937,-2.9897,-2.9897,-2.9897,-2.9897,-2.9897,-2.9897,-2.9897,-2.9897,-2.9897,-2.9897,-2.9897,-2.9897,-2.9897,-4.3243,-4.3652,-4.3989,-4.3958,-4.3581,-4.3228,-4.3216,-4.2819,-4.2686,-4.3188,-4.2816,-4.2575,-4.2779,-4.2505,0.0,-4.0917,-4.1035,0.0,-4.1161,-4.1316,-4.1397,-4.1397,-4.1054,-4.0713,-4.0416,0.0,0.0,-3.8841,-3.8507,-3.7522,-3.5956,-3.6458,-3.6439,-3.5993,-3.6792,-3.7223,-3.7374,-3.7661,-3.7859,-3.796,-3.7835,-3.7792,-3.7742,-3.7309,-3.7151,-3.7039,-3.6253,-3.5956,-3.5956,-3.5956,-3.5776,-3.5757,-3.6829,-3.6798,-3.629,-3.5677,-3.512,-3.4506,-3.3689,-3.3231,-3.276,-3.1756,-3.105,-3.0381,-2.9582,-2.9396,-2.9396,-2.9396,-2.83,-2.726,-2.6962,-2.5838,-2.4853,-2.4555,0.0,-2.45,0.0,0.0,0.0,0.0,0.0,0.0,0.0,-2.2107,0.0,0.0,0.0,0.0,0.0,0.0,0.0,-2.2601,-2.4214,0.0,-2.4258,-2.5049,-2.5473,-2.5526,-2.6661,-2.7737,-2.8783,-2.955,-2.9897,-2.9897,-2.9897,-2.9897,-2.9897,-2.9897,-2.9897,-2.9897,-2.9897,-2.9897,-2.9888,-2.9874,-2.9866,-2.9857,-4.4156,-4.4156,0.0,0.0,-4.4128,0.0,-4.408,-4.4143,-4.4172,-4.4172,-4.4172,-4.3893,-4.3132,-4.2946,-4.2277,-4.0773,0.0,0.0,0.0,-3.9881,-4.0323,-4.0323,-4.1033,0.0,-4.0327,-4.0323,-4.0341,-4.0416,-3.964,-3.8469,-3.6959,-3.6959,-3.6922,-3.6891,-3.7652,-3.7968,-3.8024,-3.8785,-3.9101,-3.9101,-3.9101,-3.9101,-3.9027,-3.8265,-3.7968,-3.7875,-3.7071,-3.6779,-3.6773,-3.6705,-3.7188,-3.7819,-3.7875,-3.7894,-3.7596,-3.6105,-3.5584,-3.5324,-3.4513,-3.3696,-3.3076,-3.302,-3.1794,-3.04,-2.9638,-2.9434,-2.9396,-2.9396,-2.8709,-2.7854,-2.7055,-2.6238,-2.5448,-2.463,-2.45,-2.45,-2.45,0.0,0.0,0.0,0.0,0.0,0.0,-2.285,-2.3277,0.0,0.0,0.0,0.0,0.0,0.0,-2.4704,-2.4929,-2.5009,-2.5065,-2.5804,-2.624,-2.6399,-2.7945,-2.8741,-2.8817,-2.9556,-2.9897,-2.9897,-2.9897,-2.9897,-2.9897,-2.9897,-2.9897,-2.9897,-2.9897,-2.9888,-2.9899,-2.9815,-2.9799,-2.9782,0.0,0.0,-4.5683,-4.5732,-4.5747,-4.578,-4.5867,-4.5902,-4.59,-4.59,-4.59,-4.5844,-4.5639,-4.4488,-4.3559,-4.3188,-4.1274,-4.0085,-4.0085,-3.9658,-3.9398,-3.9398,-3.9584,-3.9602,-3.9417,-3.9398,-3.9733,-4.0416,-4.081,-4.0494,-3.951,-3.951,-3.9157,-3.8544,-3.8729,-3.8822,-3.8822,-3.9027,-3.9101,-3.9101,-3.9101,-3.9101,-3.9082,-3.8897,-3.8822,-3.8711,-3.7894,-3.7615,-3.7522,-3.6922,-3.6829,-3.7076,-3.7708,-3.7894,-3.7819,-3.7429,-3.6458,-3.5454,-3.525,-3.4581,-3.377,-3.315,-3.1794,-3.0549,-3.0363,-2.9842,-2.9396,-2.9396,-2.8709,-2.7854,-2.7055,-2.6238,-2.5448,-2.463,-2.45,-2.45,-2.45,0.0,0.0,0.0,-2.4194,-2.4119,-2.3933,-2.4082,-2.3925,0.0,0.0,0.0,0.0,0.0,-2.3401,-2.4607,-2.4776,-2.5114,-2.5675,-2.5882,-2.6656,-2.804,-2.8482,-2.9025,-2.9631,-2.9821,-2.9897,-2.9897,-2.9897,-2.9897,-2.9897,-2.9897,-2.9897,-2.9897,-2.9897,-2.9874,-2.9815,-2.9808,-2.9764,-2.9719,-4.6206,-4.591,-4.5634,-4.5614,-4.5683,-4.57,-4.5717,-4.5803,-4.5982,-4.6353,-4.6143,-4.6085,-4.6457,-4.5695,-4.4989,-4.4618,-4.2352,-4.0791,-4.042,-3.9955,-3.951,-3.912,-3.9101,-3.9101,-3.9101,-3.9101,-3.9324,-3.9807,-4.0643,-4.0843,-4.0416,-4.0416,-4.0327,-4.0234,-4.0234,-4.0234,-4.0234,-4.0234,-4.0234,-4.0234,-4.0234,-4.0234,-4.0234,-4.0234,-4.0011,-3.964,-3.9194,-3.8785,-3.8377,-3.7931,-3.7801,-3.7856,-3.8302,-3.8451,-3.8451,-3.8451,-3.7559,-3.6439,-3.5696,-3.5157,-3.4506,-3.3287,-3.2351,-3.1496,-3.0772,-3.0251,-2.9842,-2.9481,-2.9025,-2.843,-2.7594,-2.6795,-2.5987,-2.5187,-2.4741,-2.45,-2.45,-2.45,0.0,-2.45,-2.45,-2.45,-2.45,-2.45,-2.4305,-2.3832,0.0,0.0,-2.3795,-2.424,-2.47,-2.5122,-2.5244,-2.5689,-2.6485,-2.6868,-2.7747,-2.9097,-2.9149,-2.9401,-2.9816,-2.9816,-2.9834,-2.9857,-2.9857,-2.9874,-2.9897,-2.9897,-2.9897,-2.9897,-2.9897,-2.9857,-2.9799,-2.9774,-2.9682,-2.9598,-4.6171,-4.5599,-4.5102,-4.5015,-4.5102,-4.5119,-4.5032,-4.5169,-4.551,-4.6214,-4.5815,-4.5716,-4.6403,-4.6366,-4.6013,-4.5361,-4.3228,-4.1612,-4.081,-4.0657,-4.0197,-3.9324,-3.9305,-3.9231,-3.9101,-3.9231,-3.9305,-3.9305,-4.016,-4.0527,-4.0416,-4.0416,-4.068,-4.1219,-4.1219,-4.1219,-4.1219,-4.1219,-4.1219,-4.1219,-4.1219,-4.1293,-4.1404,-4.1256,-4.0958,-4.0568,-4.0453,-3.9993,-3.9454,-3.9342,-3.9305,-3.9268,-3.9138,-3.9101,-3.9101,-3.9101,-3.8618,-3.7764,-3.6272,-3.5677,-3.5138,-3.3577,-3.3094,-3.2648,-3.1273,-3.0772,-3.04,-2.9712,-2.9471,-2.9118,-2.8263,-2.7445,-2.6628,-2.5838,-2.5011,-2.4491,-2.45,0.0,-2.4528,-2.4667,-2.4685,-2.4723,-2.4853,-2.4853,-2.4853,-2.4853,-2.4853,0.0,0.0,-2.5565,-2.6011,-2.6141,-2.6088,-2.6459,-2.7331,-2.8155,-2.8942,-2.9664,-2.9701,-2.9701,-2.9701,-2.9701,-2.9729,-2.9782,-2.9799,-2.9823,-2.9899,-2.9907,-2.9897,-2.9897,-2.9899,-2.9841,-2.9773,-2.9701,-2.9579,-2.9481,-4.5956,-4.5846,-4.579,-4.588,-4.5916,-4.5951,-4.5967,-4.6002,-4.6056,-4.6185,-4.6178,-4.6192,-4.6322,-4.571,-4.5317,-4.5305,-4.422,-4.3222,-4.2482,-4.1776,-4.1051,-4.0215,-4.0197,-3.9844,-3.912,-3.9807,-4.0197,-4.0197,-4.1014,-4.107,-4.0416,-4.0416,-4.0067,-3.9491,-3.9491,-3.9491,-3.9491,-3.9491,-3.9491,-3.9491,-3.9491,-3.9918,-4.0494,-3.977,-4.029,-4.1311,-4.0639,-4.0736,-4.1107,-4.0434,-4.0197,-4.0067,-3.9324,-3.9101,-3.9101,-3.9101,-3.9008,-3.8711,-3.7782,-3.6551,-3.5268,-3.4253,-3.3491,-3.2915,-3.2685,-3.1589,-3.0567,-3.0437,-2.9861,-2.9118,-2.8263,-2.7445,-2.6628,-2.5838,-2.4976,-2.4438,0.0,0.0,-2.4698,-2.5439,-2.5522,-2.5782,-2.6461,-2.6535,-2.6535,-2.6535,-2.6535,-2.6535,-2.6535,-2.6665,-2.7037,-2.7725,-2.7158,-2.7186,-2.7949,-2.8875,-2.9409,-2.9522,-2.9645,-2.9701,-2.9701,-2.9701,-2.9711,-2.971,-2.9773,-2.9816,-2.9815,-2.9883,-2.9897,-2.9888,-2.9832,-2.9773,-2.9701,-2.9579,-2.9481,-2.9409,-4.592,-4.5663,-4.5442,-4.535,-4.4981,-4.4852,-4.5329,-4.5418,-4.5619,-4.608,-4.5817,-4.5774,-4.62,-4.5922,-4.5551,-4.5158,-4.4737,-4.4163,-4.3381,-4.2659,-4.1887,-4.107,-4.0562,-3.9903,-3.905,-3.9482,-3.9695,-3.9695,-4.0067,-4.029,-4.0416,-4.0416,-4.042,-4.0438,-4.0438,-4.0438,-4.0438,-4.0438,-4.0438,-4.0438,-4.0438,-4.068,-4.1051,-4.107,-4.1033,-4.1014,-4.1497,-4.1367,-4.0958,-4.1033,-4.0754,-4.0327,-3.9918,-3.9402,-3.8964,-3.9073,-3.8785,-3.8377,-3.7986,-3.6736,-3.5398,-3.5008,-3.4284,-3.3528,-3.3113,-3.2425,-3.1645,-3.0772,-3.0307,-2.9787,-2.8951,-2.8015,-2.73,-2.7046,-2.5838,0.0,0.0,-2.5123,-2.5244,-2.5643,-2.607,-2.6479,-2.6851,-2.6907,-2.6907,-2.6907,-2.6907,-2.6907,-2.6907,-2.7315,-2.7724,-2.8096,-2.8228,-2.8452,-2.8802,-2.9225,-2.945,-2.946,-2.95,-2.9548,-2.9548,-2.9548,-2.9559,-2.9589,-2.9617,-2.9682,-2.9756,-2.9773,-2.979,-2.979,-2.9799,-2.9719,-2.9589,-2.9598,-2.952,-2.9396,-4.5351,-4.5002,-4.4654,-4.447,-4.3901,-4.3699,-4.4323,-4.4449,-4.4741,-4.5421,-4.503,-4.4915,-4.5524,-4.5598,-4.5375,-4.4783,-4.4692,-4.4417,-4.3841,-4.3323,-4.2662,-4.1846,-4.0952,-4.0182,-3.9585,-3.9435,-3.9384,-3.9398,-3.9194,-3.9435,-4.0085,-4.0085,-4.042,-4.1014,-4.1014,-4.1014,-4.1014,-4.1014,-4.1014,-4.1014,-4.1014,-4.1126,-4.1367,-4.1776,-4.1404,-4.081,-4.1869,-4.1683,-4.1014,-4.1441,-4.1311,-4.0884,-4.0436,-3.9749,-3.9058,-3.8972,-3.8502,-3.7998,-3.7849,-3.6917,-3.5866,-3.5425,-3.482,-3.4117,-3.3382,-3.3061,-3.259,-3.1392,-3.1013,-3.0612,-2.9771,-2.8772,-2.808,-2.8001,0.0,0.0,0.0,-2.5866,-2.5968,-2.6163,-2.6776,-2.726,-2.7464,-2.7483,-2.7483,-2.7483,-2.7483,-2.7463,-2.7405,-2.7999,-2.8312,-2.8262,-2.9002,-2.9396,-2.9396,-2.9396,-2.9396,-2.9396,-2.9396,-2.9396,-2.9396,-2.9396,-2.9429,-2.9481,-2.9482,-2.956,-2.9655,-2.9692,-2.9664,-2.9636,-2.9664,-2.9551,-2.9373,-2.9481,-2.9419,-2.9272,-4.368,-4.3662,-4.3625,-4.3589,-4.3551,-4.3533,-4.3588,-4.3588,-4.3625,-4.368,-4.3693,-4.3744,-4.38,-4.38,-4.3815,-4.388,-4.3776,-4.3741,-4.3788,-4.3749,-4.334,-4.2474,-4.1646,-4.1249,-4.1307,-4.0544,-4.0181,-4.029,-3.9491,-3.912,-3.9194,-3.9194,-3.9231,-3.9287,-3.9287,-3.9287,-3.9287,-3.9287,-3.9287,-3.9287,-3.9287,-3.977,-4.0416,-3.9658,-4.0253,-4.1423,-4.0806,-4.146,-4.2519,-4.1832,-4.2054,-4.2322,-4.0591,-3.9982,-3.9734,-3.8745,-3.841,-3.8238,-3.768,-3.7444,-3.694,-3.5188,-3.471,-3.453,-3.396,-3.3257,-3.2736,-3.2806,-3.224,-3.1403,-3.0418,-2.9561,-2.8713,-2.7785,0.0,0.0,-2.626,-2.6355,-2.6736,-2.7561,-2.7865,-2.8337,-2.9136,-2.9221,-2.9221,-2.9221,-2.9221,-2.913,-2.8957,-2.8983,-2.8941,-2.8742,-2.9163,-2.9396,-2.9396,-2.9396,-2.9396,-2.9396,-2.9396,-2.9396,-2.9396,-2.9396,-2.9407,-2.9417,-2.9471,-2.9502,-2.9512,-2.9645,-2.9579,-2.9423,-2.9363,-2.918,-2.8952,-2.895,-2.891,-2.8875,-4.3515,-4.3515,-4.3515,-4.3515,-4.3515,-4.3515,-4.3515,-4.3515,-4.3515,-4.3515,-4.3513,-4.3549,-4.3549,-4.3549,-4.3566,-4.36,-4.3566,-4.3566,-4.36,-4.36,-4.3266,-4.247,-4.2186,-4.1815,-4.1317,-4.1015,-4.0944,-4.1089,-4.0756,-4.0358,-3.99,-3.99,-3.9621,-3.9101,-3.9101,-3.9101,-3.9101,-3.9101,-3.9101,-3.9101,-3.9101,-3.9305,-3.9621,-3.9825,-3.9974,-4.0141,-4.0884,-4.1534,-4.2092,-4.2277,-4.2446,-4.2419,-4.1712,-4.059,-3.9323,-3.8422,-3.8269,-3.831,-3.7936,-3.7541,-3.7086,-3.6358,-3.5435,-3.4645,-3.4438,-3.3808,-3.314,-3.2724,-3.237,-3.1885,-3.0972,-3.0068,-2.9386,-2.9132,0.0,-2.6952,-2.7086,-2.7155,-2.7309,-2.7643,-2.818,-2.8665,-2.9007,-2.9026,-2.9026,-2.9026,-2.9026,-2.8991,-2.8922,-2.891,-2.8875,-2.8797,-2.8945,-2.9026,-2.9026,-2.9145,-2.9218,-2.9218,-2.9344,-2.9326,-2.9218,-2.9218,-2.9145,-2.9026,-2.9052,-2.9075,-2.9075,-2.9119,-2.9097,-2.903,-2.9049,-2.8952,-2.885,-2.8879,-2.885,-2.8797,-4.3515,-4.3515,-4.3515,-4.3515,-4.3515,-4.3515,-4.3515,-4.3515,-4.3515,-4.3515,-4.3515,-4.3515,-4.3515,-4.3515,-4.3515,-4.3515,-4.3515,-4.3515,-4.3515,-4.3515,-4.3275,-4.2772,-4.2803,-4.2527,-4.1977,-4.1751,-4.1702,-4.1813,-4.1604,-4.1241,-4.0762,-4.0773,-4.0457,-3.9863,-3.9621,-3.951,-3.9491,-3.9212,-3.9101,-3.9101,-3.9101,-3.9101,-3.9175,-3.9751,-3.9621,-3.925,-4.0401,-4.0977,-4.1311,-4.185,-4.2097,-4.2129,-4.1948,-4.0758,-3.9265,-3.8474,-3.8381,-3.8428,-3.7987,-3.7569,-3.7196,-3.6942,-3.6039,-3.5186,-3.5009,-3.4403,-3.3706,-3.3217,-3.2953,-3.2488,-3.157,-3.0898,-3.0306,-2.9872,-2.8773,-2.7911,-2.7791,-2.784,-2.7876,-2.7876,-2.8439,-2.8797,-2.8797,-2.8797,-2.8797,-2.8797,-2.8797,-2.8761,-2.8718,-2.8657,-2.8619,-2.8619,-2.8619,-2.8619,-2.8619,-2.8863,-2.901,-2.901,-2.9145,-2.9134,-2.901,-2.901,-2.8922,-2.8797,-2.8797,-2.8797,-2.8797,-2.8797,-2.8749,-2.87,-2.8791,-2.8731,-2.8632,-2.8688,-2.867,-2.8619,-4.3515,-4.3515,-4.3515,-4.3515,-4.3515,-4.3515,-4.3515,-4.3515,-4.3515,-4.3515,-4.3515,-4.3515,-4.3515,-4.3515,-4.3515,-4.3515,-4.3515,-4.3515,-4.3515,-4.3515,-4.3515,-4.3515,-4.3515,-4.3513,-4.3599,-4.2826,-4.2435,-4.2514,-4.185,-4.1508,-4.1508,-4.1579,-4.1609,-4.1571,-4.0769,-4.0416,-4.0346,-3.9491,-3.912,-3.912,-3.912,-3.912,-3.912,-3.9101,-3.9101,-3.9101,-3.9101,-3.9658,-4.0416,-4.0416,-4.0921,-4.1497,-4.0974,-4.0384,-3.9752,-3.904,-3.8808,-3.8629,-3.7845,-3.7595,-3.7416,-3.6613,-3.6399,-3.6255,-3.5719,-3.499,-3.4457,-3.4662,-3.412,-3.3298,-3.23,-3.2112,-3.1517,-2.9715,-2.9423,-2.9123,-2.832,-2.8384,-2.851,-2.851,-2.8682,-2.8803,-2.8803,-2.8803,-2.8803,-2.8803,-2.8803,-2.8718,-2.8505,-2.8318,-2.8196,-2.8196,-2.8196,-2.8196,-2.8196,-2.8594,-2.8803,-2.8803,-2.8797,-2.8797,-2.8803,-2.8803,-2.8803,-2.8803,-2.8803,-2.8803,-2.8803,-2.8803,-2.8682,-2.8492,-2.8574,-2.8432,-2.8196,-2.8273,-2.8264,-2.8223,-4.3515,-4.3515,-4.3515,-4.3515,-4.3515,-4.3515,-4.3515,-4.3515,-4.3515,-4.3515,-4.3515,-4.3515,-4.3515,-4.3515,-4.3515,-4.3515,-4.3515,-4.3515,-4.3515,-4.3515,-4.3515,-4.3515,-4.3515,-4.3515,-4.3513,-4.3275,-4.3215,-4.3264,-4.3076,-4.277,-4.2341,-4.2356,-4.2087,-4.159,-4.1349,-4.1237,-4.1219,-4.0958,-4.0847,-4.0847,-4.0847,-4.0847,-4.0791,-4.0215,-4.0011,-3.9918,-3.9324,-3.9658,-4.0416,-4.0416,-4.0819,-4.122,-4.0615,-4.0578,-4.0592,-3.9788,-3.9218,-3.8754,-3.8504,-3.8023,-3.7541,-3.7309,-3.6809,-3.6363,-3.62,-3.5555,-3.4981,-3.5047,-3.4453,-3.3862,-3.3566,-3.2581,-3.1637,-3.1097,-3.0547,-2.9922,-2.9141,-2.9086,-2.8931,-2.8362,-2.834,-2.838,-2.838,-2.838,-2.838,-2.838,-2.838,-2.8353,-2.8286,-2.8237,-2.8196,-2.8196,-2.8196,-2.8196,-2.8196,-2.8471,-2.8594,-2.8594,-2.8725,-2.8731,-2.8594,-2.8594,-2.8505,-2.838,-2.838,-2.838,-2.838,-2.838,-2.834,-2.8291,-2.8318,-2.8277,-2.8196,-2.8223,-2.8209,-2.8196,-4.3515,-4.3515,-4.3515,-4.3515,-4.3515,-4.3515,-4.3515,-4.3515,-4.3515,-4.3515,-4.3515,-4.3515,-4.3515,-4.3515,-4.3515,-4.3515,-4.3357,-4.3339,-4.3497,-4.3178,-4.3142,-4.3479,-4.316,-4.3142,-4.3479,-4.3515,-4.3513,-4.3548,-4.3582,-4.341,-4.3063,-4.3114,-4.3069,-4.2928,-4.231,-4.2214,-4.2473,-4.1854,-4.159,-4.159,-4.159,-4.159,-4.1553,-4.1051,-4.0694,-4.0327,-3.9788,-3.9733,-3.9881,-3.9881,-4.0369,-4.0939,-4.0562,-4.0955,-4.1413,-4.061,-4.0057,-3.9593,-3.8968,-3.8433,-3.7987,-3.7684,-3.7238,-3.6863,-3.6863,-3.6256,-3.5685,-3.5685,-3.5079,-3.4454,-3.4151,-3.3312,-3.2438,-3.1796,-3.1296,-3.0707,-2.994,-2.9851,-2.9547,-2.8766,-2.8677,-2.8552,-2.8231,-2.8196,-2.8196,-2.8196,-2.8196,-2.8196,-2.8196,-2.8196,-2.8196,-2.8196,-2.8196,-2.8196,-2.8196,-2.8313,-2.838,-2.838,-2.8492,-2.8492,-2.838,-2.838,-2.8313,-2.8196,-2.8196,-2.8196,-2.8196,-2.8196,-2.8196,-2.8196,-2.8196,-2.8196,-2.8196,-2.8196,-2.8196,-2.8196,-4.3515,-4.3515,-4.3515,-4.3515,-4.3515,-4.3515,-4.3515,-4.3515,-4.3515,-4.3515,-4.3515,-4.3515,-4.3515,-4.348,-4.3444,-4.3444,-4.3069,-4.2995,-4.3375,-4.2637,-4.2539,-4.3357,-4.2617,-4.2559,-4.3375,-4.3427,-4.3462,-4.3515,-4.3548,-4.3582,-4.3599,-4.3719,-4.4175,-4.482,-4.3423,-4.3251,-4.3899,-4.2436,-4.185,-4.1924,-4.1832,-4.1813,-4.1813,-4.172,-4.1237,-4.0587,-4.0438,-3.9867,-3.9166,-3.9092,-3.9752,-4.0575,-4.0575,-4.134,-4.2037,-4.1306,-4.1092,-4.0788,-3.9397,-3.8896,-3.8629,-3.788,-3.7648,-3.7595,-3.7595,-3.7041,-3.6506,-3.6506,-3.5882,-3.5096,-3.4347,-3.4151,-3.3598,-3.2063,-3.1811,-3.1528,-3.0725,-3.0618,-3.0332,-2.9601,-2.944,-2.9105,-2.8374,-2.8249,-2.8196,-2.8196,-2.8196,-2.8196,-2.8196,-2.8196,-2.8196,-2.8196,-2.8196,-2.8196,-2.8196,-2.8196,-2.8196,-2.8196,-2.8196,-2.8196,-2.8196,-2.8196,-2.8196,-2.8196,-2.8196,-2.8196,-2.8196,-2.8196,-2.8196,-2.8196,-2.8196,-2.8196,-2.8196,-2.8196,-2.8196,-2.8196,-4.3515,-4.3515,-4.3515,-4.3515,-4.3515,-4.3515,-4.3515,-4.3515,-4.3515,-4.3515,-4.3515,-4.3515,-4.3515,-4.3232,-4.3032,-4.3032,-4.2616,-4.2398,-4.248,-4.23,-4.2279,-4.246,-4.23,-4.2279,-4.248,-4.2845,-4.3178,-4.3515,-4.3496,-4.3548,-4.3599,-4.3634,-4.3776,-4.4063,-4.371,-4.4005,-4.4705,-4.3788,-4.3781,-4.43,-4.3714,-4.3485,-4.341,-4.2779,-4.2426,-4.211,-4.0847,-4.0152,-3.9711,-3.9084,-3.9261,-3.9754,-3.9754,-4.051,-4.1324,-4.1145,-4.1092,-4.1038,-4.0699,-3.9718,-3.8772,-3.8594,-3.8058,-3.7595,-3.7595,-3.747,-3.7345,-3.7345,-3.6684,-3.5899,-3.5114,-3.4491,-3.3776,-3.2811,-3.2632,-3.2364,-3.1546,-3.1439,-3.1153,-3.0368,-2.9762,-2.9333,-2.9173,-2.857,-2.8196,-2.8196,-2.8196,-2.8196,-2.8196,-2.8196,-2.8196,-2.8196,-2.8196,-2.8196,-2.8196,-2.8196,-2.8196,-2.8196,-2.8196,-2.8196,-2.8196,-2.8196,-2.8196,-2.8196,-2.8196,-2.8196,-2.8196,-2.8196,-2.8196,-2.8196,-2.8196,-2.8196,-2.8196,-2.8196,-2.8196,-2.8196,-4.3515,-4.3339,-4.3268,-4.348,-4.3339,-4.3286,-4.3462,-4.3515,-4.3427,-4.325,-4.3214,-4.3124,-4.2902,-4.2693,-4.2575,-4.2575,-4.2136,-4.1969,-4.2195,-4.1817,-4.1774,-4.2177,-4.1796,-4.1774,-4.2177,-4.2218,-4.244,-4.2884,-4.2884,-4.2902,-4.2922,-4.2922,-4.3177,-4.3578,-4.3233,-4.3524,-4.4253,-4.3908,-4.4143,-4.4723,-4.4737,-4.4824,-4.482,-4.4038,-4.3418,-4.277,-4.1572,-4.0535,-3.9724,-3.9427,-3.9397,-3.9533,-3.9664,-4.0164,-4.0787,-4.1181,-4.1191,-4.1092,-4.1092,-4.0503,-3.9718,-3.8986,-3.8487,-3.8058,-3.7702,-3.7595,-3.7595,-3.7595,-3.7274,-3.672,-3.5917,-3.515,-3.4383,-3.3598,-3.315,-3.2757,-3.2329,-3.2275,-3.1972,-3.1171,-3.0725,-3.035,-2.9958,-2.9533,-2.9301,-2.9301,-2.9301,-2.9141,-2.8784,-2.8766,-2.8606,-2.8213,-2.8196,-2.8196,-2.8196,-2.8196,-2.8196,-2.8196,-2.8196,-2.8196,-2.8196,-2.8196,-2.8196,-2.8196,-2.8196,-2.8196,-2.8196,-2.8196,-2.8196,-2.8196,-2.8196,-2.8196,-2.8196,-2.8196,-2.8196,-2.8196,-4.341,-4.3142,-4.2976,-4.3232,-4.2995,-4.292,-4.3339,-4.3321,-4.3196,-4.292,-4.2825,-4.2634,-4.2239,-4.2136,-4.2053,-4.1969,-4.1622,-4.1556,-4.1948,-4.13,-4.1209,-4.1945,-4.13,-4.1232,-4.1948,-4.16,-4.1648,-4.2198,-4.2198,-4.2198,-4.2198,-4.2198,-4.2575,-4.3167,-4.2568,-4.2716,-4.3491,-4.3409,-4.3758,-4.4433,-4.5017,-4.544,-4.5625,-4.5022,-4.4108,-4.3086,-4.2268,-4.0978,-3.9683,-3.9914,-3.9741,-3.9483,-3.9713,-3.9904,-4.0165,-4.0831,-4.1074,-4.1092,-4.1092,-4.1092,-4.0788,-3.9521,-3.9004,-3.8611,-3.7914,-3.7665,-3.7595,-3.7595,-3.7595,-3.7363,-3.6542,-3.5846,-3.5115,-3.419,-3.3494,-3.3012,-3.287,-3.2852,-3.2618,-3.1974,-3.1778,-3.1385,-3.0582,-3.0496,-3.0496,-3.0496,-3.0496,-3.0229,-2.9619,-2.9601,-2.9212,-2.8427,-2.841,-2.8338,-2.8196,-2.8196,-2.8196,-2.8196,-2.8196,-2.8196,-2.8196,-2.8196,-2.8196,-2.8196,-2.8196,-2.8196,-2.8196,-2.8196,-2.8196,-2.8196,-2.8196,-2.8196,-2.8196,-2.8196,-2.8196,-2.8196,-4.305,-4.2957,-4.2806,-4.2438,-4.232,-4.2458,-4.292,-4.2653,-4.2498,-4.2844,-4.2555,-4.2277,-4.2216,-4.1842,-4.1445,-4.1111,-4.1035,-4.1012,-4.1065,-4.0965,-4.0942,-4.1065,-4.0965,-4.0942,-4.1065,-4.0995,-4.1373,-4.2198,-4.2198,-4.2198,-4.2198,-4.2198,-4.2269,-4.2358,-4.2272,-4.2667,-4.3388,-4.2734,-4.3317,-4.4599,-4.407,-4.427,-4.4847,-4.4759,-4.4237,-4.3422,-4.2611,-4.1447,-4.0257,-4.0257,-3.9788,-3.9246,-3.9281,-3.9157,-3.9025,-3.9132,-4.0076,-4.1092,-4.1092,-4.1092,-4.1056,-4.0842,-3.9789,-3.8715,-3.8438,-3.7964,-3.7595,-3.7595,-3.7595,-3.7363,-3.6542,-3.631,-3.5704,-3.4108,-3.3737,-3.3435,-3.2727,-3.2639,-3.2651,-3.2741,-3.2117,-3.1385,-3.0582,-3.0496,-3.0496,-3.0496,-3.0496,-3.0475,-3.0368,-3.035,-3.0011,-2.9262,-2.9244,-2.8891,-2.8213,-2.8196,-2.8196,-2.8196,-2.8196,-2.8196,-2.8196,-2.8196,-2.8196,-2.8196,-2.8196,-2.8196,-2.8196,-2.8196,-2.8196,-2.8196,-2.8196,-2.8196,-2.8196,-2.8196,-2.8196,-2.8196,-4.3552,-4.2783,-4.2136,-4.2177,-4.199,-4.1969,-4.2438,-4.232,-4.2177,-4.2115,-4.1948,-4.1713,-4.1507,-4.13,-4.1071,-4.0935,-4.0912,-4.0912,-4.0912,-4.0912,-4.0912,-4.0912,-4.0912,-4.0912,-4.0912,-4.0912,-4.1088,-4.1485,-4.1485,-4.1485,-4.1485,-4.1485,-4.1485,-4.1485,-4.1485,-4.166,-4.2016,-4.2091,-4.2674,-4.3651,-4.4254,-4.4725,-4.5094,-4.512,-4.4836,-4.4214,-4.3009,-4.1736,-4.0654,-4.077,-4.0363,-3.977,-3.946,-3.921,-3.9013,-3.9013,-3.9403,-4.0003,-4.0877,-4.1092,-4.1092,-4.1092,-4.0592,-3.9802,-3.8736,-3.8277,-3.798,-3.7517,-3.7336,-3.7192,-3.6948,-3.6448,-3.5807,-3.5046,-3.4534,-3.4023,-3.3368,-3.3261,-3.3186,-3.2938,-3.2596,-3.2239,-3.1882,-3.1831,-3.1831,-3.1831,-3.1831,-3.1635,-3.1189,-3.1171,-3.0814,-3.0047,-2.9619,-2.9244,-2.8873,-2.8427,-2.8196,-2.8196,-2.8196,-2.8196,-2.8196,-2.8196,-2.8196,-2.8196,-2.8196,-2.8196,-2.8196,-2.8196,-2.8196,-2.8196,-2.8196,-2.8196,-2.8196,-2.8196,-2.8196,-2.8196]},{"header":{"parameterUnit":"m.s-1","parameterCategory":1,"la1":30.6,"la2":28.766,"lo1":-90.7593,"lo2":-88.6598,"dy":0.0162,"dx":0.0183,"nx":116,"ny":114,"refTime":"2024-06-07T12:00:00:Z","depth":0,"parameterNumber":3,"parameterNumberName":"V-component_of_WINDS"},"data":[0.0,0.0,0.0,0.0,0.0,0.0,0.0,0.0,0.0,0.0,0.0,0.0,0.0,0.0,0.0,0.0,0.0,0.0,0.0,0.0,0.0,0.0,0.0,0.0,0.0,0.0,0.0,0.0,0.0,0.0,0.0,0.0,0.0,0.0,0.0,0.0,0.0,0.0,0.0,0.0,0.0,0.0,0.0,0.0,0.0,0.0,0.0,0.0,0.0,0.0,0.0,0.0,0.0,0.0,0.0,0.0,0.0,0.0,0.0,0.0,0.0,0.0,0.0,0.0,0.0,0.0,0.0,0.0,0.0,0.0,0.0,0.0,0.0,0.0,0.0,0.0,0.0,0.0,0.0,0.0,0.0,0.0,0.0,0.0,0.0,0.0,0.0,0.0,0.0,0.0,0.0,0.0,0.0,0.0,0.0,0.0,0.0,0.0,0.0,0.0,0.0,0.0,0.0,0.0,0.0,0.0,0.0,0.0,0.0,0.0,0.0,0.0,0.0,0.0,0.0,0.0,0.0,0.0,0.0,0.0,0.0,0.0,0.0,0.0,0.0,0.0,0.0,0.0,0.0,0.0,0.0,0.0,0.0,0.0,0.0,0.0,0.0,0.0,0.0,0.0,0.0,0.0,0.0,0.0,0.0,0.0,0.0,0.0,0.0,0.0,0.0,0.0,0.0,0.0,0.0,0.0,0.0,0.0,0.0,0.0,0.0,0.0,0.0,0.0,0.0,0.0,0.0,0.0,0.0,0.0,0.0,0.0,0.0,0.0,0.0,0.0,0.0,0.0,0.0,0.0,0.0,0.0,0.0,0.0,0.0,0.0,0.0,0.0,0.0,0.0,0.0,0.0,0.0,0.0,0.0,0.0,0.0,0.0,0.0,0.0,0.0,0.0,0.0,0.0,0.0,0.0,0.0,0.0,0.0,0.0,0.0,0.0,0.0,0.0,0.0,0.0,0.0,0.0,0.0,0.0,0.0,0.0,0.0,0.0,0.0,0.0,0.0,0.0,0.0,0.0,0.0,0.0,0.0,0.0,0.0,0.0,0.0,0.0,0.0,0.0,0.0,0.0,0.0,0.0,0.0,0.0,0.0,0.0,0.0,0.0,0.0,0.0,0.0,0.0,0.0,0.0,0.0,0.0,0.0,0.0,0.0,0.0,0.0,0.0,0.0,0.0,0.0,0.0,0.0,0.0,0.0,0.0,0.0,0.0,0.0,0.0,0.0,0.0,0.0,0.0,0.0,0.0,0.0,0.0,0.0,0.0,0.0,0.0,0.0,0.0,0.0,0.0,0.0,0.0,0.0,0.0,0.0,0.0,0.0,0.0,0.0,0.0,0.0,0.0,0.0,0.0,0.0,0.0,0.0,0.0,0.0,0.0,0.0,0.0,0.0,0.0,0.0,0.0,0.0,0.0,0.0,0.0,0.0,0.0,0.0,0.0,0.0,0.0,0.0,0.0,0.0,0.0,0.0,0.0,0.0,0.0,0.0,0.0,0.0,0.0,0.0,0.0,0.0,0.0,0.0,0.0,0.0,0.0,0.0,0.0,0.0,0.0,0.0,0.0,0.0,0.0,0.0,0.0,0.0,0.0,0.0,0.0,0.0,0.0,0.0,0.0,0.0,0.0,0.0,0.0,0.0,0.0,0.0,0.0,0.0,0.0,0.0,0.0,0.0,0.0,0.0,0.0,0.0,0.0,0.0,0.0,0.0,0.0,0.0,0.0,0.0,0.0,0.0,0.0,0.0,0.0,0.0,0.0,0.0,0.0,0.0,0.0,0.0,0.0,0.0,0.0,0.0,0.0,0.0,0.0,0.0,0.0,0.0,0.0,0.0,0.0,0.0,0.0,0.0,0.0,0.0,0.0,0.0,0.0,0.0,0.0,0.0,0.0,0.0,0.0,0.0,0.0,0.0,0.0,0.0,0.0,0.0,0.0,0.0,0.0,0.0,0.0,0.0,0.0,0.0,0.0,0.0,0.0,0.0,0.0,0.0,0.0,0.0,0.0,0.0,0.0,0.0,0.0,0.0,0.0,0.0,0.0,0.0,0.0,0.0,0.0,0.0,0.0,0.0,0.0,0.0,0.0,0.0,0.0,0.0,0.0,0.0,0.0,0.0,0.0,0.0,0.0,0.0,0.0,0.0,0.0,0.0,0.0,0.0,0.0,0.0,0.0,0.0,0.0,0.0,0.0,0.0,0.0,0.0,0.0,0.0,0.0,0.0,0.0,0.0,0.0,0.0,0.0,0.0,0.0,0.0,0.0,0.0,0.0,0.0,0.0,0.0,0.0,0.0,0.0,0.0,0.0,0.0,0.0,0.0,0.0,0.0,0.0,0.0,0.0,0.0,0.0,0.0,0.0,0.0,0.0,0.0,0.0,0.0,0.0,0.0,0.0,0.0,0.0,0.0,0.0,0.0,0.0,0.0,0.0,0.0,0.0,0.0,0.0,0.0,0.0,0.0,0.0,0.0,0.0,0.0,0.0,0.0,0.0,0.0,0.0,0.0,0.0,0.0,0.0,0.0,0.0,0.0,0.0,0.0,0.0,0.0,0.0,0.0,0.0,0.0,0.0,0.0,0.0,0.0,0.0,0.0,0.0,0.0,0.0,0.0,0.0,0.0,0.0,0.0,0.0,0.0,0.0,0.0,0.0,0.0,0.0,0.0,0.0,0.0,0.0,0.0,0.0,0.0,0.0,0.0,0.0,0.0,0.0,0.0,0.0,0.0,0.0,0.0,0.0,0.0,0.0,0.0,0.0,0.0,0.0,0.0,0.0,0.0,0.0,0.0,0.0,0.0,0.0,0.0,0.0,0.0,0.0,0.0,0.0,0.0,0.0,0.0,0.0,0.0,0.0,0.0,0.0,0.0,0.0,0.0,0.0,0.0,0.0,0.0,0.0,0.0,0.0,0.0,0.0,0.0,0.0,0.0,0.0,0.0,0.0,0.0,0.0,0.0,0.0,0.0,0.0,0.0,0.0,0.0,0.0,0.0,0.0,0.0,0.0,0.0,0.0,0.0,0.0,0.0,0.0,0.0,0.0,0.0,0.0,0.0,0.0,0.0,0.0,0.0,0.0,0.0,0.0,0.0,0.0,0.0,0.0,0.0,0.0,0.0,0.0,0.0,0.0,0.0,0.0,0.0,0.0,0.0,0.0,0.0,0.0,0.0,0.0,0.0,0.0,0.0,0.0,0.0,0.0,0.0,0.0,0.0,0.0,0.0,0.0,0.0,0.0,0.0,0.0,0.0,0.0,0.0,0.0,0.0,0.0,0.0,0.0,0.0,0.0,0.0,0.0,0.0,0.0,0.0,0.0,0.0,0.0,0.0,0.0,0.0,0.0,0.0,0.0,0.0,0.0,0.0,0.0,0.0,0.0,0.0,0.0,0.0,0.0,0.0,0.0,0.0,0.0,0.0,0.0,0.0,0.0,0.0,0.0,0.0,0.0,0.0,0.0,0.0,0.0,0.0,0.0,0.0,0.0,0.0,0.0,0.0,0.0,0.0,0.0,0.0,0.0,0.0,0.0,0.0,0.0,0.0,0.0,0.0,0.0,0.0,0.0,0.0,0.0,0.0,0.0,0.0,0.0,0.0,0.0,0.0,0.0,0.0,0.0,0.0,0.0,0.0,0.0,0.0,0.0,0.0,0.0,0.0,0.0,0.0,0.0,0.0,0.0,0.0,0.0,0.0,0.0,0.0,0.0,0.0,0.0,0.0,0.0,0.0,0.0,0.0,0.0,0.0,0.0,0.0,0.0,0.0,0.0,0.0,0.0,0.0,0.0,0.0,0.0,0.0,0.0,0.0,0.0,0.0,0.0,0.0,0.0,0.0,0.0,0.0,0.0,0.0,0.0,0.0,0.0,0.0,0.0,0.0,0.0,0.0,0.0,0.0,0.0,0.0,0.0,0.0,0.0,0.0,0.0,0.0,0.0,0.0,0.0,0.0,0.0,0.0,0.0,0.0,0.0,0.0,0.0,0.0,0.0,0.0,0.0,0.0,0.0,0.0,0.0,0.0,0.0,0.0,0.0,0.0,0.0,0.0,0.0,0.0,0.0,0.0,0.0,0.0,0.0,0.0,0.0,0.0,0.0,0.0,0.0,0.0,0.0,0.0,0.0,0.0,0.0,0.0,0.0,0.0,0.0,0.0,0.0,0.0,0.0,0.0,0.0,0.0,0.0,0.0,0.0,0.0,0.0,0.0,0.0,0.0,0.0,0.0,0.0,0.0,0.0,0.0,0.0,0.0,0.0,0.0,0.0,0.0,0.0,0.0,0.0,0.0,0.0,0.0,0.0,0.0,0.0,0.0,0.0,0.0,0.0,0.0,0.0,0.0,0.0,0.0,0.0,0.0,0.0,0.0,0.0,0.0,0.0,0.0,0.0,0.0,0.0,0.0,0.0,0.0,0.0,0.0,0.0,0.0,0.0,0.0,0.0,0.0,0.0,0.0,0.0,0.0,0.0,0.0,0.0,0.0,0.0,0.0,0.0,0.0,0.0,0.0,0.0,0.0,0.0,0.0,0.0,0.0,0.0,0.0,0.0,0.0,0.0,0.0,0.0,0.0,0.0,0.0,0.0,0.0,0.0,0.0,0.0,0.0,0.0,0.0,0.0,0.0,0.0,0.0,0.0,0.0,0.0,0.0,0.0,0.0,0.0,0.0,0.0,0.0,0.0,0.0,0.0,0.0,0.0,0.0,0.0,0.0,0.0,0.0,0.0,0.0,0.0,0.0,0.0,0.0,0.0,0.0,0.0,0.0,0.0,0.0,0.0,0.0,0.0,0.0,0.0,0.0,0.0,0.0,0.0,0.0,0.0,0.0,0.0,0.0,0.0,0.0,0.0,0.0,0.0,0.0,0.0,0.0,0.0,0.0,0.0,0.0,0.0,0.0,0.0,0.0,0.0,0.0,0.0,0.0,0.0,0.0,0.0,0.0,0.0,0.0,0.0,0.0,0.0,0.0,0.0,0.0,0.0,0.0,0.0,0.0,0.0,0.0,0.0,0.0,0.0,0.0,0.0,0.0,0.0,0.0,0.0,0.0,0.0,0.0,0.0,0.0,0.0,0.0,0.0,0.0,0.0,0.0,0.0,0.0,0.0,0.0,0.0,0.0,0.0,0.0,0.0,0.0,0.0,0.0,0.0,0.0,0.0,0.0,0.0,0.0,0.0,0.0,0.0,0.0,0.0,0.0,0.0,0.0,0.0,0.0,0.0,0.0,0.0,0.0,0.0,0.0,0.0,0.0,0.0,0.0,0.0,0.0,0.0,0.0,0.0,0.0,0.0,0.0,0.0,0.0,0.0,0.0,0.0,0.0,0.0,0.0,0.0,0.0,0.0,0.0,0.0,0.0,0.0,0.0,0.0,0.0,0.0,0.0,0.0,0.0,0.0,0.0,0.0,0.0,0.0,0.0,0.0,0.0,0.0,0.0,0.0,0.0,0.0,0.0,0.0,0.0,0.0,0.0,0.0,0.0,0.0,0.0,0.0,0.0,0.0,0.0,0.0,0.0,0.0,0.0,0.0,0.0,0.0,0.0,0.0,0.0,0.0,0.0,0.0,0.0,0.0,0.0,0.0,0.0,0.0,0.0,0.0,0.0,0.0,0.0,0.0,0.0,0.0,0.0,0.0,0.0,0.0,0.0,0.0,0.0,0.0,0.0,0.0,0.0,0.0,0.0,0.0,0.0,0.0,0.0,0.0,0.0,0.0,0.0,0.0,0.0,0.0,0.0,0.0,0.0,0.0,0.0,0.0,0.0,0.0,0.0,0.0,0.0,0.0,0.0,0.0,0.0,0.0,0.0,0.0,0.0,0.0,0.0,0.0,0.0,0.0,0.0,0.0,0.0,0.0,0.0,0.0,0.0,0.0,0.0,0.0,0.0,0.0,0.0,0.0,0.0,0.0,0.0,0.0,0.0,0.0,0.0,0.0,0.0,0.0,0.0,0.0,0.0,0.0,0.0,0.0,0.0,0.0,0.0,0.0,0.0,0.0,0.0,0.0,0.0,0.0,0.0,0.0,0.0,0.0,0.0,0.0,0.0,0.0,0.0,0.0,0.0,0.0,0.0,0.0,0.0,0.0,0.0,0.0,0.0,0.0,-0.2922,0.0,0.0,0.0,0.0,0.0,0.0,0.0,0.0,0.0,0.0,0.0,0.0,0.0,0.0,0.0,0.0,0.0,0.0,0.0,0.0,0.0,0.0,0.0,0.0,0.1232,0.1236,0.1288,0.1176,0.1084,0.1015,0.0,0.0,0.0,0.0,0.0,0.0652,0.086,0.0878,0.0692,0.073,0.076,0.0803,0.0802,0.0732,0.0651,0.0,0.0,0.0,0.0,0.0,0.0,0.0,0.0,0.0,0.0,0.0,0.0,0.0,0.0,0.0,0.0,0.0,0.0,0.0,0.0,0.0,0.0,0.0,0.0,0.0,0.0,0.0,0.0,0.0,0.0,0.0,0.0,0.0,0.0,0.0,0.0,0.0,0.0,0.0,0.0,0.0,0.0,0.0,0.0,0.0,0.0,0.0,0.0,0.0,0.0,0.0,0.0,0.0,0.0,0.0,0.0,0.0,0.0,0.0,0.0,0.0,0.0,0.0,0.0,0.0,0.0,0.0,0.0,0.0,0.0,0.0,-0.3175,0.0,0.0,0.0,0.0,0.0,0.0,0.0,0.0,0.0,0.0,0.0,0.0,0.0,0.0,0.0,0.0,0.0,0.0,0.0,0.0,0.0,0.1055,0.1267,0.1207,0.1174,0.1271,0.113,0.1007,0.0882,0.0879,0.0,0.0,0.0,0.0699,0.0727,0.0727,0.0756,0.0815,0.0836,0.0862,0.0944,0.1,0.0932,0.0764,0.0744,0.0,0.0,0.0,0.0,0.0,0.0,0.0,0.0,0.0,0.0,0.0,0.0,0.0,0.0,0.0,0.0,0.0,0.0,0.0,0.0,0.0,0.0,0.0,0.0,0.0,0.0,0.0,0.0,0.0,0.0,0.0,0.0,0.0,0.0,0.0,0.0,0.0,0.0,0.0,0.0,0.0,0.0,0.0,0.0,0.0,0.0,0.0,0.0,0.0,0.0,0.0,0.0,0.0,0.0,0.0,0.0,0.0,0.0,0.0,0.0,0.0,0.0,0.0,0.0,0.0,-0.332,-0.3696,-0.3735,-0.342,-0.3268,-0.3239,-0.3337,0.0,0.0,0.0,0.0,0.0,0.0,0.0,0.0,0.0,0.0,0.0,0.0,0.0,0.0,0.0,0.0,0.0,0.0,0.0,0.0,0.101,0.1262,0.1079,0.1008,0.1198,0.0976,0.0839,0.0814,0.0808,0.0,0.0698,0.0697,0.0731,0.0782,0.0782,0.0812,0.0899,0.0952,0.1003,0.1063,0.1067,0.1057,0.103,0.093,0.0868,0.0863,0.0,0.0,0.0,0.0,0.0,0.0,0.0,0.0,0.0,0.0,0.0,0.0,0.0,0.0,0.0,0.0,0.0,0.0,0.0,0.0,0.0,0.0,0.0,0.0,0.0,0.0,0.0,0.0,0.0,0.0,0.0,0.0,0.0,0.0,0.0,0.0,0.0,0.0,0.0,0.0,0.0,-0.1727,-0.2125,0.0,0.0,0.0,0.0,0.0,0.0,0.0,0.0,0.0,0.0,0.0,0.0,0.0,0.0,-0.3325,-0.3444,-0.3495,-0.3522,-0.3716,-0.3759,-0.3732,-0.377,-0.373,-0.3587,-0.3552,0.0,-0.3783,-0.3562,0.0,0.0,0.0,0.0,0.0,0.0,0.0,0.0,0.0,0.0,0.0,0.0,0.0,0.0,0.0,0.0,0.0,0.0,0.0,0.0,0.0,0.0561,0.0552,0.0642,0.0416,0.0444,0.0842,0.0849,0.0818,0.077,0.0745,0.0775,0.0789,0.0839,0.0922,0.1003,0.1108,0.1181,0.1224,0.1202,0.12,0.1221,0.1168,0.1072,0.0945,0.0889,0.0,0.0,0.0,0.0,0.0,0.0,0.0,0.0,0.0,0.0,0.0,0.0,0.0,0.0,0.0,0.0,0.0,0.0,0.0,0.0,0.0,0.0,0.0,0.0,0.0,0.0,0.0,0.0,0.0,0.0,0.0,0.0,0.0,0.0,0.0,0.0,0.0,0.0,0.0,-0.1674,-0.2131,-0.2226,-0.2437,-0.2501,0.0,0.0,0.0,0.0,0.0,0.0,0.0,0.0,0.0,-0.3324,-0.3371,-0.3479,-0.3663,-0.374,-0.3805,-0.3819,-0.3989,-0.4074,-0.4037,-0.4084,-0.4071,-0.4035,-0.4026,-0.3962,-0.3955,-0.3789,-0.3946,-0.4311,0.0,0.0,0.0,0.0,0.0,-0.5334,0.0,0.0,0.0,0.0,0.0,0.0,0.0,0.0,0.0,0.0,0.0,0.0,-0.007,-0.0158,-0.0143,-0.0145,-0.0303,-0.0183,0.0317,0.0525,0.0604,0.0542,0.0707,0.0803,0.0836,0.0917,0.1009,0.1109,0.1236,0.1296,0.1325,0.1305,0.1346,0.1324,0.1317,0.1218,0.1087,0.1,0.0917,0.0843,0.0,0.0,0.0,0.0,0.0,0.0,0.0,0.0,0.0,0.0,0.0,0.0,0.0,0.0,0.0,0.0,0.0,0.0,0.0,0.0,0.0,0.0,0.0,0.0,0.0,0.0,0.0,0.0,0.0,0.0,0.0,0.0,0.0,0.0,0.0,0.0,0.0,-0.2124,-0.2439,-0.2371,-0.2678,-0.2772,0.0,0.0,0.0,0.0,0.0,0.0,-0.3281,-0.335,-0.3467,-0.3689,-0.3679,-0.3808,-0.3967,-0.3971,-0.4014,-0.4061,-0.4173,-0.4206,-0.4208,-0.4271,-0.4324,-0.4363,-0.4295,-0.4179,-0.4006,-0.396,-0.4054,-0.4256,-0.4597,-0.5005,0.0,-0.5559,-0.5753,-0.5987,0.0,0.0,0.0,0.0,0.0,0.0,0.0,0.0,0.0,0.0,0.0,-0.07,-0.0754,-0.0983,-0.111,-0.105,-0.1155,-0.1237,-0.1198,-0.0521,-0.0138,-0.0159,0.0461,0.0818,0.09,0.1023,0.1113,0.1207,0.1258,0.1315,0.1386,0.1387,0.1387,0.1384,0.1315,0.1308,0.1274,0.1153,0.1066,0.0997,0.0929,0.0,0.0,0.0,0.0,0.0,0.0,0.0,0.0,0.0,0.0,0.0,0.0,0.0,0.0,0.0,0.0,0.0,0.0,0.0,0.0,0.0,0.0,0.0,0.0,0.0,0.0,0.0,0.0,0.0,0.0,0.0,0.0,0.0,0.0,0.0,0.0,0.0,0.0,-0.2763,-0.3117,0.0,0.0,0.0,0.0,-0.316,-0.3283,-0.3416,-0.356,-0.3689,-0.382,-0.3883,-0.3928,-0.4061,-0.4202,-0.4202,-0.4202,-0.4285,-0.4291,-0.4293,-0.4293,-0.4297,-0.4259,-0.4229,-0.4225,-0.4124,-0.3978,-0.3864,-0.388,-0.4023,-0.3984,-0.4725,-0.5825,-0.5607,-0.614,-0.6971,0.0,0.0,0.0,0.0,0.0,-0.0303,-0.0219,-0.0352,-0.0371,-0.0136,-0.0245,-0.057,-0.1189,-0.1375,-0.1554,-0.1782,-0.1845,-0.1712,-0.134,-0.0555,-0.0148,-0.0146,0.0512,0.0945,0.1085,0.1126,0.1208,0.1259,0.135,0.139,0.1419,0.1419,0.1419,0.1418,0.1365,0.1381,0.1376,0.1214,0.1117,0.1068,0.0935,0.0867,0.0,0.0,0.0,0.0,0.0,0.0,0.0,0.0,0.0,0.0,0.0,0.0,0.0,0.0,0.0,0.0,0.0,0.0,0.0,0.0,0.0,0.0,0.0,0.0,0.0,0.0,0.0,0.0,0.0,0.0,0.0,0.0,0.0,0.0,0.0,0.0,0.0,-0.3169,-0.3385,0.0,0.0,-0.336,-0.3507,-0.3567,-0.3656,-0.3812,-0.4046,-0.4089,-0.4177,-0.4328,-0.4365,-0.4398,-0.4476,-0.4371,-0.4357,-0.4342,-0.4342,-0.4342,-0.4389,-0.4449,-0.4459,-0.4476,-0.4476,-0.4344,-0.42,-0.4134,-0.4238,-0.4403,-0.4363,-0.502,-0.5954,-0.5853,-0.6344,-0.7018,0.0,0.0,0.0,0.0,-0.0623,-0.0605,-0.0605,-0.075,-0.0822,-0.0653,-0.0824,-0.1208,-0.1922,-0.2121,-0.2317,-0.2588,-0.2625,-0.2359,-0.1675,-0.0872,-0.0312,-0.0062,0.0589,0.1048,0.1179,0.1221,0.1281,0.1319,0.1391,0.1415,0.1391,0.1391,0.1391,0.1391,0.1391,0.1379,0.1399,0.131,0.1213,0.1114,0.1002,0.0955,0.0929,0.0,0.0,0.0,0.0,0.0,0.0,0.0,0.0,0.0,0.0,0.0,0.0,0.0,0.0,0.0,0.0,0.0,0.0,0.0,0.0,0.0,0.0,0.0,0.0,0.0,0.0,0.0,0.0,0.0,0.0,0.0,0.0,0.0,0.0,0.0,-0.3385,-0.3444,-0.3665,-0.3765,-0.3646,-0.3767,-0.3891,-0.3983,-0.4046,-0.4171,-0.4379,-0.4391,-0.4447,-0.4616,-0.4621,-0.4621,-0.4621,-0.4512,-0.4465,-0.4388,-0.4388,-0.4374,-0.4391,-0.4453,-0.4479,-0.4479,-0.4479,-0.4412,-0.43,-0.43,-0.4357,-0.4463,-0.4428,-0.489,-0.5616,-0.584,-0.6333,-0.6911,0.0,0.0,0.0,-0.0409,-0.0624,-0.0808,-0.0808,-0.1251,-0.1661,-0.1859,-0.2289,-0.2686,-0.2952,-0.323,-0.3399,-0.3399,-0.3442,-0.3166,-0.2381,-0.1559,-0.0804,-0.0065,0.0665,0.109,0.1177,0.1235,0.1334,0.1393,0.1423,0.1392,0.1392,0.1392,0.1391,0.1391,0.1391,0.1391,0.1388,0.1403,0.1324,0.1212,0.1149,0.1157,0.1184,0.0,0.0,0.0,0.0,0.0,0.0,0.0,0.0,0.0,0.0,0.0,0.0,0.0,0.0,0.0,0.0,0.0,0.0,0.0,0.0,0.0,0.0,0.0,0.0,0.0,0.0,0.0,0.0,0.0,0.0,0.0,0.0,0.0,-0.3206,-0.3433,-0.3602,-0.3608,-0.3963,-0.4114,-0.3938,-0.4155,-0.4344,-0.4386,-0.4392,-0.4479,-0.4619,-0.4625,-0.4625,-0.4629,-0.4629,-0.4629,-0.4629,-0.4625,-0.4532,-0.4396,-0.4394,-0.4391,-0.4304,-0.4304,-0.4302,-0.43,-0.43,-0.43,-0.43,-0.43,-0.4251,-0.421,-0.4075,-0.4353,-0.4902,-0.5551,-0.6146,-0.6725,0.0,0.0,-0.0457,-0.0657,-0.0753,-0.0858,-0.0992,-0.1342,-0.158,-0.1549,-0.1977,-0.2394,-0.2608,-0.283,-0.3081,-0.3362,-0.3326,-0.3214,-0.3114,-0.2206,-0.1442,-0.0885,-0.0111,0.0317,0.0335,0.1018,0.1395,0.1456,0.1464,0.1468,0.1468,0.1468,0.1457,0.1391,0.1391,0.1391,0.139,0.1381,0.1391,0.1332,0.1228,0.1201,0.1187,0.0,0.0,0.0,0.0,0.0,0.0,0.0,0.0,0.0,0.0,0.0,0.0,0.0,0.0,0.0,0.0,0.0,0.0,0.0,0.0,0.0,0.0,0.0,0.0,0.0,0.0,0.0,0.0,0.0,0.0,0.0,0.0,-0.3479,-0.3479,-0.3711,-0.393,-0.4099,-0.4261,-0.4369,-0.4385,-0.4453,-0.4508,-0.4532,-0.4534,-0.4575,-0.4667,-0.4671,-0.47,-0.4761,-0.4763,-0.4763,-0.4763,-0.4702,-0.4659,-0.4632,-0.4565,-0.4487,-0.4352,-0.4352,-0.4361,-0.43,-0.43,-0.43,-0.43,-0.43,-0.4285,-0.4257,-0.4169,-0.4455,-0.5023,-0.5688,-0.6583,-0.7486,0.0,-0.0403,-0.0459,-0.064,-0.068,-0.0773,-0.106,-0.1306,-0.1544,-0.1712,-0.2098,-0.243,-0.2607,-0.2789,-0.2995,-0.3228,-0.3213,-0.3084,-0.2795,-0.2036,-0.1487,-0.1259,-0.0866,-0.0419,0.0,0.053,0.1039,0.148,0.1493,0.15,0.15,0.15,0.1483,0.1454,0.1454,0.1447,0.1391,0.1391,0.1381,0.1401,0.132,0.1261,0.125,0.1346,0.1362,0.1316,0.131,0.1279,0.1219,0.1306,0.0,0.0,0.0,0.0,0.0,0.0,0.0,0.0,0.0,0.0,0.0,0.0,0.0,0.0,0.0,0.0,0.0,0.0,0.0,0.0,0.0,0.0,0.0,0.0,-0.3487,-0.3863,-0.3901,-0.4044,-0.4197,-0.434,-0.4471,-0.4571,-0.4624,-0.4661,-0.4683,-0.4683,-0.4683,-0.4706,-0.4759,-0.4761,-0.4783,-0.4782,-0.4784,-0.4784,-0.4784,-0.4736,-0.4743,-0.4708,-0.4655,-0.4561,-0.4388,-0.4388,-0.4385,0.0,-0.43,-0.43,-0.43,-0.43,-0.43,0.0,0.0,0.0,0.0,0.0,-0.6805,-0.7866,0.0,-0.0407,-0.0435,-0.0492,-0.052,-0.0655,-0.1043,-0.1231,-0.154,-0.2131,-0.2413,-0.2596,-0.2749,-0.2884,-0.2951,-0.2915,-0.3011,-0.2741,-0.202,-0.1652,-0.1516,-0.159,-0.1625,-0.1151,-0.0175,-0.0045,0.051,0.1491,0.1375,0.1387,0.1531,0.1387,0.1373,0.1485,0.1482,0.1466,0.1395,0.1392,0.1391,0.1388,0.1406,0.136,0.1298,0.1437,0.1505,0.1528,0.1585,0.1575,0.1512,0.1533,0.0,0.0,0.0,0.0,0.0,0.0,0.0,0.0,0.0,0.0,0.0,0.0,0.0,0.0,0.0,0.0,0.0,0.0,0.0,0.0,0.0,0.0,0.0,0.0,-0.406,-0.427,-0.4316,-0.4338,-0.4375,-0.441,-0.461,-0.4712,-0.4722,-0.474,-0.4784,-0.4784,-0.4784,-0.4784,-0.4784,0.0,0.0,0.0,0.0,-0.4784,-0.4784,-0.4784,-0.4746,-0.4724,-0.4724,-0.4632,-0.4419,-0.4419,-0.4416,-0.433,-0.4318,-0.4314,-0.4314,-0.4304,-0.43,-0.43,-0.43,-0.4297,-0.448,-0.5616,-0.6857,0.0,0.0,-0.045,-0.0478,-0.0491,-0.0635,-0.0824,-0.106,-0.1361,-0.1703,-0.2154,-0.2188,-0.2266,-0.2454,-0.2374,-0.2287,-0.2265,-0.2243,-0.2301,-0.246,-0.2893,-0.3206,-0.3304,-0.2787,-0.2063,-0.114,-0.0368,0.0517,0.1603,0.073,0.0731,0.1563,0.0682,0.0724,0.1516,0.1491,0.1478,0.147,0.1401,0.1391,0.139,0.1384,0.1348,0.1332,0.1463,0.1493,0.1532,0.1631,0.1611,0.1547,0.1748,0.1577,0.1288,0.1243,0.1119,0.0,0.0,0.0,0.0,0.0,0.0,0.0,0.0,0.0,0.0,0.0,0.0,0.0,0.0,0.0,0.0,0.0,0.0,0.0,-0.392,-0.4208,-0.4414,-0.4506,-0.4583,-0.4636,-0.4655,-0.4687,-0.4734,-0.4754,-0.4774,-0.4784,-0.4784,-0.4784,-0.4784,-0.4784,-0.4784,0.0,-0.4784,-0.4784,-0.4784,-0.4784,-0.4784,-0.4776,-0.476,0.0,0.0,-0.4657,-0.4657,-0.4606,-0.4516,-0.444,-0.4364,-0.4356,-0.433,-0.43,-0.43,-0.43,-0.4645,-0.525,-0.6057,-0.6761,-0.7427,-0.0454,-0.0483,-0.0502,-0.0499,-0.0588,-0.0723,-0.0925,-0.1231,-0.1527,-0.1766,-0.1958,-0.2037,-0.2063,-0.1964,-0.198,-0.2132,-0.2289,-0.2475,-0.269,-0.3273,-0.3687,-0.3826,-0.3619,-0.3071,-0.2181,-0.1716,-0.071,0.087,0.0295,0.0547,0.1594,0.1045,0.1084,0.1547,0.1517,0.1495,0.1478,0.1448,0.1391,0.1391,0.1391,0.1356,0.1302,0.1519,0.1592,0.1577,0.1725,0.1659,0.1561,0.1839,0.1721,0.1468,0.1597,0.139,0.1068,0.0,0.0,0.0,0.0,0.0,0.0,0.0,0.0,0.0,0.0,0.0,0.0,0.0,0.0,-0.2712,0.0,0.0,-0.4144,-0.4281,-0.4455,-0.4587,-0.4634,-0.4716,-0.4755,-0.4714,-0.4747,-0.4738,-0.478,-0.4784,-0.4784,-0.4784,-0.4784,-0.4784,-0.4784,-0.4784,-0.4784,-0.4784,-0.4784,-0.4784,-0.4784,-0.4784,-0.4784,-0.4784,-0.4784,-0.474,-0.4708,-0.4708,-0.4659,-0.4614,-0.4475,-0.4388,-0.4382,-0.4336,-0.43,-0.43,-0.43,-0.4746,-0.546,-0.5769,-0.6521,-0.7429,-0.05,-0.0501,-0.0493,-0.05,-0.0504,-0.0571,-0.0773,-0.1039,-0.1262,-0.1375,-0.1644,-0.1785,-0.1627,-0.1556,-0.1662,-0.2009,-0.241,-0.2657,-0.2695,-0.3283,-0.3695,-0.3796,-0.4122,-0.3859,-0.2884,-0.2941,-0.2,0.0096,-0.0198,0.0353,0.1617,0.1364,0.14,0.1619,0.1588,0.1556,0.1478,0.1494,0.1436,0.1391,0.1391,0.1313,0.1221,0.143,0.1472,0.1492,0.1563,0.1479,0.1348,0.1631,0.1576,0.1406,0.1571,0.1359,0.0985,0.0856,0.0342,0.0,0.0,0.0,0.0,0.0,0.0,0.0,0.0,0.0,-0.1856,-0.2064,-0.2669,-0.3238,-0.3316,-0.3901,-0.4426,-0.4575,-0.4673,-0.4732,-0.4732,-0.4742,-0.4754,-0.4718,-0.4783,-0.4784,-0.4784,-0.4784,-0.4784,-0.4784,-0.4784,-0.4784,-0.4784,-0.4784,-0.4784,-0.4784,-0.4784,-0.4784,-0.4784,-0.4784,-0.4784,-0.4784,-0.4784,-0.475,-0.4732,-0.4732,-0.4694,-0.4618,-0.4528,-0.4421,-0.4384,-0.4355,-0.4314,-0.43,-0.43,-0.4656,-0.5193,-0.5327,-0.621,-0.733,0.0,-0.0499,-0.05,-0.0504,-0.0504,-0.0571,-0.0773,-0.0886,-0.1046,-0.137,-0.1276,-0.124,-0.1335,-0.1092,-0.1044,-0.1367,-0.1868,-0.2199,-0.2257,-0.3224,-0.3669,-0.3467,-0.398,-0.3839,-0.2854,-0.2916,-0.1965,0.0098,-0.0898,-0.0403,0.1566,0.0605,0.0699,0.1619,0.178,0.1746,0.1525,0.1675,0.1615,0.1391,0.1391,0.1138,0.0758,0.08,0.09,0.094,0.0651,0.056,0.0545,0.0709,0.0655,0.047,0.01,-0.0033,-0.0064,-0.0191,-0.03,-0.0368,-0.0387,-0.0756,-0.123,-0.1432,-0.1521,-0.1758,0.0,0.0,-0.3054,-0.3749,-0.4096,-0.4229,-0.4249,-0.4491,-0.4669,-0.4689,-0.4765,-0.477,-0.477,-0.4778,-0.4754,-0.4718,-0.4783,-0.4784,-0.4784,-0.4784,-0.4784,-0.4784,-0.4784,-0.4784,-0.4784,-0.4784,-0.4784,-0.4784,-0.4784,-0.4784,-0.4784,-0.4784,-0.4784,-0.4784,-0.4784,-0.4778,-0.477,-0.477,-0.4764,-0.4752,-0.4714,-0.4585,-0.4388,-0.4378,-0.4373,-0.43,-0.43,-0.4344,-0.4523,-0.5149,-0.5858,-0.6609,0.0,-0.0504,-0.0504,-0.0504,-0.0504,-0.0521,-0.0605,-0.0775,-0.0916,-0.0941,-0.103,-0.1077,-0.1021,-0.1047,-0.1073,-0.1027,-0.1601,-0.2044,-0.2196,-0.2741,-0.3098,-0.3287,-0.3394,-0.3241,-0.2858,-0.3242,-0.2676,-0.1183,-0.1304,-0.0585,0.0976,0.1171,0.1459,0.1785,0.1987,0.1913,0.171,0.1947,0.1974,0.1839,0.1391,0.1093,0.084,0.0207,0.0,0.0113,0.0334,0.0325,0.0,0.0573,0.0557,0.0384,0.0256,0.0032,-0.0188,-0.0216,-0.0611,-0.1112,-0.1376,-0.1986,-0.2556,-0.2549,-0.2753,-0.3102,-0.35,-0.3692,-0.3849,-0.4186,-0.4432,-0.4577,-0.4524,-0.4661,-0.4781,0.0,-0.4762,-0.4784,-0.4784,-0.4742,-0.4749,-0.4712,-0.4741,-0.4761,-0.4761,-0.4756,-0.4784,-0.4784,-0.4784,-0.4784,-0.4784,-0.4784,-0.4784,-0.4784,-0.4784,-0.4784,-0.4784,-0.4784,-0.4784,-0.4784,-0.4784,-0.4784,-0.4784,-0.4784,-0.4758,-0.4759,-0.4724,-0.4634,-0.4512,-0.441,-0.4368,-0.4373,-0.432,-0.43,-0.4344,-0.4656,-0.5191,-0.5955,0.0,-0.0504,-0.0504,-0.0504,-0.0504,-0.0504,-0.0504,-0.0687,-0.0761,-0.0625,-0.0821,-0.0941,-0.0795,-0.0988,-0.1085,-0.0957,-0.1448,-0.1839,-0.1989,-0.2307,-0.2601,-0.2849,-0.283,-0.2841,-0.2885,-0.3284,-0.2959,-0.1894,-0.1508,-0.0714,0.0428,0.143,0.1855,0.1702,0.2143,0.2169,0.1926,0.2168,0.2147,0.1868,0.1334,0.0906,0.0577,-0.0243,-0.0614,-0.0606,-0.0178,-0.0103,-0.0164,0.0128,0.0156,0.0061,0.0123,-0.0123,-0.0401,-0.0399,-0.0957,-0.1679,-0.2101,-0.2817,-0.3457,-0.3446,-0.3788,-0.4128,-0.4263,-0.433,-0.4375,-0.4375,-0.4532,-0.4651,-0.4633,-0.4675,-0.4771,-0.4746,-0.475,-0.4758,-0.478,-0.4763,-0.47,-0.4673,-0.4671,-0.4671,-0.4671,-0.4771,-0.4784,-0.4784,-0.4784,-0.4784,-0.4784,-0.4784,-0.4784,-0.4784,-0.4784,-0.4784,-0.4784,-0.4784,-0.4784,-0.4784,-0.4784,-0.4784,-0.4784,-0.4784,-0.4752,-0.4743,-0.4743,-0.4694,-0.4602,-0.4512,-0.4413,-0.438,-0.4334,-0.43,-0.43,-0.43,-0.4746,-0.5473,0.0,0.0,-0.0504,-0.0504,-0.0504,-0.0504,-0.0504,-0.0564,-0.0612,-0.0605,-0.0656,-0.0709,-0.0695,-0.0721,-0.0861,-0.1253,-0.136,-0.1443,-0.1502,-0.2091,-0.2311,-0.2036,-0.2514,-0.282,-0.2823,-0.2942,-0.2496,-0.1434,-0.1461,-0.0952,0.0143,0.0858,0.118,0.1158,0.213,0.2426,0.2201,0.2424,0.1951,0.113,0.113,0.046,-0.0472,-0.0472,-0.074,-0.1078,-0.1045,-0.1008,-0.0959,-0.0959,-0.0909,-0.0861,-0.0918,-0.0957,-0.0999,-0.1055,-0.1429,-0.1833,-0.2118,-0.2776,-0.35,-0.3879,-0.4182,-0.44,-0.454,-0.4608,-0.461,-0.461,-0.4619,-0.4623,-0.4621,-0.4625,-0.461,-0.4698,-0.4712,-0.4741,-0.4772,-0.4763,-0.4675,-0.4635,-0.4625,-0.4625,0.0,-0.4732,-0.4784,-0.4784,-0.4784,-0.4784,-0.4784,-0.4784,-0.4784,-0.4784,-0.4784,-0.4784,-0.4784,-0.4784,-0.4784,-0.4784,-0.4784,-0.4784,-0.4784,-0.4784,-0.4782,-0.478,-0.478,-0.4783,-0.4698,-0.4606,-0.4516,-0.438,-0.4334,-0.43,-0.43,-0.43,-0.4746,-0.5416,0.0,0.0,0.0,-0.0504,-0.0504,-0.0504,-0.0504,-0.0564,-0.0594,-0.0605,-0.0652,0.0,0.0,0.0,0.0,0.0,-0.103,-0.118,-0.1409,-0.1502,-0.1615,-0.1783,-0.1801,-0.1802,-0.1788,-0.2184,-0.2215,-0.1869,-0.1399,-0.0965,-0.0615,0.0891,0.1242,0.0695,0.1632,0.1667,0.1031,0.1676,0.1554,0.091,0.0841,0.0369,-0.032,-0.0381,-0.0532,-0.0588,0.0,-0.0434,-0.0925,-0.0935,-0.0921,-0.0915,-0.0925,-0.0928,-0.1007,-0.1374,-0.1828,-0.2305,-0.2851,-0.3465,-0.3996,-0.4338,-0.4504,-0.4624,-0.4657,-0.4663,-0.4612,-0.4428,-0.4438,-0.4447,-0.4373,-0.4404,-0.4512,-0.4604,-0.4669,-0.4738,-0.4772,-0.4763,-0.4698,-0.4667,-0.4663,0.0,0.0,0.0,0.0,-0.4776,-0.4783,-0.4775,-0.478,-0.4784,-0.4784,-0.4784,-0.4784,-0.4784,-0.4784,-0.4784,-0.4784,-0.4784,-0.4784,-0.4784,-0.4784,-0.4784,-0.4784,-0.4784,-0.4784,-0.4768,-0.4781,-0.4632,-0.4555,-0.4512,-0.4359,-0.43,-0.4306,-0.4367,-0.4526,-0.4799,0.0,0.0,0.0,0.0,0.0,0.0,0.0,0.0,0.0,0.0,0.0,0.0,0.0,0.0,0.0,0.0,0.0,-0.0974,-0.1202,-0.1102,-0.1145,-0.1429,-0.1312,-0.1217,-0.1237,-0.1583,-0.1769,-0.1784,-0.1297,-0.1099,-0.1067,0.0417,0.0749,0.0205,0.1083,0.1123,0.0615,0.119,0.1071,0.0495,0.0596,0.0271,-0.0265,-0.0179,-0.0134,0.0,0.0337,0.0089,-0.0462,-0.0593,-0.0757,-0.0899,-0.0911,-0.1031,-0.1272,-0.1638,-0.2094,-0.2646,-0.3278,-0.3777,-0.4181,-0.4561,-0.4665,-0.4708,-0.4708,-0.4632,-0.4504,-0.4297,-0.4249,-0.42,-0.4095,-0.412,-0.4257,-0.4444,-0.4524,-0.4626,-0.476,-0.4763,-0.4708,-0.4708,-0.4679,-0.4673,0.0,0.0,0.0,-0.477,-0.4783,-0.4777,-0.478,-0.4784,-0.4784,-0.4784,-0.4784,-0.4784,-0.4784,-0.4784,-0.4784,-0.4784,-0.4784,-0.4784,-0.4784,-0.4784,-0.4784,-0.4784,-0.4784,-0.4784,-0.477,-0.4645,-0.4621,-0.4602,-0.4371,-0.43,-0.431,-0.4356,-0.4388,-0.4484,0.0,0.0,0.0,0.0,0.0,0.0,0.0,0.0,0.0,0.0,0.0,0.0,0.0,0.0,0.0,0.0,0.0,0.0,-0.0885,-0.0893,-0.0936,-0.0992,-0.1051,-0.1082,-0.1082,-0.1146,-0.1213,-0.1204,-0.1204,-0.1219,-0.1287,-0.0507,-0.0195,-0.0195,0.0585,0.0898,0.0858,0.0897,0.0539,-0.0038,0.0439,0.0246,-0.0301,0.0162,0.0372,0.0412,0.0471,0.0433,0.0336,-0.0056,-0.0508,-0.0912,-0.0943,-0.129,-0.169,-0.1836,-0.2275,-0.2843,-0.3493,-0.3776,-0.4068,-0.4572,-0.4712,-0.4706,-0.4698,-0.4485,-0.4265,-0.4165,-0.4004,-0.385,0.0,0.0,-0.3911,-0.4222,-0.4293,-0.4428,-0.473,-0.4763,-0.4714,0.0,0.0,0.0,0.0,0.0,0.0,-0.4772,0.0,-0.478,-0.4784,-0.4784,-0.4784,-0.4784,-0.4784,-0.4784,-0.4784,-0.4784,-0.4784,-0.4784,-0.4784,-0.4784,-0.4784,-0.4784,-0.4784,-0.4784,-0.4784,-0.4784,-0.477,-0.4645,-0.4621,-0.4602,-0.4371,-0.43,-0.431,-0.4362,-0.4392,-0.4402,0.0,0.0,0.0,0.0,0.0,0.0,0.0,0.0,0.0,0.0,0.0,0.0,0.0,0.0,0.0,0.0,0.0,0.0,-0.0822,-0.0868,-0.0916,-0.0931,-0.098,-0.1023,-0.1023,-0.1084,-0.1137,-0.111,-0.111,-0.1149,-0.1123,-0.0107,0.0143,-0.0316,0.0752,0.0928,0.0491,0.0947,0.0742,0.0178,0.0848,0.0735,0.0167,0.0762,0.073,0.0501,0.1235,0.1037,0.0338,-0.0115,-0.0609,-0.11,-0.1466,-0.1445,-0.1571,-0.2713,-0.2981,-0.3071,-0.408,-0.4409,-0.452,-0.4726,-0.4755,-0.4673,-0.4489,-0.4349,-0.4122,-0.3826,-0.3679,-0.3552,0.0,0.0,0.0,-0.3965,-0.4226,0.0,-0.4708,-0.4777,0.0,-0.4752,0.0,-0.4777,-0.475,-0.4781,0.0,0.0,-0.4775,-0.4769,-0.478,-0.4784,-0.4784,-0.4784,-0.4784,-0.4784,-0.4784,-0.4784,-0.4784,-0.4784,-0.4784,-0.4784,-0.4784,-0.4784,-0.4784,-0.4784,-0.4784,-0.4784,-0.477,-0.4645,-0.4621,-0.4602,-0.4371,-0.43,-0.4318,-0.4479,-0.4493,-0.4413,0.0,0.0,0.0,0.0,0.0,0.0,0.0,0.0,0.0,0.0,0.0,0.0,0.0,0.0,0.0,0.0,0.0,0.0,0.0,-0.0823,-0.0864,-0.0904,-0.0939,-0.0944,-0.0944,-0.1003,-0.1017,-0.1017,-0.1031,-0.107,-0.1037,-0.0395,-0.0197,-0.0324,0.0297,0.0493,0.0356,0.0713,0.0622,0.0,0.0,0.1002,0.0696,0.1267,0.1141,0.0778,0.1354,0.0907,0.0,-0.0252,0.0,-0.114,-0.1491,-0.1566,-0.1723,-0.2641,0.0,-0.3424,-0.41,-0.4354,-0.4421,-0.4428,-0.4195,-0.3917,-0.3773,-0.3622,-0.3403,-0.3079,-0.3065,0.0,-0.2908,-0.3192,0.0,0.0,0.0,0.0,-0.4671,-0.4781,-0.4784,0.0,-0.4784,0.0,-0.4784,-0.4784,-0.4784,0.0,-0.474,-0.4783,-0.4782,-0.4784,-0.4784,-0.4784,-0.4784,-0.4784,-0.4784,-0.4784,-0.4784,-0.4784,-0.4784,-0.4784,-0.4784,-0.4784,-0.4784,-0.4784,0.0,-0.4784,-0.477,-0.4645,-0.4621,-0.4602,-0.4371,-0.43,-0.4316,-0.4459,-0.4455,-0.4408,0.0,0.0,0.0,0.0,0.0,0.0,0.0,0.0,0.0,0.0,0.0,0.0,0.0,0.0,0.0,0.0,0.0,0.0,0.0,0.0,-0.082,-0.0904,-0.0909,-0.0898,-0.0898,-0.0895,-0.0907,-0.0907,-0.0963,-0.0976,-0.0976,-0.0915,-0.064,-0.0213,-0.0152,0.0152,0.0579,0.0518,0.0518,0.0608,0.0947,0.1142,0.1226,0.0,0.1403,0.101,0.0954,0.0356,-0.0387,-0.0412,-0.0707,-0.116,-0.1364,-0.1641,-0.1968,-0.2234,-0.292,-0.3634,-0.3765,-0.3834,-0.3915,-0.389,-0.3428,-0.3,-0.2893,-0.2738,-0.2503,-0.2304,0.0,-0.249,-0.248,-0.2815,-0.3241,-0.3707,0.0,-0.4267,-0.4638,-0.4765,-0.4772,-0.4782,-0.4784,-0.4784,-0.4784,-0.4784,-0.4784,-0.4784,-0.4784,-0.4784,-0.4784,-0.4784,-0.4784,-0.4784,-0.4784,-0.4784,-0.4784,-0.4784,-0.4784,-0.4784,-0.4784,-0.4784,-0.4784,-0.4784,-0.4784,-0.4784,0.0,0.0,-0.4756,-0.464,-0.4612,-0.4538,-0.4367,-0.43,-0.431,-0.4356,-0.4377,-0.4336,0.0,0.0,0.0,0.0,0.0,0.0,0.0,0.0,0.0,0.0,-0.0726,-0.0697,0.0,0.0,0.0,0.0,0.0,0.0,0.0,0.0,0.0,-0.0904,-0.0909,-0.0898,-0.0898,-0.0902,-0.0905,-0.0905,-0.0911,-0.0913,-0.0913,-0.0513,-0.0114,0.0285,0.0685,0.1113,0.1542,0.1142,0.1199,0.1542,0.122,0.133,0.1641,0.135,0.0,0.0,0.014,-0.0115,-0.0335,-0.0373,-0.0779,-0.1362,-0.181,-0.1739,-0.17,-0.261,-0.2699,-0.2686,-0.3183,-0.3323,-0.3316,-0.3351,-0.319,-0.2943,-0.2794,-0.2591,0.0,0.0,-0.2077,-0.2071,-0.2236,-0.2464,-0.2832,-0.3451,-0.3771,-0.4099,-0.4534,-0.4673,-0.4755,0.0,0.0,0.0,0.0,0.0,0.0,0.0,0.0,0.0,-0.4784,-0.4784,-0.4784,-0.4784,-0.4784,-0.4784,-0.4784,-0.4784,-0.4784,-0.4784,-0.4784,-0.4784,-0.4784,-0.4784,-0.4784,-0.4784,0.0,0.0,-0.4722,-0.4616,-0.4528,-0.4449,-0.434,-0.43,-0.431,-0.4356,-0.4377,-0.4328,0.0,0.0,0.0,0.0,0.0,0.0,0.0,-0.0638,-0.074,-0.0694,-0.0755,-0.0783,-0.0767,-0.0714,-0.0697,0.0,0.0,0.0,0.0,0.0,0.0,0.0,-0.0909,-0.0898,-0.0898,-0.0913,0.0,0.0,0.0,0.0,0.0,0.0,0.0,0.0,0.0,0.1122,0.1769,0.1291,0.1234,0.1403,0.1178,0.1234,0.1403,0.0,0.0,0.0,-0.0421,-0.0608,-0.0672,-0.0689,-0.0966,-0.1289,-0.1653,-0.1587,-0.1489,-0.2047,-0.2285,-0.2428,-0.272,-0.2804,-0.2756,-0.2725,-0.2466,-0.2139,-0.1972,0.0,0.0,0.0,-0.1538,-0.1684,-0.1937,-0.2274,0.0,-0.3245,-0.3544,-0.3865,-0.4361,-0.4469,0.0,-0.4758,0.0,0.0,0.0,0.0,0.0,0.0,0.0,0.0,-0.4784,-0.4784,-0.4784,-0.4784,-0.4784,-0.4784,-0.4784,-0.4784,-0.4784,-0.4784,-0.4784,-0.4784,-0.4784,-0.4784,-0.4784,-0.4782,0.0,0.0,-0.4698,-0.4559,-0.4475,-0.438,-0.4334,-0.43,-0.4304,-0.4349,-0.4336,-0.4326,0.0,0.0,0.0,0.0,0.0,0.0,0.0,-0.0575,-0.0679,-0.0567,-0.0703,-0.0773,-0.0751,-0.0725,-0.071,0.0,0.0,0.0,0.0,0.0,0.0,0.0,0.0,-0.0898,-0.0898,0.0,0.0,0.0,0.0,0.0,0.0,0.0,0.0,0.0,0.0,0.0,0.0,0.1262,0.1094,0.0,0.0,0.0,0.0,0.0,0.0,0.0,0.0,-0.0928,-0.0974,-0.098,-0.107,-0.1187,-0.1281,-0.1361,-0.1414,-0.1451,-0.1832,-0.2233,-0.2202,-0.2238,-0.22,-0.2165,-0.1775,-0.1351,-0.1238,-0.1097,0.0,-0.0916,-0.1066,-0.1318,-0.1624,-0.2046,-0.2502,0.0,-0.3265,-0.363,-0.4167,-0.4275,-0.4424,0.0,0.0,0.0,0.0,0.0,0.0,0.0,0.0,0.0,0.0,-0.4784,-0.4784,-0.4784,-0.4784,-0.4784,-0.4784,-0.4784,-0.4784,-0.4784,-0.4784,-0.4784,-0.4784,-0.4784,-0.4784,-0.478,0.0,0.0,0.0,-0.4455,-0.4378,-0.4352,-0.4326,-0.43,-0.43,-0.43,-0.43,-0.4326,0.0,0.0,0.0,0.0,0.0,0.0,0.0,-0.0409,-0.0433,-0.0434,-0.0427,-0.0502,-0.0611,-0.0731,-0.0777,0.0,0.0,0.0,0.0,0.0,0.0,0.0,0.0,0.0,0.0,0.0,0.0,0.0,0.0,0.0,0.0,0.0,0.0,0.0,0.0,0.0,0.0,0.0,0.0,0.0,0.0,0.0,0.0,0.0,0.0,0.0,0.0,0.0,-0.0915,-0.0973,0.0,-0.1016,-0.1117,-0.1201,-0.1326,-0.1382,0.0,0.0,-0.1653,-0.1693,-0.1652,-0.1589,-0.1503,-0.1351,-0.1238,0.0,-0.0976,-0.0916,-0.0926,-0.101,-0.129,-0.1633,-0.2038,-0.258,-0.2986,-0.3404,-0.3942,-0.4197,-0.4404,-0.4687,0.0,0.0,0.0,0.0,0.0,0.0,0.0,0.0,0.0,-0.4784,-0.4784,-0.4784,-0.4784,-0.4784,-0.4784,-0.4784,-0.4784,-0.4784,-0.4784,-0.4784,-0.4784,-0.4784,-0.4784,-0.478,0.0,0.0,0.0,-0.4477,-0.4385,-0.431,-0.4302,-0.43,-0.43,-0.43,-0.43,-0.4326,0.0,0.0,0.0,0.0,0.0,0.0,-0.0356,-0.0373,-0.0388,-0.034,-0.0481,-0.0589,-0.0645,-0.0698,-0.0728,-0.0703,0.0,0.0,0.0,0.0,0.0,0.0,0.0,0.0,0.0,0.0,0.0,0.0,0.0,0.0,0.0,0.0,0.0,0.0,0.0,0.0,0.0,0.0,0.0,0.0,0.0,0.0,0.0,0.0,0.0,0.0,0.0,0.0,0.0,0.0,0.0,0.0,-0.0957,-0.1029,-0.1123,0.0,-0.1351,-0.1436,-0.1478,-0.1525,-0.1548,-0.144,-0.1403,-0.1303,-0.117,0.0,-0.0986,-0.0913,-0.0898,-0.0982,-0.1262,-0.1569,-0.194,-0.2419,-0.2703,-0.2945,-0.3078,-0.3073,-0.3022,0.0,0.0,0.0,0.0,0.0,0.0,0.0,0.0,0.0,0.0,-0.4784,-0.4784,-0.4784,-0.4784,-0.4784,-0.4784,-0.4784,-0.4784,-0.4784,-0.4784,-0.4784,-0.4784,-0.4784,-0.4758,-0.4753,0.0,0.0,0.0,-0.4391,-0.4332,-0.43,-0.43,-0.43,-0.43,-0.43,-0.43,-0.4326,0.0,0.0,0.0,0.0,0.0,-0.0354,-0.0313,-0.0295,-0.0273,-0.0273,-0.0442,-0.058,-0.0608,-0.0611,-0.0601,-0.0623,-0.0634,0.0,0.0,0.0,0.0,0.0,0.0,0.0,0.0,0.0,0.0,0.0,0.0,0.0,0.0,0.0,0.0,0.0,0.0,0.0,0.0,0.0,0.0,0.0,0.0,0.0,0.0,0.0,0.0,0.0,0.0,0.0,0.0,0.0,0.0,-0.0901,-0.0901,-0.0935,-0.0998,-0.1114,-0.1264,-0.1359,-0.1355,-0.1408,-0.144,-0.139,-0.1355,-0.126,-0.1147,-0.1052,-0.0971,-0.091,-0.0898,-0.0954,-0.115,-0.1513,-0.189,-0.2166,-0.2352,-0.2457,-0.2405,-0.2161,0.0,0.0,0.0,0.0,0.0,0.0,0.0,0.0,0.0,0.0,0.0,-0.4784,-0.4784,-0.4784,-0.4784,-0.4784,-0.4784,-0.4784,-0.4784,-0.4784,-0.4784,-0.4784,-0.4782,-0.4758,-0.4765,0.0,0.0,0.0,0.0,-0.4336,-0.43,-0.43,-0.43,-0.4316,-0.4336,-0.431,-0.4316,-0.4361,0.0,0.0,0.0,0.0,0.0,0.0,-0.0291,-0.0136,-0.0049,-0.0185,-0.0213,-0.0266,-0.0399,-0.04,-0.0406,-0.0406,-0.0461,0.0,0.0,0.0,0.0,0.0,0.0,0.0,0.0,0.0,-0.0912,-0.0913,-0.0913,0.0,0.0,0.0,0.0,0.0,0.0,0.0,0.0,0.0,0.0,0.0,0.0,0.0,0.0,0.0,0.0,0.0,0.0,0.0,0.0,0.0,0.0,0.0,0.0,-0.089,-0.0937,-0.1053,-0.1187,-0.1312,-0.129,-0.1348,-0.1384,-0.1398,-0.1365,-0.1272,-0.1142,-0.1052,-0.0971,-0.091,-0.0898,-0.0898,-0.0898,-0.14,-0.179,-0.1818,-0.1869,-0.1963,-0.21,-0.1755,0.0,0.0,0.0,0.0,0.0,0.0,0.0,0.0,0.0,0.0,0.0,0.0,-0.4784,-0.4784,-0.4784,-0.4784,-0.4784,-0.4784,-0.4784,-0.4784,-0.4784,-0.4784,-0.478,-0.4749,0.0,0.0,0.0,0.0,0.0,-0.4336,-0.43,-0.43,-0.43,-0.4355,-0.4376,-0.4332,-0.4357,-0.44,0.0,0.0,0.0,0.0,0.0,0.0,0.0,-0.0275,-0.0226,-0.0319,-0.0347,-0.035,-0.0384,-0.032,-0.0263,-0.0263,-0.0378,0.0,0.0,0.0,0.0,0.0,0.0,0.0,0.0,0.0,-0.0913,-0.0913,-0.0913,-0.0924,-0.0973,-0.0923,0.0,0.0,0.0,0.0,0.0,0.0,0.0,0.0,0.0,0.0,0.0,0.0,0.0,0.0,0.0,0.0,0.0,0.0,0.0,0.0,0.0,0.0,0.0,-0.0952,-0.1044,-0.1168,-0.115,-0.1198,-0.127,-0.1219,-0.1169,-0.115,-0.1046,-0.0992,-0.0917,-0.0906,-0.0898,-0.0898,-0.0898,-0.1205,-0.1565,-0.1932,-0.1718,-0.1466,-0.1415,0.0,0.0,0.0,0.0,0.0,0.0,0.0,0.0,0.0,0.0,0.0,0.0,0.0,-0.4784,-0.4784,-0.4784,-0.4784,-0.4784,-0.4784,-0.4784,-0.4784,-0.4784,-0.4754,-0.4747,-0.4722,0.0,0.0,0.0,0.0,0.0,-0.431,-0.43,-0.43,-0.43,-0.4316,-0.4338,-0.431,-0.4316,-0.4355,0.0,0.0,0.0,0.0,0.0,0.0,0.0,-0.0235,-0.0227,-0.0316,-0.0319,-0.0326,-0.0319,-0.0239,-0.0188,-0.0119,-0.0191,0.0,0.0,0.0,0.0,0.0,0.0,0.0,-0.0813,-0.0814,-0.0861,-0.093,-0.093,-0.0945,-0.1005,-0.0955,-0.0934,-0.0883,0.0,0.0,0.0,0.0,0.0,0.0,0.0,0.0,0.0,0.0,0.0,0.0,0.0,0.0,0.0,0.0,0.0,0.0,0.0,0.0,0.0,0.0,-0.0956,-0.1026,-0.1048,-0.1123,-0.1151,-0.1113,-0.098,-0.0818,-0.0749,-0.0693,-0.0671,-0.0649,-0.0785,-0.0898,-0.0898,-0.0982,-0.1194,-0.1508,-0.1081,-0.0651,0.0,0.0,0.0,0.0,0.0,0.0,0.0,0.0,0.0,0.0,0.0,0.0,0.0,0.0,-0.418,-0.418,-0.4582,-0.4784,-0.4784,-0.4784,-0.4784,-0.4784,-0.4752,-0.4759,-0.4706,0.0,0.0,0.0,0.0,0.0,0.0,-0.43,-0.43,-0.43,-0.43,-0.432,-0.4351,-0.4351,-0.4373,-0.4416,0.0,0.0,0.0,0.0,0.0,0.0,0.0,-0.0055,-0.0076,-0.0187,-0.021,-0.0196,-0.0189,-0.0184,-0.0137,0.0,0.0,0.0,0.0,0.0,0.0,0.0,0.0,0.0,-0.07,-0.0701,-0.0811,-0.0988,-0.0988,-0.1005,-0.1004,-0.1002,-0.0971,-0.0917,-0.0915,0.0,0.0,0.0,0.0,0.0,0.0,0.0,0.0,0.0,0.0,0.0,0.0,0.0,0.0,0.0,0.0,0.0,0.0,0.0,0.0,0.0,0.0,0.0,0.0,-0.1044,-0.1065,-0.103,-0.0717,-0.0349,-0.0278,-0.024,0.0,-0.0169,-0.0505,-0.0814,-0.0788,-0.0702,-0.0619,-0.0653,-0.0087,0.0,0.0,0.0,0.0,0.0,0.0,0.0,0.0,0.0,0.0,0.0,0.0,0.0,0.0,0.0,0.0,-0.3173,-0.4175,-0.4726,-0.4784,-0.4784,-0.4784,-0.4782,-0.4749,-0.4706,-0.4694,0.0,0.0,0.0,0.0,0.0,0.0,-0.43,-0.43,-0.43,-0.43,-0.4351,-0.438,-0.4386,-0.4489,-0.4575,0.0,0.0,0.0,0.0,0.0,0.0,0.0,0.0,0.0,0.0,-0.0274,-0.0193,-0.0204,-0.0113,-0.0045,0.0,0.0,0.0,0.0,0.0,0.0,0.0,0.0,0.0,-0.0701,-0.0701,-0.0811,-0.0988,-0.0988,-0.1015,-0.1065,-0.1011,-0.0982,-0.0977,-0.0924,-0.0636,0.0,0.0,0.0,0.0,0.0,0.0,0.0,0.0,0.0,0.0,0.0,0.0,0.0,0.0,0.0,0.0,0.0,0.0,0.0,0.0,-0.0902,-0.0911,-0.0926,0.0,-0.0847,-0.0502,-0.0321,-0.0174,0.0,0.0228,0.0227,0.0253,0.0168,0.0113,0.0174,0.0143,0.0058,-0.0191,0.0,0.0,0.0,0.0,0.0,0.0,0.0,0.0,0.0,0.0,0.0,0.0,0.0,0.0,0.0,0.0,0.0,-0.3173,-0.3377,-0.392,-0.4782,-0.4784,-0.4784,-0.4782,-0.4749,-0.4671,-0.46,0.0,0.0,0.0,0.0,0.0,0.0,-0.43,-0.43,-0.43,-0.43,-0.4312,-0.434,-0.4364,-0.4402,-0.4469,0.0,0.0,0.0,0.0,0.0,0.0,0.0,0.0,0.0,0.0,0.0,-0.0105,-0.0112,-0.0045,0.0,0.0,0.0,0.0,0.0,0.0,0.0,0.0,0.0,-0.0331,-0.0561,-0.0561,-0.0695,-0.0988,-0.0988,-0.1012,-0.1057,-0.1054,-0.1022,-0.0967,-0.0906,-0.0628,0.0,0.0,0.0,0.0,0.0,0.0,0.0,0.0,0.0,0.0,-0.0588,-0.0756,0.0,-0.0904,-0.0914,-0.0898,0.0,0.0,0.0,0.0,-0.0867,-0.0805,-0.0627,-0.0568,-0.0469,-0.023,0.0143,0.0488,0.0717,0.0737,0.0729,0.0729,0.0561,0.0423,0.0459,0.0632,0.0708,0.0,0.0991,0.0,0.0,0.0,0.0,0.0,0.0,0.0,0.0,0.0,0.0,0.0,0.0,0.0,0.0,0.0,0.0,0.0,-0.2196,-0.3219,-0.4726,-0.4734,-0.4714,-0.4712,-0.4626,-0.4557,-0.4506,0.0,0.0,0.0,0.0,0.0,-0.43,-0.43,-0.4324,-0.4361,-0.4361,-0.4387,-0.4436,-0.4526,-0.4534,-0.4504,0.0,0.0,0.0,0.0,0.0,0.0,0.0,0.0,0.0,0.0,0.0,0.0,0.0,0.0,0.0,0.0,0.0,0.0,0.0,0.0,0.0,0.0,0.0,-0.0135,-0.042,-0.0393,-0.0608,-0.0988,-0.0993,-0.1011,-0.1008,-0.1069,-0.1035,-0.0919,-0.0918,-0.0591,0.0,0.0,0.0,0.0,0.0,0.0,0.0,0.0,0.0,0.0,0.0,0.0,0.0,-0.0872,-0.0893,-0.089,-0.0885,0.0,0.0,0.0,0.0,0.0,-0.0212,0.0,0.0088,0.0088,0.0646,0.1207,0.1288,0.1259,0.1206,0.1206,0.0898,0.0619,0.0653,0.102,0.0,0.0,0.0,0.0,0.0,0.0,0.0,0.0,0.0,0.0,0.0,0.0,0.0,0.0,0.0,0.0,0.0,0.0,0.0,0.0,-0.0957,-0.234,-0.413,-0.4315,-0.4429,-0.4619,-0.4479,-0.4388,-0.4386,-0.434,0.0,0.0,0.0,0.0,-0.43,-0.4314,-0.4365,-0.439,-0.4404,-0.4504,-0.4629,-0.4659,-0.4638,-0.4581,0.0,0.0,0.0,0.0,0.0,0.0,0.0,0.0,0.0,0.0,0.0,0.0,0.0,0.0,0.0,0.0,0.0,0.0,0.0,0.0,0.0,0.0,0.0,-0.0162,-0.0476,-0.0421,-0.0608,-0.0988,-0.1014,-0.1042,-0.1069,-0.11,-0.1067,-0.098,-0.092,-0.0461,0.028,0.0,0.0,0.0,0.0,0.0,0.0,0.0,0.0,0.0,0.0,0.0,0.0,-0.0814,-0.086,-0.0881,-0.0829,0.0,0.0,0.0,0.0,0.0,0.0191,0.0658,0.0995,0.0939,0.1068,0.1288,0.1623,0.1691,0.1685,0.1685,0.1629,0.1626,0.1745,0.1831,0.1934,0.0,0.0,0.0,0.0,0.0,0.0,0.0,0.0,0.0,0.0,0.0,0.0,0.0,0.0,0.0,0.0,0.0,0.0,0.0,0.0,-0.0744,-0.1724,-0.2786,-0.3757,-0.4619,-0.4479,-0.4388,-0.4386,-0.434,-0.43,0.0,0.0,0.0,-0.4306,-0.4383,-0.4376,-0.4396,-0.452,-0.4559,-0.4623,-0.4635,-0.4631,-0.4563,0.0,0.0,0.0,0.0,0.0,0.0,0.0,0.0,0.0,0.0,0.0,0.0,0.0,0.0,0.0,0.0,0.0,0.0,0.0,0.0,0.0,0.0,0.0,-0.0107,-0.0345,-0.0403,-0.0595,-0.0886,-0.101,-0.1055,-0.1052,-0.1001,-0.0948,-0.0894,-0.0646,-0.0256,0.0196,0.0421,0.0,0.0,0.0,0.0,0.0,0.0,0.0,0.0,0.0,0.0,0.0,0.0,-0.084,-0.0903,-0.0862,0.0,0.0,0.0,0.0,0.0,0.0,0.0348,0.0671,0.1093,0.1446,0.1735,0.1958,0.1995,0.197,0.197,0.197,0.1977,0.1998,0.0,0.2149,0.2241,0.0,0.0,0.0,0.0,0.0,0.0,0.0,0.0,0.0,0.0,0.0,0.0,0.0,0.0,0.0,0.0,0.0,0.0,0.0,0.0,-0.0182,-0.0733,-0.184,-0.3456,-0.356,-0.3861,-0.4359,-0.4318,-0.43,0.0,0.0,-0.4326,-0.4375,-0.4372,-0.4447,-0.4587,-0.463,-0.4673,-0.4702,-0.4608,-0.454,-0.4485,0.0,0.0,0.0,0.0,0.0,0.0,0.0,0.0,0.0,0.0,0.0,0.0,0.0,0.0,0.0,0.0,0.0,0.0,0.0,0.0,0.0,0.0,0.0,-0.008,-0.0206,-0.0412,-0.0605,-0.0767,-0.0992,-0.0998,-0.0749,-0.0653,-0.0518,-0.0304,-0.0058,0.0169,0.0392,0.0673,0.0701,0.0,0.0,0.0,0.0,0.0,0.0,0.0,0.0,0.0,0.0,0.0,0.0,0.0,0.0,0.0,0.0,-0.0706,-0.0625,-0.0484,-0.0072,0.0077,0.0296,0.0983,0.153,0.1949,0.2167,0.2141,0.2107,0.2152,0.2149,0.2128,0.2063,0.2201,0.0,0.0,0.0,0.0,0.0,0.0,0.0,0.0,0.0,0.0,0.0,0.0,0.0,0.0,0.0,0.0,0.0,0.0,0.0,0.0,0.0,0.0,0.1119,0.1074,0.0,-0.2104,-0.2463,-0.291,-0.3491,-0.3941,-0.4041,-0.3922,-0.4193,-0.4383,-0.4423,-0.4348,-0.4391,-0.4512,-0.4387,-0.4358,-0.4358,-0.4407,-0.4297,-0.4211,0.0,0.0,0.0,0.0,0.0,0.0,0.0,0.0,0.0,0.0,0.0,0.0,0.0,0.0,0.0,0.0,0.0,0.0,0.0,0.0,0.0,0.0,0.0,-0.008,-0.0294,-0.0442,-0.0569,-0.0712,-0.0982,-0.0739,-0.0067,0.0133,0.0543,0.115,0.085,0.1007,0.1426,0.0336,0.0336,0.0951,0.0,0.0,0.0,0.0,0.0,0.0,0.0,0.0,0.0,0.0,0.0,0.0,0.0,0.0,-0.0731,-0.0428,-0.0294,-0.0145,0.0337,0.0451,0.0514,0.0694,0.1003,0.1427,0.2049,0.2141,0.2145,0.2245,0.2236,0.2212,0.2264,0.2451,0.0,0.0,0.0,0.0,0.0,0.0,0.0,0.0,0.0,0.0,0.0,0.0,0.0,0.0,0.0,0.0,0.0,0.0,0.0,0.0,0.0,0.0,0.2378,0.2199,0.112,-0.085,-0.1522,-0.1566,-0.1028,-0.2822,-0.3303,-0.2806,-0.3915,-0.4477,-0.4569,-0.4118,-0.3959,-0.3927,-0.3501,-0.3257,-0.3196,-0.3598,-0.3705,-0.3728,0.0,0.0,0.0,0.0,0.0,0.0,0.0,0.0,0.0,0.0,0.0,0.0,0.0,0.0,0.0,0.0,0.0,0.0,0.0,0.0,0.0,0.0,0.0,-0.0026,-0.0114,-0.0297,-0.0404,-0.0457,-0.0622,-0.0426,0.0196,0.0315,0.0729,0.1438,0.1524,0.1613,0.1706,0.1427,0.1204,0.1063,0.0513,0.0,0.0,0.0,0.0,0.0,0.0,0.0,0.0,0.0,-0.0773,-0.0791,-0.0801,-0.0805,-0.078,-0.0659,-0.0569,-0.0463,-0.0286,-0.0309,-0.0277,0.0114,0.0209,0.0511,0.1633,0.185,0.1928,0.2394,0.2482,0.2462,0.2409,0.0,0.0,0.0,0.0,0.0,0.0,0.0,0.0,0.0,0.0,0.0,0.0,0.0,0.0,0.0,0.0,0.0,0.0,0.0,0.0,0.0,0.0,0.0,0.0,0.2694,0.2288,0.1524,0.0313,-0.0402,-0.0716,-0.1477,-0.1901,-0.2122,-0.2585,-0.3105,-0.3636,-0.3426,-0.3394,-0.3431,-0.3222,-0.3067,-0.3036,-0.3524,-0.3653,-0.3676,0.0,0.0,0.0,0.0,0.0,0.0,0.0,0.0,0.0,0.0,0.0,0.0,0.0,0.0,0.0,0.0,0.0,0.0,0.0,0.0,0.0,0.0,0.0,0.0,0.0,-0.0147,-0.0215,-0.0259,-0.0158,0.0157,0.0688,0.0988,0.1488,0.2168,0.2289,0.2238,0.2071,0.2043,0.1726,0.1266,0.093,0.0717,0.0,0.0,0.0,0.0,0.0,0.0,0.0,0.0,-0.0718,-0.0707,-0.0772,-0.0772,-0.0742,-0.0799,-0.0763,-0.0724,-0.0724,-0.0814,-0.0802,-0.0447,-0.0483,-0.0298,0.0869,0.1384,0.1736,0.2257,0.2519,0.2617,0.2575,0.0,0.0,0.0,0.0,0.0,0.0,0.0,0.0,0.0,0.0,0.0,0.0,0.0,0.0,0.0,0.0,0.0,0.0,0.0,0.0,0.0,0.0,0.0,0.0,0.2956,0.2946,0.2901,0.1887,0.1074,0.0403,-0.018,-0.064,-0.0932,-0.1305,-0.1853,-0.2397,-0.2448,-0.2545,-0.2669,-0.2616,-0.2574,-0.2587,-0.303,-0.3178,-0.3229,0.0,0.0,0.0,0.0,0.0,0.0,0.0,0.0,0.0,0.0,0.0,0.0,0.0,0.0,0.0,0.0,0.0,0.0,0.0,0.0,0.0,0.0,0.0,0.0,0.0,0.0,-0.0057,-0.0206,0.0411,0.0969,0.1527,0.2316,0.3029,0.3583,0.3244,0.2965,0.2663,0.193,0.1648,0.1622,0.0768,0.0641,0.0,0.0,0.0,0.0,0.0,0.0,0.0,0.0,-0.0675,-0.0524,-0.0738,-0.0713,-0.0625,-0.0748,-0.0806,-0.0806,-0.0806,-0.0855,-0.0887,-0.0891,-0.0937,-0.0833,-0.0259,0.0758,0.1636,0.175,0.2264,0.2692,0.2692,0.2694,0.0,0.0,0.0,0.0,0.0,0.0,0.0,0.0,0.0,0.0,0.0,0.0,0.0,0.0,0.0,0.0,0.0,0.0,0.0,0.0,0.0,0.0,0.0,0.3036,0.3004,0.3004,0.2947,0.292,0.2831,0.0961,0.0467,0.0951,-0.0238,-0.0817,-0.0927,-0.1198,-0.138,-0.1522,-0.1492,-0.148,-0.1569,-0.2035,-0.2199,-0.2287,0.0,0.0,0.0,0.0,0.0,0.0,0.0,0.0,0.0,0.0,0.0,0.0,0.0,0.0,0.0,0.0,0.0,0.0,0.0,0.0,0.0,0.0,0.0,0.0,0.0,0.0,-0.0028,-0.0059,0.0558,0.1132,0.1731,0.2382,0.3018,0.3585,0.3499,0.3165,0.2691,0.2465,0.195,0.1268,0.1304,0.1154,0.0,0.0,0.0,0.0,0.0,0.0,0.0,0.0,0.0,0.0,-0.0509,-0.0495,-0.0476,-0.0515,-0.0581,-0.0652,-0.066,-0.0766,-0.0924,-0.0954,-0.1045,-0.1111,-0.0958,-0.0276,0.0448,0.092,0.1135,0.1204,0.1204,0.0,0.0,0.0,0.0,0.0,0.0,0.0,0.0,0.0,0.0,0.0,0.0,0.0,0.0,0.0,0.0,0.0,0.0,0.0,0.0,0.0,0.0,0.0,0.0,0.0,0.3004,0.3004,0.2987,0.2979,0.2933,0.2396,0.1915,0.1523,0.1189,0.0716,0.0096,-0.0423,-0.0972,-0.1416,-0.1453,-0.1449,-0.149,-0.1946,-0.2151,-0.2189,0.0,0.0,0.0,0.0,0.0,0.0,0.0,0.0,0.0,0.0,0.0,0.0,0.0,0.0,0.0,0.0,0.0,0.0,0.0,0.0381,0.0271,0.0276,0.0096,0.0,0.0,0.0,0.0081,0.0278,0.0886,0.1379,0.1808,0.26,0.3202,0.3613,0.3613,0.3307,0.28,0.2718,0.2208,0.1479,0.1763,0.1581,0.1156,0.0,0.0,0.0,0.0,0.0,0.0,0.0,0.0,0.0,-0.0372,-0.0353,-0.0334,-0.0448,-0.0541,-0.062,-0.0686,-0.0796,-0.0926,-0.1009,-0.1086,-0.117,-0.1295,-0.0735,-0.0042,0.0577,0.0661,0.061,0.0615,0.0,0.0,0.0,0.0,0.0,0.0,0.0,0.0,0.0,0.0,0.0,0.0,0.0,0.0,0.0,0.0,0.0,0.0,0.0,0.0,0.0,0.0,0.0,0.0,0.0,0.0,0.2933,0.2908,0.291,0.2935,0.2983,0.2745,0.2257,0.2241,0.1752,0.0953,0.0314,-0.0354,-0.1005,-0.1269,-0.1357,-0.1398,-0.1682,-0.1802,-0.1843,0.0,0.0,0.0,0.0,0.0,0.0,0.0,0.0,0.0,0.0,0.0,0.0,0.0,0.0,0.0,0.0,0.0,0.0,0.0,0.0,0.0751,0.0709,0.0239,0.0,0.0,0.0,0.0235,0.0706,0.1312,0.1696,0.1886,0.2932,0.3477,0.3613,0.3599,0.3365,0.2971,0.2729,0.2393,0.2046,0.2089,0.1896,0.1571,0.1726,0.0,0.0,0.0,0.0,0.0,0.0,0.0,0.0,-0.0316,-0.0287,-0.0222,-0.0481,-0.0555,-0.0615,-0.0816,-0.0891,-0.0938,-0.1057,-0.1109,-0.1167,-0.1281,-0.0842,-0.0218,0.0401,0.0,0.0438,0.0,0.0,0.0,0.0,0.0,0.0,0.0,0.0,0.0,0.0,0.0,0.0,0.0,0.0,0.0,0.0,0.0,0.0,0.0,0.0,0.0,0.0,0.0,0.0,0.0,0.0,0.0,0.0,0.2728,0.2726,0.2779,0.2936,0.2987,0.2985,0.2928,0.2401,0.1555,0.1008,0.0336,-0.0462,-0.1012,-0.1267,-0.1309,-0.1307,-0.1305,-0.1305,0.0,0.0,0.0,0.0,0.0,0.0,0.0,0.0,0.0,0.0,0.0,0.0,0.0,0.0,0.0,0.0,0.0,0.0,0.0,0.0,0.1078,0.0725,0.0241,0.0,0.0,0.0,0.0229,0.0706,0.1399,0.1951,0.2368,0.3172,0.3558,0.3608,0.3482,0.3289,0.2992,0.2838,0.2564,0.2242,0.2242,0.2166,0.2013,0.1699,0.126,0.0,0.0,0.0,0.0,0.0,0.0,0.0,-0.0085,-0.0064,-0.0044,-0.0107,-0.0277,-0.0454,-0.0558,-0.0775,-0.1,-0.1089,-0.1188,-0.1277,-0.1285,-0.1179,-0.1066,-0.0958,-0.0972,0.0,0.0,0.0,0.0,0.0,0.0,0.0,0.0,0.0,0.0,0.0,0.0,0.0,0.0,0.0,0.0,0.0,0.0,0.0,0.0,0.0,0.0,0.0,0.0,0.0,0.2918,0.2813,0.2783,0.0,0.277,0.2745,0.2714,0.2788,0.2866,0.2818,0.2758,0.2292,0.1597,0.1471,0.0672,-0.0421,-0.0557,-0.0906,-0.1378,-0.1313,-0.1305,-0.1299,0.0,0.0,0.0,0.0,0.0,0.0,0.0,0.0,0.0,0.0,0.0,0.0,0.0,0.0,0.0,0.0,0.0,0.0,0.0,0.1878,0.1422,0.0737,0.0464,0.0331,0.0338,0.0326,0.0681,0.1382,0.1832,0.219,0.2517,0.3198,0.3528,0.3605,0.3455,0.3289,0.3069,0.2614,0.2303,0.2081,0.1888,0.17,0.152,0.1536,0.1184,0.065,0.0489,0.0,0.0,0.0,0.0,0.0,0.0,0.0,-0.002,-0.0082,-0.0198,-0.034,-0.0549,-0.0747,-0.095,-0.1117,-0.1224,-0.1307,-0.1281,-0.1305,-0.1372,-0.1386,0.0,0.0,0.0,0.0,0.0,0.0,0.0,0.0,0.0,0.0,0.0,0.0,0.0,0.0,0.0,0.0,0.0,0.0,0.0,0.0,0.0,0.0,0.0,0.0,0.0,0.0,0.2699,0.2669,0.2653,0.2653,0.2653,0.2635,0.2608,0.2699,0.2723,0.2695,0.2662,0.2426,0.1993,0.1709,0.1187,0.0579,0.0251,-0.0296,-0.0854,-0.0844,-0.1003,-0.128,0.0,0.0,0.0,0.0,0.0,0.0,0.0,0.0,0.0,0.0,0.0,0.0,0.0,0.0,0.0,0.0,0.0,0.0,0.0,0.2356,0.174,0.0973,0.0859,0.0812,0.081,0.0803,0.1227,0.2077,0.2196,0.2394,0.2672,0.3172,0.3468,0.3577,0.3348,0.3229,0.3133,0.2277,0.1919,0.1905,0.148,0.1152,0.0941,0.1304,0.1036,0.0466,0.0543,0.033,0.0,0.0,0.0,0.0,0.0,0.0,-0.0018,-0.0134,-0.0186,-0.0271,-0.0554,-0.0708,-0.0825,-0.1095,-0.1185,-0.1247,-0.1287,-0.1333,-0.1375,-0.1375,0.0,0.0,0.0,0.0,0.0,0.0,0.0,0.0,0.0,0.0,0.0,0.0,0.0,0.0,0.0,0.0,0.0,0.0,0.0,0.0,0.0,0.0,0.0,0.0,0.0,0.2511,0.2511,0.2511,0.2511,0.2511,0.2511,0.2511,0.2514,0.2614,0.2634,0.2586,0.2586,0.2557,0.2472,0.1969,0.1755,0.1625,0.1105,0.0457,-0.0127,-0.0253,-0.0668,-0.1152,0.0,0.0,0.0,0.0,0.0,0.0,0.0,0.0,0.0,0.0,0.0609,0.0671,0.0604,0.0564,0.0,0.0,0.0,0.0,0.253,0.0,0.0,0.1917,0.153,0.1268,0.1214,0.1219,0.1484,0.201,0.2089,0.2528,0.3271,0.3366,0.3468,0.3577,0.2918,0.284,0.3127,0.198,0.1699,0.2037,0.1575,0.1363,0.1291,0.0954,0.0745,0.0607,0.0221,0.0055,0.0,0.0,0.0,0.0,0.0,0.0,0.0,-0.0018,-0.0115,-0.0225,-0.0315,-0.0484,-0.0663,-0.0897,-0.0955,-0.0994,0.0,0.0,-0.1314,0.0,0.0,0.0,0.0,0.0,0.0,0.0,0.0,0.0,0.0,0.0,0.0,0.0,0.0,0.0,0.0,0.0,0.0,0.0,0.0,0.0,0.0,0.0,0.2519,0.2511,0.2511,0.0,0.2511,0.2511,0.2511,0.2511,0.2511,0.2511,0.2511,0.2527,0.253,0.2522,0.2522,0.2518,0.2515,0.2487,0.2146,0.1671,0.1611,0.1207,0.0562,-0.0043,-0.0345,-0.0515,0.0,0.0,0.0,0.0,0.0,0.0,0.0,0.0,0.0,0.0,0.0,0.1352,0.1117,0.1251,0.0,0.0,0.0,0.0,0.2481,0.2354,0.0,0.1945,0.1736,0.1607,0.1586,0.1577,0.1853,0.2394,0.2354,0.2685,0.34,0.333,0.3471,0.3744,0.3307,0.3193,0.3249,0.222,0.1899,0.1986,0.1198,0.1153,0.1424,0.0607,0.0566,0.0841,0.0216,0.0,0.0,0.0,0.0,0.0,0.0,0.0,0.0,0.0,-0.0037,-0.0122,-0.0262,-0.0432,-0.0572,-0.0702,-0.0749,-0.0818,-0.0906,-0.1023,0.0,0.0,0.0,0.0,0.0,0.0,0.0,0.0,0.0,0.0,0.0,0.0,0.0,0.0,0.0,0.0,0.0,0.0,0.0,0.0,0.0,0.0,0.0,0.2511,0.2511,0.2511,0.2511,0.0,0.2511,0.2511,0.2511,0.2511,0.2511,0.2511,0.2511,0.2511,0.2511,0.2512,0.2546,0.2561,0.2567,0.2627,0.2505,0.2327,0.233,0.1926,0.1327,0.1017,0.0658,0.0217,0.0,0.0,0.0,0.0,0.0,0.0,0.0,0.0,0.0,0.0,0.0,0.0,0.1581,0.0,0.0,0.0,0.0,0.0,0.2457,0.0,0.0,0.0,0.0,0.1967,0.1924,0.1924,0.2153,0.2593,0.2533,0.2794,0.3354,0.3292,0.3493,0.394,0.3589,0.3433,0.3329,0.2405,0.2072,0.2057,0.1181,0.1164,0.1579,0.0824,0.0875,0.1258,0.0536,0.0273,0.0256,0.0,0.0,0.0,0.0,0.0,0.0,0.0,0.0,0.0079,-0.0166,-0.0309,-0.0384,-0.0496,-0.0569,-0.0602,0.0,0.0,0.0,0.0,0.0,0.0,0.0,0.0,0.0,0.0,0.0,0.0,0.0,0.0,0.0,0.0,0.0,0.0,0.0,0.0,0.0,0.0,0.0,0.0,0.2556,0.2542,0.2541,0.2556,0.2542,0.2533,0.2533,0.2518,0.2511,0.2511,0.2526,0.2533,0.2533,0.2533,0.2533,0.2537,0.2582,0.261,0.2629,0.2691,0.2743,0.2783,0.2783,0.2502,0.2045,0.1814,0.1442,0.0904,0.0,0.0,0.0,0.0,0.0,0.0,0.0,0.0,0.0,0.0,0.0,0.0,0.196,0.1883,0.1931,0.2249,0.0,0.0,0.0,0.0,0.0,0.0,0.0,0.0,0.227,0.2268,0.2291,0.2315,0.2433,0.2751,0.3204,0.3341,0.3648,0.407,0.3354,0.3174,0.334,0.2264,0.208,0.2426,0.1924,0.1763,0.1808,0.1935,0.2013,0.195,0.1276,0.0,0.0,0.0,0.0,0.0,0.0,0.0,0.0474,0.0,0.0,0.0,0.0078,-0.0021,-0.007,-0.0263,-0.032,-0.0382,0.0,0.0,0.0,0.0,0.0,0.0,0.0,0.0,0.0,0.0,0.0,0.0,0.0,0.0,0.0,0.0,0.0,0.0,0.0,0.0,0.0,0.0,0.0,0.0,0.2641,0.2628,0.2623,0.2681,0.2627,0.2597,0.2597,0.254,0.2511,0.2511,0.257,0.2597,0.2597,0.2597,0.2597,0.2597,0.26,0.2634,0.2692,0.2753,0.2781,0.2783,0.2783,0.2785,0.2651,0.1913,0.1602,0.1473,0.0,0.0,0.0,0.0,0.0,0.0,0.0,0.0,0.0,0.0,0.0,0.0,0.0,0.2542,0.2429,0.2541,0.2282,0.0,0.0,0.0,0.0,0.0,0.0,0.0,0.2181,0.2164,0.2218,0.2296,0.2259,0.2521,0.3061,0.3129,0.332,0.3633,0.3565,0.3571,0.361,0.2968,0.2759,0.2782,0.2413,0.2536,0.2904,0.2309,0.2392,0.2726,0.2004,0.0,0.0,0.0,0.0,0.0,0.0,0.023,0.0551,0.0807,0.0947,0.0969,0.0768,0.0574,0.0421,0.025,0.0054,-0.0115,-0.0186,0.0,0.0,0.0,0.0,0.0,0.0,0.0,0.0,0.0,0.0,0.0,0.0,0.0,0.0,0.0,0.0,0.0,0.0,0.0,0.0,0.0,0.0,0.0,0.1971,0.2303,0.2495,0.2516,0.2461,0.2393,0.2393,0.2371,0.236,0.236,0.2382,0.2393,0.2394,0.2469,0.2506,0.2545,0.2585,0.2614,0.2639,0.27,0.2725,0.2725,0.2725,0.2725,0.2722,0.2404,0.2313,0.2186,0.0,0.0,0.0,0.0,0.0,0.0,0.0,0.0,0.2496,0.277,0.0,0.0,0.0,0.0,0.2766,0.268,0.2407,0.2208,0.217,0.2133,0.0,0.0,0.0,0.0,0.21,0.21,0.2137,0.2234,0.2197,0.2398,0.2823,0.2886,0.305,0.3343,0.3449,0.3572,0.3709,0.3441,0.3272,0.3182,0.3011,0.3189,0.356,0.3086,0.3157,0.3428,0.0,0.0,0.0,0.0,0.0,0.0,0.0083,0.0331,0.0775,0.1151,0.1361,0.1422,0.1168,0.0996,0.0886,0.0,0.0,0.0182,0.0292,0.0,0.0,0.0,0.0,0.0,0.0,0.0,0.0,0.0,0.0,0.0,0.0,0.0,0.0,0.0,0.0,0.0,0.0,0.0,0.0,0.0,0.0,0.0,0.1611,0.2127,0.2382,0.2382,0.2346,0.2327,0.2327,0.2308,0.2299,0.2299,0.2318,0.2327,0.2328,0.2364,0.2441,0.2481,0.2503,0.2557,0.2635,0.2676,0.2692,0.2691,0.267,0.2661,0.2659,0.2639,0.2631,0.2549,0.0,0.0,0.0,0.0,0.0,0.0,0.0,0.0,0.2667,0.2805,0.0,0.0,0.0,0.0,0.0,0.2631,0.2546,0.2457,0.2318,0.2186,0.0,0.0,0.0,0.0,0.21,0.21,0.21,0.21,0.2234,0.2365,0.2498,0.262,0.2865,0.3169,0.2991,0.315,0.3591,0.3591,0.3599,0.3621,0.0,0.3715,0.3693,0.0,0.0,0.0,0.3601,0.3315,0.0,0.1634,0.0,0.0,0.0,0.0556,0.12,0.1531,0.1713,0.1733,0.0,0.0,0.0,0.0,0.0,0.0,0.0,0.0,0.0,0.0,0.0,0.0,0.0,0.0,0.0,0.0,0.0,0.0,0.0,0.0,0.0,0.0,0.0,0.0,0.0,0.0,0.0,0.0,0.0,0.0901,0.1641,0.214,0.2375,0.2411,0.2411,0.2411,0.2411,0.232,0.2293,0.2295,0.2348,0.2411,0.2411,0.2375,0.2377,0.2374,0.2322,0.2467,0.2681,0.2684,0.2684,0.2679,0.2621,0.2598,0.2591,0.2531,0.2511,0.2511,0.0,0.0,0.0,0.0,0.0,0.2889,0.2895,0.2879,0.295,0.0,0.0,0.0,0.3427,0.3336,0.3198,0.2975,0.2856,0.2704,0.2531,0.2353,0.2253,0.2253,0.215,0.21,0.21,0.21,0.21,0.21,0.2132,0.2226,0.2363,0.2498,0.2653,0.2832,0.2879,0.2964,0.309,0.309,0.3293,0.3605,0.3523,0.3689,0.0,0.0,0.0,0.0,0.0,0.3681,0.3137,0.0,0.2242,0.1728,0.0,0.1622,0.1795,0.2036,0.2274,0.2384,0.2063,0.0,0.0,0.0,0.0,0.0,0.0,0.0,0.0,0.0,0.0,0.0,0.0,0.0,0.0,0.0,0.0,0.0,0.0,0.0,0.0,0.0,0.0,0.0,0.0,0.0,0.0,0.0,0.0,0.0701,0.0905,0.1761,0.2273,0.2264,0.2262,0.2262,0.2262,0.2247,0.2239,0.2239,0.2254,0.2262,0.2264,0.2273,0.2257,0.2259,0.2287,0.2336,0.2399,0.2478,0.2495,0.2497,0.2525,0.2535,0.2533,0.2516,0.2511,0.2511,0.0,0.0,0.0,0.3472,0.3397,0.3351,0.3327,0.3295,0.3309,0.0,0.0,0.0,0.3754,0.3691,0.3559,0.3331,0.3156,0.2941,0.2628,0.2405,0.2273,0.2222,0.215,0.21,0.21,0.21,0.21,0.21,0.21,0.2135,0.2224,0.2306,0.24,0.2539,0.2558,0.2623,0.2728,0.2609,0.0,0.0,0.3572,0.0,0.0,0.4189,0.4246,0.0,0.0,0.0,0.3605,0.3375,0.2702,0.0,0.0,0.2158,0.2152,0.2338,0.2589,0.2762,0.2525,0.2465,0.2442,0.0,0.0,0.0,0.0,0.0,0.0,0.0,0.0,0.0,0.0,0.0,0.0,0.0,0.0,0.0,0.0,0.0,0.0,0.0,0.0,0.0,0.0,0.0,0.0,0.0,0.007,0.077,0.1241,0.1862,0.2191,0.2189,0.2188,0.2188,0.2188,0.2188,0.2188,0.2188,0.2188,0.2188,0.2189,0.2191,0.2207,0.2208,0.2244,0.226,0.2264,0.2285,0.2324,0.2351,0.2386,0.2451,0.2473,0.2473,0.2489,0.2511,0.0,0.0,0.3648,0.3768,0.3709,0.3675,0.3795,0.371,0.3696,0.0,0.3816,0.388,0.405,0.4031,0.3913,0.3676,0.3484,0.3158,0.2701,0.247,0.2278,0.2136,0.2117,0.21,0.21,0.2117,0.2117,0.21,0.2117,0.2117,0.21,0.21,0.2156,0.2272,0.2148,0.2232,0.2452,0.2261,0.0,0.3212,0.3636,0.3819,0.0,0.0,0.4308,0.4181,0.4534,0.4512,0.4231,0.3675,0.2901,0.0,0.0,0.2426,0.2447,0.2529,0.2781,0.297,0.2786,0.287,0.3013,0.2986,0.0,0.0,0.1715,0.115,0.0,0.0,0.0,0.0,0.0,0.0,0.0,0.0,0.0,0.0,0.0,0.0,0.0,0.0,0.0,0.0,0.0,0.0,0.0,-0.0236,0.0336,0.1109,0.2186,0.2221,0.2188,0.2188,0.2188,0.2188,0.2188,0.2188,0.2188,0.2188,0.2188,0.2188,0.2188,0.2188,0.2188,0.2188,0.2188,0.2188,0.2192,0.2213,0.2234,0.2289,0.2296,0.233,0.2373,0.2373,0.2444,0.2491,0.0,0.3604,0.3648,0.3768,0.3768,0.3802,0.3927,0.3951,0.392,0.3947,0.395,0.4077,0.4375,0.4247,0.4127,0.4099,0.3845,0.3542,0.3181,0.2772,0.2484,0.2347,0.2181,0.21,0.21,0.22,0.22,0.21,0.22,0.22,0.21,0.21,0.2111,0.2135,0.2111,0.2124,0.2205,0.2582,0.0,0.3043,0.3134,0.0,0.4058,0.4151,0.4219,0.4273,0.4344,0.4341,0.4251,0.0,0.3758,0.3497,0.0,0.0,0.3147,0.2965,0.3034,0.3131,0.2991,0.3056,0.3115,0.2949,0.0,0.0,0.0,0.1855,0.0,0.0,0.0,0.0,0.0,0.0,0.0,0.0,0.0,0.0,0.0,0.0,0.0,0.0,0.0,0.0,0.0,0.0,-0.0339,0.0303,0.1141,0.1913,0.2552,0.2354,0.2188,0.2188,0.2188,0.2188,0.2188,0.2188,0.2188,0.2188,0.2188,0.2188,0.2188,0.2188,0.2188,0.2188,0.2188,0.2188,0.2188,0.22,0.2207,0.2232,0.228,0.2305,0.2315,0.2315,0.2323,0.2332,0.3587,0.3604,0.3672,0.3866,0.3907,0.3982,0.4206,0.4156,0.4163,0.4334,0.4355,0.4382,0.4484,0.4399,0.4301,0.4204,0.3961,0.3661,0.3372,0.2945,0.2637,0.25,0.2298,0.2217,0.2245,0.2217,0.22,0.22,0.22,0.2167,0.21,0.21,0.2178,0.2303,0.2232,0.2269,0.2409,0.2609,0.2827,0.3027,0.3318,0.0,0.4092,0.4186,0.4246,0.4308,0.4363,0.4384,0.4357,0.4178,0.4005,0.0,0.0,0.367,0.3582,0.0,0.3363,0.3498,0.3264,0.3285,0.3357,0.3202,0.0,0.0,0.0,0.0,0.0,0.0,0.0,0.0,0.0,0.0,0.0,0.0,0.0,0.0,0.0,0.0,0.0,0.0,0.0,0.0,0.0,0.0,0.0387,0.1222,0.1993,0.2525,0.2825,0.2537,0.2387,0.2453,0.2287,0.2188,0.2188,0.2188,0.2188,0.2188,0.2188,0.2188,0.2188,0.2188,0.2188,0.2188,0.2188,0.2188,0.2188,0.2188,0.2206,0.2203,0.2233,0.2263,0.2255,0.2255,0.2273,0.2299,0.3597,0.3604,0.3686,0.3931,0.3974,0.4111,0.4409,0.4345,0.4358,0.4657,0.4691,0.4657,0.459,0.458,0.4514,0.4371,0.4092,0.3816,0.3559,0.3146,0.2855,0.2713,0.249,0.2398,0.2487,0.2287,0.2217,0.2317,0.2214,0.215,0.2133,0.2117,0.2229,0.2465,0.2376,0.2465,0.2704,0.0,0.0,0.3169,0.0,0.3958,0.4064,0.4208,0.4265,0.4281,0.4395,0.4471,0.444,0.4189,0.0,0.3914,0.383,0.3852,0.0,0.0,0.0,0.0,0.0,0.0,0.0,0.0,0.0,0.32,0.0,0.0,0.0,0.2075,0.0,0.0,0.0,0.0,0.0,0.0,0.0,0.0,0.0,0.0,0.0,0.0,0.0,0.0,0.0,0.0,0.1335,0.2179,0.2675,0.2979,0.3058,0.2748,0.2623,0.2762,0.2435,0.2275,0.2287,0.2221,0.2188,0.2188,0.2188,0.2188,0.2188,0.2188,0.2188,0.2188,0.2188,0.2188,0.2221,0.2255,0.2287,0.2287,0.2221,0.2184,0.2193,0.2261,0.2328,0.2372,0.3576,0.3604,0.3651,0.3788,0.3931,0.4051,0.422,0.4365,0.4525,0.4667,0.4691,0.4735,0.4853,0.4867,0.4881,0.4988,0.465,0.0,0.413,0.0,0.3263,0.3137,0.2763,0.2649,0.2848,0.2588,0.2427,0.2391,0.2374,0.2328,0.227,0.215,0.2186,0.2317,0.2425,0.2558,0.2717,0.0,0.3169,0.0,0.3736,0.3813,0.0,0.405,0.414,0.4153,0.4276,0.4319,0.43,0.0,0.4075,0.4058,0.0,0.3942,0.4026,0.0,0.0,0.0,0.0,0.0,0.0,0.0,0.3575,0.0,0.0,0.0,0.319,0.2927,0.0,0.0,0.0,0.0,0.0,0.0,0.0,0.0,0.0,0.0,0.0,0.0,0.0,0.0,0.0,0.0,0.0,0.2787,0.2922,0.3109,0.3333,0.3032,0.2884,0.2972,0.2655,0.2525,0.2653,0.2354,0.2188,0.2188,0.2188,0.2188,0.2188,0.2188,0.2188,0.2188,0.2188,0.2188,0.2221,0.252,0.2653,0.2621,0.2321,0.2192,0.2231,0.2531,0.2637,0.2646,0.359,0.3604,0.3648,0.3768,0.3843,0.3944,0.416,0.4564,0.4813,0.4704,0.4948,0.507,0.5012,0.0,0.0,0.0,0.0,0.4626,0.0,0.0,0.3695,0.3545,0.3153,0.2972,0.3011,0.2718,0.2524,0.2457,0.2424,0.2361,0.2303,0.2236,0.2363,0.2642,0.2618,0.2852,0.323,0.0,0.325,0.0,0.0,0.0,0.0,0.4077,0.4224,0.423,0.4281,0.43,0.4281,0.0,0.4038,0.0,0.0,0.0,0.0,0.0,0.0,0.0,0.0,0.0,0.0,0.0,0.0,0.0,0.0,0.0,0.3392,0.0,0.0,0.0,0.0,0.0,0.0,0.0,0.0,0.0,0.0,0.0,0.0,0.0,0.0,0.0,0.0,0.0,0.0,0.0,0.0,0.3259,0.3606,0.3264,0.3131,0.323,0.2937,0.2817,0.2883,0.28,0.279,0.279,0.279,0.269,0.2487,0.2487,0.2388,0.2221,0.2421,0.2487,0.252,0.2855,0.2989,0.2989,0.2824,0.279,0.279,0.2924,0.2989,0.2989,0.3593,0.3604,0.3634,0.374,0.3799,0.3958,0.4233,0.4641,0.4901,0.4769,0.5036,0.0,0.5224,0.5224,0.0,0.0,0.5177,0.4989,0.0,0.0,0.4134,0.4006,0.3582,0.0,0.3286,0.2927,0.269,0.2605,0.2496,0.2432,0.2438,0.2368,0.2517,0.2853,0.2809,0.3054,0.3526,0.0,0.3493,0.3697,0.3721,0.3751,0.3814,0.4132,0.427,0.43,0.43,0.43,0.4281,0.4223,0.4124,0.0,0.4473,0.0,0.0,0.0,0.0,0.0,0.3833,0.0,0.0,0.0,0.0,0.0,0.0,0.0,0.0,0.0,0.0,0.0,0.0,0.0,0.0,0.0,0.0,0.0,0.0,0.0,0.0,0.0,0.0,0.0,0.0,0.0,0.0,0.0,0.0,0.0,0.3715,0.3477,0.3382,0.3492,0.3199,0.3103,0.3151,0.3154,0.3168,0.3192,0.3192,0.3058,0.2822,0.2822,0.2688,0.249,0.2721,0.2822,0.2855,0.3224,0.336,0.336,0.346,0.3496,0.3493,0.3393,0.336,0.336,0.3573,0.3604,0.3604,0.3607,0.3822,0.4111,0.444,0.4498,0.4614,0.0,0.0,0.0,0.0,0.0,0.0,0.0,0.0,0.5535,0.5378,0.0,0.4631,0.4477,0.4037,0.3775,0.0,0.332,0.3027,0.2885,0.2628,0.2597,0.2771,0.2523,0.2504,0.2724,0.2909,0.3138,0.342,0.3671,0.4038,0.4451,0.4191,0.417,0.4268,0.0,0.4197,0.43,0.43,0.0,0.0,0.4355,0.4377,0.0,0.0,0.0,0.0,0.0,0.0,0.0,0.0,0.0,0.0,0.3544,0.0,0.0,0.0,0.0,0.3608,0.0,0.0,0.0,0.0,0.0,0.3322,0.3043,0.3005,0.0,0.0,0.0,0.0,0.0,0.0,0.0,0.0,0.0,0.0,0.0,0.0,0.0,0.3591,0.3591,0.3642,0.3786,0.3414,0.3304,0.3565,0.3187,0.3073,0.3192,0.3192,0.3192,0.3192,0.3192,0.3192,0.3159,0.3192,0.3192,0.3226,0.3625,0.3792,0.3825,0.4131,0.4267,0.4233,0.3892,0.3792,0.3792,0.4195,0.4013,0.3809,0.3634,0.0,0.4002,0.4429,0.4714,0.0,0.0,0.0,0.0,0.0,0.5942,0.5885,0.0,0.0,0.5776,0.5562,0.5306,0.0,0.0,0.0,0.4192,0.0,0.3724,0.3446,0.3241,0.3089,0.3004,0.292,0.2756,0.2794,0.304,0.3112,0.3324,0.0,0.0,0.0,0.0,0.0,0.4191,0.4298,0.0,0.0,0.43,0.43,0.43,0.0,0.432,0.4351,0.4464,0.4782,0.4764,0.4649,0.488,0.4791,0.0,0.0,0.0,0.4369,0.3974,0.0,0.0,0.0,0.0,0.0,0.0,0.0,0.0,0.0,0.3485,0.3349,0.3161,0.3031,0.2843,0.0,0.0,0.0,0.0,0.0,0.0,0.0,0.0,0.0,0.0,0.0,0.0,0.0,0.3613,0.363,0.3668,0.3627,0.3645,0.372,0.3645,0.3678,0.3788,0.3788,0.3727,0.3591,0.3591,0.346,0.3226,0.3491,0.3591,0.3625,0.3995,0.4131,0.4131,0.4267,0.43,0.43,0.4164,0.4131,0.4131,0.4641,0.4293,0.0,0.0,0.0,0.0,0.0,0.0,0.0,0.0,0.5884,0.0,0.6464,0.0,0.633,0.0,0.6289,0.6142,0.5883,0.5668,0.0,0.5301,0.4911,0.0,0.0,0.0,0.3805,0.355,0.3381,0.3239,0.3109,0.2977,0.3008,0.3212,0.3293,0.3511,0.3808,0.0,0.4247,0.0,0.0,0.4265,0.0,0.0,0.43,0.0,0.0,0.43,0.43,0.4398,0.4443,0.4534,0.4965,0.4937,0.4798,0.5163,0.5068,0.4816,0.4722,0.4722,0.0,0.0,0.4133,0.0,0.3839,0.0,0.0,0.0,0.0,0.0,0.0,0.0,0.3376,0.3294,0.3074,0.2789,0.0,0.0,0.0,0.0,0.0,0.0,0.0,0.0,0.2764,0.3107,0.0,0.0,0.0,0.0,0.3613,0.3613,0.3682,0.3742,0.3812,0.3833,0.3933,0.4021,0.4065,0.4027,0.3904,0.3944,0.3828,0.3596,0.3861,0.3995,0.3995,0.4197,0.43,0.43,0.43,0.43,0.43,0.43,0.43,0.43,0.0,0.0,0.0,0.0,0.4326,0.0,0.0,0.0,0.5647,0.0,0.6217,0.6607,0.6862,0.6896,0.695,0.7085,0.6885,0.0,0.6351,0.6006,0.0,0.0,0.5332,0.5127,0.512,0.0,0.0,0.0,0.3505,0.3333,0.3316,0.3182,0.3149,0.3215,0.3485,0.0,0.3826,0.4307,0.4591,0.4682,0.4546,0.4443,0.4303,0.4314,0.0,0.4308,0.4303,0.43,0.4334,0.4528,0.4592,0.4658,0.499,0.5087,0.5149,0.5501,0.5511,0.5359,0.5156,0.5026,0.4832,0.4436,0.0,0.0,0.0,0.0,0.4209,0.0,0.0,0.0,0.0,0.0,0.3411,0.3395,0.3117,0.2764,0.2387,0.0,0.0,0.0,0.0,0.0,0.0,0.2411,0.2374,0.2933,0.2819,0.29,0.0,0.0,0.0,0.3613,0.3613,0.3665,0.3801,0.3804,0.3835,0.3897,0.4013,0.4102,0.4081,0.4235,0.4292,0.4292,0.4298,0.43,0.43,0.43,0.43,0.43,0.43,0.43,0.43,0.43,0.43,0.43,0.6233,0.6067,0.5945,0.0,0.5012,0.4436,0.0,0.0,0.0,0.0,0.6532,0.6881,0.7021,0.7041,0.7058,0.7092,0.7028,0.0,0.0,0.0,0.0,0.6286,0.585,0.5579,0.5474,0.5066,0.0,0.4317,0.0,0.3714,0.3517,0.3385,0.3334,0.3361,0.364,0.3776,0.384,0.4451,0.4716,0.4691,0.4678,0.452,0.0,0.0,0.4542,0.4449,0.433,0.43,0.43,0.4367,0.4461,0.4628,0.4827,0.499,0.5163,0.5373,0.5426,0.5395,0.5326,0.5299,0.5224,0.4973,0.4755,0.4576,0.0,0.0,0.0,0.0,0.0,0.0,0.0,0.0,0.0,0.3308,0.2966,0.2753,0.0,0.0,0.0,0.0,0.0,0.0,0.0,0.0,0.2574,0.2616,0.0,0.0,0.0,0.0,0.0,0.3605,0.3613,0.3627,0.3657,0.3657,0.3715,0.383,0.3862,0.3895,0.3954,0.4078,0.4164,0.417,0.4262,0.43,0.43,0.43,0.43,0.43,0.43,0.43,0.43,0.43,0.43,0.43,0.702,0.0,0.0,0.7024,0.0,0.0,0.5837,0.0,0.0,0.6393,0.6844,0.0,0.7234,0.7368,0.7486,0.7486,0.7368,0.0,0.7132,0.0,0.0,0.6573,0.6264,0.5996,0.5786,0.542,0.0,0.4981,0.0,0.0,0.4206,0.3913,0.3687,0.3492,0.3769,0.3852,0.3842,0.4455,0.4762,0.483,0.4862,0.0,0.0,0.4888,0.486,0.4721,0.4619,0.4525,0.4374,0.4374,0.4408,0.4498,0.4661,0.5054,0.5481,0.5653,0.5984,0.6276,0.6276,0.6276,0.6252,0.6149,0.599,0.5864,0.5821,0.574,0.5674,0.0,0.0,0.0,0.0,0.0,0.0,0.3274,0.2973,0.2813,0.0,0.0,0.0,0.0,0.0,0.0,0.0,0.0,0.0,0.0,0.0,0.0,0.0,0.0,0.0,0.0,0.3555,0.3613,0.3613,0.3613,0.3643,0.3709,0.3758,0.3819,0.386,0.3951,0.4035,0.4089,0.4191,0.438,0.4661,0.4661,0.4661,0.4628,0.44,0.4431,0.4628,0.44,0.43,0.43,0.0,0.0,0.0,0.0,0.0,0.0,0.0,0.6514,0.0,0.6709,0.0,0.7451,0.7431,0.7794,0.7988,0.7988,0.0,0.7594,0.7438,0.717,0.6949,0.6797,0.6624,0.6403,0.6084,0.5677,0.0,0.0,0.0,0.4816,0.4945,0.4539,0.4078,0.361,0.3915,0.0,0.0,0.4403,0.4756,0.0,0.5079,0.5191,0.5303,0.534,0.5237,0.5047,0.5028,0.4828,0.4528,0.4528,0.4451,0.4356,0.4554,0.5166,0.5873,0.6042,0.6699,0.7354,0.7386,0.7386,0.7386,0.7386,0.7386,0.7372,0.7251,0.724,0.724,0.724,0.6538,0.0,0.0,0.0,0.0,0.3599,0.0,0.0,0.0,0.0,0.0,0.0,0.0,0.0,0.0,0.0,0.0,0.0,0.0,0.0,0.0,0.0,0.0,0.0,0.352,0.0,0.3613,0.0,0.3613,0.3613,0.3712,0.3761,0.3767,0.3871,0.3962,0.4096,0.419,0.4555,0.512,0.5186,0.5223,0.5156,0.4697,0.4794,0.5156,0.4697,0.4467,0.44,0.0,0.0,0.0,0.0,0.0,0.7829,0.7589,0.7184,0.693,0.7007,0.752,0.7875,0.7746,0.7916,0.7988,0.7988,0.7941,0.0,0.0,0.0,0.0,0.7306,0.6993,0.6766,0.6586,0.6142,0.5842,0.0,0.0,0.4965,0.467,0.4587,0.4217,0.3625,0.4062,0.0,0.4702,0.4646,0.0,0.5246,0.5184,0.5242,0.5324,0.5481,0.5497,0.5414,0.5293,0.4995,0.4657,0.4657,0.4575,0.4476,0.4648,0.5051,0.5554,0.598,0.6535,0.7055,0.7321,0.7386,0.7386,0.7386,0.7386,0.7409,0.7372,0.7362,0.7362,0.7362,0.7237,0.7072,0.6997,0.0,0.0,0.0,0.0,0.0,0.0,0.0,0.0,0.0,0.0,0.0,0.0,0.0,0.0,0.0,0.0,0.0,0.0,0.0,0.0,0.0,0.0,0.0,0.0,0.0,0.0,0.3613,0.3632,0.3641,0.3649,0.3806,0.3916,0.3977,0.4628,0.4998,0.5123,0.5587,0.5756,0.5756,0.5657,0.569,0.5756,0.5657,0.5326,0.4891,0.0,0.0,0.0,0.0,0.0,0.0,0.0,0.8428,0.0,0.7214,0.7348,0.7496,0.7425,0.7759,0.7988,0.7988,0.7988,0.7958,0.7884,0.779,0.7607,0.7429,0.7234,0.0,0.7319,0.6827,0.6793,0.7204,0.0,0.5888,0.5739,0.5355,0.4868,0.4323,0.0,0.4785,0.0,0.0,0.0,0.5467,0.5577,0.571,0.5832,0.5934,0.5867,0.5698,0.5645,0.5434,0.513,0.4842,0.4882,0.5092,0.5162,0.5853,0.6706,0.7012,0.7583,0.819,0.8435,0.8501,0.8501,0.8501,0.8501,0.8501,0.8501,0.8501,0.8501,0.8501,0.8204,0.7733,0.6934,0.6721,0.0,0.0,0.0,0.0,0.0,0.0,0.0,0.0,0.0,0.0,0.0,0.0,0.0,0.0,0.0,0.0,0.0,0.0,0.0,0.0,0.0,0.0,0.0,0.0,0.0,0.3613,0.3613,0.3613,0.3619,0.4054,0.4297,0.4342,0.5078,0.5607,0.5947,0.6214,0.6478,0.6675,0.6119,0.6053,0.628,0.5987,0.5723,0.5422,0.0,1.0418,0.0,0.0,1.0851,0.0,0.0,0.9403,0.9003,0.7455,0.7237,0.725,0.728,0.7709,0.7988,0.7988,0.7988,0.8088,0.8333,0.8266,0.8166,0.816,0.8082,0.8157,0.8393,0.7888,0.7943,0.0,0.0,0.0,0.6946,0.6252,0.5764,0.0,0.0,0.0,0.0,0.0,0.5569,0.5752,0.5949,0.6122,0.63,0.649,0.6465,0.6327,0.6409,0.6384,0.6197,0.5667,0.5637,0.584,0.5952,0.6825,0.7871,0.8019,0.8623,0.9259,0.9524,0.9558,0.9516,0.9516,0.9516,0.9516,0.9516,0.9516,0.9516,0.9516,0.9041,0.8311,0.725,0.7291,0.0,0.0,0.0,0.0,0.0,0.0,0.0,0.0,0.0,0.0,0.0,0.0,0.0,0.0,0.0,0.0,0.2609,0.2766,0.0,0.0,0.0,0.0,0.3545,0.0,0.3613,0.0,0.3613,0.3624,0.3652,0.432,0.4667,0.4781,0.5557,0.6282,0.6872,0.6872,0.7134,0.7423,0.6576,0.6511,0.6806,0.6383,0.6185,0.602,0.0,0.0,0.0,0.0,0.0,0.0,0.0,0.9393,0.9546,0.7954,0.7746,0.7801,0.7891,0.7955,0.7988,0.7988,0.7988,0.8432,0.941,0.9444,0.9782,1.0617,1.0264,1.0037,1.0091,0.9535,0.9272,0.0,0.0,0.7935,0.751,0.6959,0.0,0.0,0.0,0.0,0.0,0.5946,0.5849,0.6228,0.6074,0.6122,0.6377,0.7103,0.7504,0.7735,0.8064,0.8301,0.8421,0.7961,0.725,0.6663,0.7036,0.7505,0.796,0.8263,0.8605,0.8985,0.9671,0.9697,0.9516,0.9516,0.9516,0.9516,0.9516,0.9516,0.9516,0.9516,0.9249,0.8925,0.8581,0.8344,0.8106,0.0,0.0,0.0,0.0,0.0,0.0,0.0,0.0,0.0,0.0,0.0,0.0,0.0,0.0,0.0,0.0,0.2834,0.0,0.3183,0.0,0.3406,0.3417,0.3528,0.0,0.3613,0.3613,0.3665,0.3798,0.4401,0.4753,0.4956,0.6108,0.692,0.7423,0.7423,0.7456,0.7489,0.7391,0.7391,0.7423,0.7358,0.7031,0.6609,0.0,0.0,0.0,0.0,0.0,0.0,0.0,1.0755,1.0705,0.9609,0.9363,0.8819,0.7773,0.8275,0.8485,0.7951,0.7938,0.8184,0.8627,0.9266,0.9718,1.001,1.0306,1.0689,1.1143,1.047,1.0174,0.0,0.0,0.8986,0.8486,0.7955,0.0,0.0,0.0,0.7376,0.7368,0.6789,0.6394,0.616,0.6681,0.6962,0.7103,0.7902,0.8295,0.8387,0.8531,0.8631,0.8822,0.9256,0.8818,0.812,0.8271,0.8663,0.916,0.9351,0.9493,0.9637,0.9856,0.9829,0.9709,0.9552,0.9516,0.9516,0.9516,0.9516,0.9516,0.9516,0.9293,0.9017,0.8758,0.8493,0.8207,0.0,0.0,0.0,0.0,0.0,0.0,0.0,0.0,0.0,0.0,0.0,0.0,0.0,0.0,0.0,0.0,0.0,0.0,0.3024,0.0,0.3822,0.3822,0.4198,0.4239,0.3962,0.3962,0.406,0.4313,0.49,0.5658,0.6492,0.6963,0.7293,0.7489,0.7489,0.7489,0.7489,0.7489,0.7489,0.7489,0.7489,0.7358,0.7129,1.2536,0.0,1.2699,0.0,1.3073,1.2695,1.1931,1.2048,1.1838,1.0762,1.0929,1.0448,0.8598,0.9102,0.9267,0.86,0.8661,0.8826,0.9114,0.9936,1.0483,1.072,1.1283,0.0,1.2238,1.1603,1.1347,1.1467,1.0635,0.0,0.9552,0.0,0.0,0.0,0.8919,0.8698,0.8478,0.8076,0.7587,0.7146,0.7801,0.8104,0.8177,0.8889,0.9212,0.929,0.939,0.9461,0.9609,1.0319,1.0176,0.9708,0.9594,0.9818,1.011,1.0197,1.0168,1.0103,1.0128,1.0021,0.9859,0.9672,0.957,0.9516,0.9516,0.9516,0.9516,0.9516,0.9233,0.8927,0.874,0.8405,0.8117,0.0,0.0,0.0,0.0,0.0,0.0,0.0,0.6694,0.6062,0.6035,0.0,0.0,0.0,0.0,0.0,0.0,0.0,0.0,0.0,0.0,0.0,0.0,0.0,0.4732,0.4398,0.4398,0.4558,0.4847,0.5529,0.6453,0.7489,0.7489,0.7489,0.7489,0.7489,0.7489,0.7489,0.7489,0.7489,0.7489,0.7489,0.7489,0.7456,1.3061,1.3071,1.32,1.3465,1.3507,1.3178,1.2244,1.2905,1.2814,1.0925,1.2307,1.2768,1.0977,1.0543,1.038,1.038,1.038,1.0801,1.1808,1.2113,1.2717,0.0,0.0,1.3733,1.3468,1.3203,1.28,1.23,0.0,0.0,1.0647,0.0,0.9781,1.0251,0.9719,0.9846,1.0418,0.9741,0.9545,0.9639,0.9512,0.9466,0.9528,1.0071,1.0446,1.0707,1.0995,1.1248,1.1447,1.117,1.126,1.1406,1.1,1.0713,1.0475,1.0475,1.0299,1.0184,1.0569,1.0298,0.9907,0.9901,0.9709,0.9516,0.9516,0.9516,0.9516,0.9516,0.9083,0.871,0.871,0.8255,0.7907,0.7901,0.0,0.0,0.0,0.0,0.0,0.0,0.6836,0.6435,0.676,0.0,0.0,0.0,0.0,0.0,0.0,0.0,0.0,0.4669,0.4696,0.0,0.4699,0.4842,0.4897,0.4897,0.4897,0.5068,0.5423,0.6301,0.6999,0.7489,0.7489,0.7489,0.7489,0.7489,0.7489,0.7489,0.7489,0.7489,0.7489,0.7489,0.7489,0.7489,1.364,1.3803,1.3948,1.4032,1.39,1.3686,1.335,1.3439,1.3346,1.2956,1.325,1.3336,1.2976,1.2033,1.1095,0.0,1.0342,1.056,0.0,1.1595,1.2191,1.252,1.3052,1.3332,1.3254,1.2976,1.2662,1.2312,0.0,0.0,0.0,1.1164,1.1122,1.1122,1.115,1.0959,1.0611,1.0409,1.0045,0.9613,1.0116,1.0333,1.0404,1.1101,1.1443,1.1513,1.1406,1.1417,1.1477,1.1387,1.1291,1.1273,1.1516,1.1417,1.1171,1.1171,1.0976,1.0764,1.0695,1.0563,1.0352,0.9991,0.9841,0.9733,0.9558,0.9516,0.9516,0.9516,0.9083,0.871,0.871,0.8249,0.7901,0.7901,0.0,0.0,0.0,0.0,0.0,0.0,0.0,0.7217,0.0,0.6787,0.0,0.0,0.0,0.0,0.0,0.0,0.0,0.0,0.5116,0.0,0.5176,0.5578,0.565,0.5371,0.5518,0.5793,0.6183,0.6911,0.7326,0.7489,0.7489,0.7489,0.7489,0.7489,0.7489,0.7489,0.7489,0.7489,0.7489,0.7489,0.7489,0.7489,1.4051,1.4183,1.4346,1.4442,1.4213,1.4098,1.4198,1.3965,1.387,1.4032,1.3912,1.3833,1.39,1.3147,0.0,1.1347,1.1284,0.0,1.127,1.1945,1.2361,1.2361,1.2944,1.3179,1.3083,0.0,0.0,1.262,1.2512,1.2192,1.1639,1.1802,1.1796,1.1651,1.191,1.1781,1.1293,1.1424,1.117,1.0751,1.1252,1.1464,1.1494,1.1898,1.2071,1.2035,1.1736,1.1639,1.1639,1.1639,1.1624,1.1618,1.1922,1.1956,1.1748,1.1549,1.1369,1.117,1.0906,1.0797,1.0605,1.028,1.0051,0.9835,0.9576,0.9516,0.9516,0.9516,0.9161,0.8824,0.8728,0.8333,0.8015,0.7919,0.0,0.7901,0.0,0.0,0.0,0.0,0.0,0.0,0.0,0.7236,0.0,0.0,0.0,0.0,0.0,0.0,0.0,0.5504,0.573,0.0,0.5712,0.6101,0.6174,0.5952,0.6247,0.6531,0.6778,0.7265,0.7489,0.7489,0.7489,0.7489,0.7489,0.7489,0.7489,0.7489,0.7489,0.7489,0.7521,0.7657,0.7689,0.7722,1.4401,1.4401,0.0,0.0,1.4551,0.0,1.4695,1.4503,1.4352,1.4352,1.4352,1.4262,1.4014,1.3954,1.3737,1.3248,0.0,0.0,0.0,1.2958,1.3053,1.3053,1.3332,0.0,1.3103,1.3053,1.3059,1.3083,1.288,1.2499,1.1964,1.1964,1.1952,1.1986,1.2234,1.2337,1.2355,1.2602,1.2705,1.2705,1.2705,1.2705,1.2681,1.2433,1.2337,1.2306,1.2,1.195,1.1904,1.1926,1.2083,1.2288,1.2306,1.2312,1.2216,1.1688,1.1519,1.1435,1.1214,1.0948,1.0707,1.0689,1.0292,0.9841,0.9594,0.9528,0.9516,0.9516,0.9293,0.9017,0.8758,0.8493,0.8207,0.7943,0.7901,0.7901,0.7901,0.0,0.0,0.0,0.0,0.0,0.0,0.748,0.7619,0.0,0.0,0.0,0.0,0.0,0.0,0.6735,0.6418,0.6264,0.6279,0.6464,0.6573,0.6582,0.7,0.7199,0.7218,0.7403,0.7489,0.7489,0.7489,0.7489,0.7489,0.7489,0.7489,0.7489,0.7489,0.7521,0.7559,0.7884,0.8019,0.8084,0.0,0.0,1.5563,1.5357,1.5251,1.5152,1.5014,1.497,1.4914,1.4914,1.4914,1.4896,1.4829,1.4455,1.4153,1.4032,1.3411,1.3025,1.3025,1.2886,1.2801,1.2801,1.2862,1.2868,1.2807,1.2801,1.291,1.3083,1.326,1.3157,1.2837,1.2837,1.2723,1.2524,1.2584,1.2614,1.2614,1.2681,1.2705,1.2705,1.2705,1.2705,1.2699,1.2638,1.2614,1.2578,1.2312,1.2222,1.2192,1.1952,1.1922,1.2047,1.2252,1.2312,1.2288,1.2161,1.1802,1.1477,1.1411,1.1194,1.0972,1.0731,1.0292,0.9889,0.9829,0.966,0.9516,0.9516,0.9293,0.9017,0.8758,0.8493,0.8207,0.7943,0.7901,0.7901,0.7901,0.0,0.0,0.0,0.7832,0.7808,0.7748,0.7796,0.7774,0.0,0.0,0.0,0.0,0.0,0.6959,0.7289,0.6842,0.6788,0.7181,0.7238,0.7298,0.7415,0.7267,0.727,0.7422,0.747,0.7489,0.7489,0.7489,0.7489,0.7489,0.7489,0.7489,0.7489,0.7489,0.7657,0.7884,0.7987,0.8149,0.8382,1.5966,1.5864,1.5769,1.5706,1.5563,1.5513,1.5463,1.527,1.5163,1.5285,1.5048,1.4974,1.5095,1.4847,1.4618,1.4497,1.3761,1.3254,1.3133,1.2982,1.2837,1.2711,1.2705,1.2705,1.2705,1.2705,1.2777,1.2934,1.3206,1.3221,1.3083,1.3083,1.3103,1.3073,1.3073,1.3073,1.3073,1.3073,1.3073,1.3073,1.3073,1.3073,1.3073,1.3073,1.3,1.288,1.2735,1.2602,1.2469,1.2324,1.2282,1.23,1.2445,1.2493,1.2493,1.2493,1.2204,1.1796,1.1555,1.1381,1.117,1.0816,1.0472,1.0196,0.9961,0.9793,0.966,0.9508,0.9396,0.9203,0.8933,0.8674,0.8381,0.8123,0.7979,0.7901,0.7901,0.7901,0.0,0.7901,0.7901,0.7901,0.7901,0.7901,0.7868,0.7744,0.0,0.0,0.7731,0.7556,0.7522,0.768,0.7268,0.7275,0.7688,0.7768,0.7891,0.8069,0.7879,0.7844,0.7954,0.7954,0.7889,0.7722,0.7722,0.7657,0.7489,0.7489,0.7489,0.7489,0.7489,0.7722,0.8019,0.8187,0.8441,0.8732,1.6067,1.5868,1.575,1.5941,1.575,1.5701,1.5891,1.5498,1.5283,1.5519,1.5108,1.4909,1.5133,1.5121,1.5006,1.4739,1.4098,1.3571,1.326,1.3161,1.3061,1.2777,1.2771,1.2747,1.2705,1.2747,1.2771,1.2771,1.3049,1.3119,1.3083,1.3083,1.3218,1.3393,1.3393,1.3393,1.3393,1.3393,1.3393,1.3393,1.3393,1.3417,1.3453,1.3405,1.3308,1.3181,1.3095,1.2994,1.2819,1.2783,1.2771,1.2759,1.2717,1.2705,1.2705,1.2705,1.2548,1.227,1.1742,1.1549,1.1375,1.0869,1.0713,1.0569,1.0124,0.9961,0.9841,0.9618,0.954,0.9426,0.9149,0.8884,0.862,0.8333,0.8096,0.7928,0.7901,0.0,0.794,0.7955,0.7961,0.7973,0.8015,0.8015,0.8015,0.8015,0.8015,0.0,0.0,0.803,0.8045,0.8086,0.779,0.7775,0.8064,0.824,0.8402,0.8576,0.8517,0.8517,0.8517,0.8517,0.8349,0.8084,0.8019,0.7852,0.7559,0.7526,0.7489,0.7489,0.7559,0.7787,0.8117,0.8447,0.8797,0.9119,1.6557,1.6573,1.644,1.6247,1.6203,1.6103,1.594,1.584,1.5802,1.5846,1.5563,1.54,1.5443,1.5239,1.4998,1.4721,1.4582,1.4305,1.3803,1.3574,1.3338,1.3067,1.3061,1.2946,1.2711,1.2934,1.3061,1.3061,1.3326,1.3344,1.3083,1.3083,1.3019,1.2831,1.2831,1.2831,1.2831,1.2831,1.2831,1.2831,1.2831,1.297,1.3157,1.2922,1.3091,1.3423,1.3155,1.3236,1.3357,1.3089,1.3061,1.3019,1.2777,1.2705,1.2705,1.2705,1.2674,1.2578,1.2276,1.1832,1.1417,1.1129,1.0882,1.0695,1.0581,1.0226,0.9895,0.9853,0.9666,0.9426,0.9149,0.8884,0.862,0.8333,0.8206,0.8088,0.0,0.0,0.8174,0.8235,0.8231,0.8315,0.8566,0.859,0.859,0.859,0.859,0.859,0.859,0.8568,0.8687,0.8908,0.8433,0.8409,0.8913,0.8897,0.8886,0.892,0.8641,0.8517,0.8517,0.8517,0.8484,0.8414,0.8117,0.7954,0.7884,0.7624,0.7489,0.7521,0.7819,0.8117,0.8447,0.8797,0.9119,0.9414,1.6657,1.662,1.6484,1.6338,1.615,1.6048,1.6107,1.5972,1.5931,1.6092,1.5776,1.5538,1.5683,1.5589,1.5407,1.5165,1.5132,1.4938,1.4568,1.4015,1.361,1.3344,1.3326,1.3206,1.2924,1.2924,1.2898,1.2898,1.3019,1.3091,1.3083,1.3083,1.3133,1.3139,1.3139,1.3139,1.3139,1.3139,1.3139,1.3139,1.3139,1.3218,1.3338,1.3344,1.3332,1.3326,1.3483,1.3441,1.3308,1.3332,1.3242,1.3103,1.297,1.304,1.3179,1.279,1.2602,1.2469,1.2343,1.1892,1.1459,1.1333,1.1098,1.0894,1.0719,1.0497,1.0244,0.9961,0.9811,0.9642,0.9372,0.934,0.9201,0.8788,0.8708,0.0,0.0,0.8193,0.8263,0.8301,0.8439,0.8572,0.8692,0.871,0.871,0.871,0.871,0.871,0.871,0.8842,0.8975,0.9095,0.9002,0.9073,0.9324,0.9285,0.9285,0.9253,0.9125,0.9034,0.9034,0.9034,0.8931,0.8765,0.8598,0.8441,0.8252,0.8117,0.8052,0.8052,0.8019,0.8312,0.8765,0.8732,0.906,0.9516,1.645,1.638,1.6253,1.6186,1.5979,1.5905,1.6132,1.6014,1.5953,1.614,1.578,1.5575,1.5786,1.5812,1.5679,1.542,1.5443,1.5402,1.5096,1.4496,1.4068,1.3799,1.3702,1.3542,1.3293,1.3004,1.2844,1.2801,1.2735,1.2813,1.3025,1.3025,1.3133,1.3326,1.3326,1.3326,1.3326,1.3326,1.3326,1.3326,1.3326,1.3363,1.3441,1.3574,1.3453,1.326,1.3604,1.3544,1.3326,1.3465,1.3423,1.3284,1.3334,1.3541,1.3687,1.3277,1.3023,1.2806,1.2572,1.2218,1.1914,1.1939,1.1777,1.154,1.1089,1.0942,1.0747,1.02,1.0039,0.9946,0.9817,0.9907,0.9875,0.9505,0.0,0.0,0.0,0.8686,0.8626,0.8659,0.8732,0.8824,0.889,0.8896,0.8896,0.8896,0.8896,0.8956,0.907,0.9266,0.9439,0.9525,0.9528,0.9516,0.9516,0.9516,0.9516,0.9516,0.9516,0.9516,0.9516,0.9516,0.935,0.9119,0.9049,0.8861,0.8608,0.8549,0.8576,0.8673,0.8436,0.8753,0.9332,0.9119,0.9382,0.983,1.5844,1.5838,1.5824,1.5865,1.5798,1.5791,1.5811,1.5811,1.5824,1.5844,1.5634,1.5491,1.551,1.551,1.5408,1.5163,1.5341,1.5382,1.5131,1.5064,1.487,1.4625,1.4391,1.4103,1.3871,1.3566,1.3298,1.3091,1.2831,1.2711,1.2735,1.2735,1.2747,1.2765,1.2765,1.2765,1.2765,1.2765,1.2765,1.2765,1.2765,1.2922,1.3083,1.2886,1.3079,1.3459,1.3209,1.3471,1.3815,1.3592,1.3664,1.3853,1.3977,1.406,1.4119,1.4438,1.4552,1.4344,1.3482,1.3214,1.3172,1.3244,1.3237,1.2996,1.2109,1.1695,1.1352,1.0778,1.0436,1.0355,1.0585,1.0432,1.0309,1.0457,0.0,0.0,1.0179,0.9821,0.9632,0.976,0.9357,0.9173,0.9432,0.9424,0.9424,0.9424,0.9424,0.9641,1.0148,1.0192,1.0426,1.0853,0.997,0.9516,0.9516,0.9516,0.9516,0.9516,0.9516,0.9516,0.9516,0.9516,0.9484,0.9452,0.9151,0.8985,0.8952,0.8641,0.8797,0.9242,0.9364,0.9799,1.0395,1.0573,1.0737,1.0832,1.5784,1.5784,1.5784,1.5784,1.5784,1.5784,1.5784,1.5784,1.5784,1.5784,1.573,1.5689,1.5689,1.5689,1.5642,1.5547,1.5642,1.5642,1.5547,1.5547,1.5321,1.4935,1.4681,1.45,1.4327,1.4123,1.3849,1.3599,1.3488,1.3259,1.2964,1.2964,1.2874,1.2705,1.2705,1.2705,1.2705,1.2705,1.2705,1.2705,1.2705,1.2771,1.2874,1.294,1.2988,1.3043,1.3284,1.3495,1.3676,1.3737,1.4099,1.4606,1.4618,1.5025,1.544,1.5329,1.5026,1.4706,1.4752,1.4364,1.3912,1.3957,1.3691,1.3299,1.2962,1.264,1.2308,1.1911,1.1742,1.1645,1.158,1.1542,1.1464,1.1256,0.0,1.0924,1.0533,1.0356,1.0279,1.0335,1.0291,1.0327,1.0415,1.0421,1.0421,1.0421,1.0421,1.0516,1.0706,1.0737,1.0832,1.0982,1.0643,1.0421,1.0421,1.0142,0.9989,0.9989,0.9676,0.967,0.9989,0.9989,1.0142,1.0421,1.0288,1.0225,1.0225,1.0098,1.0161,1.0351,1.018,1.0395,1.0787,1.0654,1.0787,1.0982,1.5784,1.5784,1.5784,1.5784,1.5784,1.5784,1.5784,1.5784,1.5784,1.5784,1.5784,1.5784,1.5784,1.5784,1.5784,1.5784,1.5784,1.5784,1.5784,1.5784,1.5644,1.5252,1.5105,1.5007,1.4865,1.4682,1.441,1.4143,1.3971,1.3699,1.3343,1.3248,1.3145,1.2952,1.2874,1.2837,1.2831,1.2741,1.2705,1.2705,1.2705,1.2705,1.2729,1.2916,1.2874,1.2753,1.3127,1.3314,1.3423,1.3598,1.4034,1.4609,1.5061,1.5901,1.6718,1.6331,1.5898,1.5575,1.5929,1.5561,1.5028,1.4926,1.4607,1.4216,1.3923,1.3595,1.3235,1.2876,1.2691,1.2593,1.2475,1.2523,1.2476,1.2145,1.1992,1.1776,1.1299,1.1072,1.0981,1.0981,1.0988,1.0982,1.0982,1.0982,1.0982,1.0982,1.0982,1.1076,1.124,1.1397,1.149,1.149,1.149,1.149,1.149,1.0863,1.0523,1.0523,1.0142,1.0174,1.0523,1.0523,1.0706,1.0982,1.0982,1.0982,1.0982,1.0982,1.1108,1.1233,1.0944,1.1101,1.1459,1.1156,1.1257,1.149,1.5784,1.5784,1.5784,1.5784,1.5784,1.5784,1.5784,1.5784,1.5784,1.5784,1.5784,1.5784,1.5784,1.5784,1.5784,1.5784,1.5784,1.5784,1.5784,1.5784,1.5784,1.5784,1.5784,1.573,1.5493,1.5218,1.4975,1.4691,1.4155,1.3888,1.3888,1.361,1.3519,1.3507,1.3197,1.3083,1.3109,1.2831,1.2711,1.2711,1.2711,1.2711,1.2711,1.2705,1.2705,1.2705,1.2705,1.2886,1.3083,1.3083,1.3296,1.3734,1.5167,1.6624,1.7751,1.7382,1.7278,1.7199,1.68,1.6689,1.661,1.6301,1.6206,1.5953,1.5024,1.4538,1.4141,1.3523,1.314,1.2991,1.3173,1.3219,1.3176,1.3114,1.31,1.3004,1.2646,1.2158,1.1809,1.1809,1.1334,1.1021,1.1021,1.1021,1.1021,1.1021,1.1021,1.124,1.1771,1.2313,1.259,1.259,1.259,1.259,1.259,1.1553,1.1021,1.1021,1.0982,1.0982,1.1021,1.1021,1.1021,1.1021,1.1021,1.1021,1.1021,1.1021,1.1334,1.1802,1.1654,1.1996,1.259,1.2367,1.2436,1.2529,1.5784,1.5784,1.5784,1.5784,1.5784,1.5784,1.5784,1.5784,1.5784,1.5784,1.5784,1.5784,1.5784,1.5784,1.5784,1.5784,1.5784,1.5784,1.5784,1.5784,1.5784,1.5784,1.5784,1.5784,1.573,1.5644,1.5463,1.5267,1.5096,1.4727,1.4167,1.4121,1.3878,1.3513,1.3435,1.3399,1.3393,1.3308,1.3272,1.3272,1.3272,1.3272,1.3254,1.3067,1.3,1.297,1.2777,1.2886,1.3083,1.3083,1.3608,1.4546,1.5999,1.7224,1.8073,1.7767,1.7461,1.7254,1.7143,1.6929,1.6665,1.6562,1.6389,1.6142,1.5834,1.5506,1.521,1.5057,1.4758,1.4548,1.4595,1.4166,1.3838,1.3805,1.36,1.3322,1.3012,1.2798,1.2617,1.2406,1.2212,1.212,1.212,1.212,1.212,1.212,1.212,1.2182,1.2336,1.2498,1.259,1.259,1.259,1.259,1.259,1.1903,1.1553,1.1553,1.117,1.1209,1.1553,1.1553,1.1771,1.212,1.212,1.212,1.212,1.212,1.2212,1.2375,1.2313,1.2406,1.259,1.2529,1.256,1.259,1.5784,1.5784,1.5784,1.5784,1.5784,1.5784,1.5784,1.5784,1.5784,1.5784,1.5784,1.5784,1.5784,1.5784,1.5784,1.5784,1.6157,1.6204,1.5832,1.652,1.6615,1.5825,1.6567,1.6615,1.5825,1.5784,1.573,1.5635,1.554,1.5266,1.4775,1.4688,1.4515,1.4259,1.3952,1.3869,1.3954,1.365,1.3513,1.3513,1.3513,1.3513,1.3501,1.3338,1.3173,1.3103,1.2928,1.291,1.2958,1.2958,1.39,1.5205,1.6131,1.7384,1.8438,1.8081,1.7834,1.7628,1.735,1.7111,1.6913,1.6729,1.6531,1.6412,1.6412,1.6142,1.5888,1.5888,1.5618,1.534,1.5205,1.4832,1.4442,1.4156,1.3934,1.3672,1.333,1.329,1.3155,1.2845,1.2805,1.275,1.2606,1.259,1.259,1.259,1.259,1.259,1.259,1.259,1.259,1.259,1.259,1.259,1.259,1.2274,1.212,1.212,1.1802,1.1802,1.212,1.212,1.2274,1.259,1.259,1.259,1.259,1.259,1.259,1.259,1.259,1.259,1.259,1.259,1.259,1.259,1.5784,1.5784,1.5784,1.5784,1.5784,1.5784,1.5784,1.5784,1.5784,1.5784,1.5784,1.5784,1.5784,1.5879,1.592,1.592,1.6857,1.7044,1.6109,1.777,1.8002,1.6157,1.7816,1.7956,1.6109,1.5967,1.5872,1.5784,1.5635,1.554,1.5493,1.5267,1.5265,1.5433,1.4687,1.4524,1.4742,1.3942,1.3598,1.3622,1.3592,1.3586,1.3586,1.3556,1.3399,1.3188,1.3139,1.3002,1.282,1.2796,1.4126,1.5779,1.5779,1.7124,1.8716,1.839,1.8295,1.816,1.754,1.7368,1.7199,1.6865,1.6713,1.6689,1.6689,1.6444,1.6254,1.6254,1.5975,1.5626,1.5292,1.5205,1.4959,1.4275,1.4122,1.4037,1.368,1.3632,1.3505,1.3179,1.3108,1.2996,1.267,1.2614,1.259,1.259,1.259,1.259,1.259,1.259,1.259,1.259,1.259,1.259,1.259,1.259,1.259,1.259,1.259,1.259,1.259,1.259,1.259,1.259,1.259,1.259,1.259,1.259,1.259,1.259,1.259,1.259,1.259,1.259,1.259,1.259,1.5784,1.5784,1.5784,1.5784,1.5784,1.5784,1.5784,1.5784,1.5784,1.5784,1.5784,1.5784,1.5784,1.6487,1.6951,1.6951,1.787,1.838,1.8141,1.8557,1.8603,1.8187,1.8557,1.8603,1.8141,1.7365,1.6574,1.5784,1.5778,1.5635,1.5493,1.5452,1.5341,1.5172,1.4997,1.5099,1.5284,1.4704,1.4543,1.4715,1.4309,1.4129,1.4105,1.39,1.3785,1.3682,1.3272,1.3386,1.3771,1.3553,1.4338,1.541,1.541,1.678,1.8398,1.8319,1.8295,1.8271,1.812,1.7683,1.7262,1.7183,1.6945,1.6689,1.6689,1.6634,1.6578,1.6578,1.6333,1.5983,1.5634,1.5401,1.5038,1.4565,1.4486,1.4367,1.4045,1.3997,1.387,1.3521,1.3251,1.306,1.2989,1.2758,1.259,1.259,1.259,1.259,1.259,1.259,1.259,1.259,1.259,1.259,1.259,1.259,1.259,1.259,1.259,1.259,1.259,1.259,1.259,1.259,1.259,1.259,1.259,1.259,1.259,1.259,1.259,1.259,1.259,1.259,1.259,1.259,1.5784,1.6204,1.6339,1.5879,1.6204,1.6346,1.5872,1.5784,1.5967,1.644,1.6534,1.6716,1.7171,1.7684,1.8017,1.8017,1.8926,1.9293,1.8842,1.9666,1.9758,1.8834,1.9712,1.9758,1.8834,1.8742,1.8234,1.7217,1.7217,1.7171,1.707,1.707,1.7062,1.7056,1.6812,1.6816,1.7043,1.669,1.634,1.6002,1.5787,1.5599,1.5433,1.5002,1.5003,1.5198,1.4721,1.4604,1.4606,1.4107,1.4534,1.5225,1.4879,1.6075,1.7629,1.7799,1.8071,1.8295,1.8295,1.8033,1.7683,1.7358,1.7135,1.6945,1.6737,1.6689,1.6689,1.6689,1.6547,1.6349,1.5991,1.565,1.5308,1.4959,1.4716,1.4542,1.4351,1.4328,1.4193,1.3878,1.368,1.3513,1.3338,1.3188,1.3084,1.3084,1.3084,1.3012,1.2853,1.2845,1.2773,1.2598,1.259,1.259,1.259,1.259,1.259,1.259,1.259,1.259,1.259,1.259,1.259,1.259,1.259,1.259,1.259,1.259,1.259,1.259,1.259,1.259,1.259,1.259,1.259,1.259,1.6015,1.6723,1.7091,1.6433,1.699,1.7232,1.6204,1.6197,1.6527,1.7232,1.7466,1.7878,1.8696,1.8926,1.9109,1.9293,2.0076,2.0212,1.9338,2.0817,2.0997,1.9392,2.0817,2.0952,1.9338,2.0121,1.9977,1.8788,1.8788,1.8788,1.8788,1.8788,1.89,1.9107,1.8675,1.8629,1.8854,1.865,1.8125,1.7391,1.745,1.7329,1.7172,1.661,1.6656,1.6972,1.665,1.609,1.5432,1.4824,1.5007,1.5354,1.4749,1.5618,1.6946,1.7227,1.7753,1.8295,1.8295,1.8295,1.816,1.7596,1.7366,1.7241,1.698,1.6819,1.6689,1.6689,1.6689,1.6586,1.6269,1.596,1.568,1.5357,1.5,1.4784,1.4721,1.4713,1.4565,1.4236,1.4148,1.3974,1.3616,1.3618,1.3618,1.3618,1.3618,1.3498,1.3187,1.3179,1.3044,1.2694,1.2686,1.2654,1.259,1.259,1.259,1.259,1.259,1.259,1.259,1.259,1.259,1.259,1.259,1.259,1.259,1.259,1.259,1.259,1.259,1.259,1.259,1.259,1.259,1.259,1.6904,1.7192,1.7512,1.8288,1.8511,1.8241,1.7232,1.7831,1.8149,1.7419,1.8064,1.8657,1.8796,1.9567,2.0439,2.123,2.1419,2.1463,2.132,2.1553,2.1597,2.132,2.1553,2.1597,2.132,2.1454,2.0628,1.8788,1.8788,1.8788,1.8788,1.8788,1.8819,1.8859,1.8765,1.8885,1.9091,1.8637,1.8666,1.9046,1.8593,1.8621,1.8863,1.8769,1.855,1.832,1.8032,1.7221,1.6367,1.6418,1.6328,1.6156,1.607,1.6571,1.7222,1.727,1.7791,1.8295,1.8295,1.8295,1.8279,1.8184,1.7715,1.7389,1.7669,1.7201,1.6689,1.6689,1.6689,1.6586,1.6269,1.6166,1.6037,1.5679,1.5598,1.5458,1.5174,1.5133,1.4966,1.4577,1.4299,1.3974,1.3616,1.3618,1.3618,1.3618,1.3618,1.3568,1.3521,1.3513,1.3362,1.3028,1.302,1.2901,1.2598,1.259,1.259,1.259,1.259,1.259,1.259,1.259,1.259,1.259,1.259,1.259,1.259,1.259,1.259,1.259,1.259,1.259,1.259,1.259,1.259,1.259,1.7596,1.8326,1.8926,1.8834,1.9247,1.9293,1.8288,1.8511,1.8834,1.8972,1.9338,1.984,2.0357,2.0817,2.1266,2.1651,2.1696,2.1696,2.1696,2.1696,2.1696,2.1696,2.1696,2.1696,2.1696,2.1696,2.1275,2.0402,2.0402,2.0402,2.0402,2.0402,2.0402,2.0402,2.0402,2.0488,2.0606,2.0586,2.0412,2.0123,2.0168,2.0265,2.0254,2.0148,2.0256,2.0442,1.9884,1.891,1.7835,1.7569,1.7081,1.6473,1.5943,1.6191,1.6761,1.6761,1.7235,1.7811,1.82,1.8295,1.8295,1.8295,1.8073,1.7877,1.7909,1.7646,1.7309,1.7147,1.7261,1.7293,1.6936,1.69,1.6888,1.6716,1.6564,1.6228,1.5604,1.5554,1.5299,1.4665,1.447,1.4312,1.4153,1.4172,1.4172,1.4172,1.4172,1.4085,1.3886,1.3878,1.3719,1.3378,1.3187,1.302,1.2893,1.2694,1.259,1.259,1.259,1.259,1.259,1.259,1.259,1.259,1.259,1.259,1.259,1.259,1.259,1.259,1.259,1.259,1.259,1.259,1.259,1.259]}]]